GFSNE_prec_precacc_027.txt.gz
Total_Precipitation_Accumulation
0.00 0.00 0.00 0.00 0.00 0.00 0.00 0.00 0.00 0.00 0.00 0.00 0.00 0.00 0.00 0.00 0.00 0.00 0.00 0.00 0.00 0.00 0.00 0.00 0.00 0.01 0.01 0.01 0.02 0.03 0.03 0.04 0.06 0.10 0.13 0.16 0.18 0.19
0.00 0.00 0.00 0.00 0.00 0.00 0.00 0.00 0.00 0.00 0.00 0.00 0.00 0.00 0.00 0.00 0.00 0.00 0.00 0.00 0.00 0.00 0.01 0.01 0.01 0.00 0.01 0.01 0.01 0.02 0.05 0.08 0.13 0.20 0.27 0.33 0.36 0.35
0.00 0.00 0.00 0.00 0.00 0.00 0.00 0.00 0.00 0.00 0.00 0.00 0.00 0.00 0.00 0.00 0.00 0.00 0.00 0.00 0.00 0.01 0.01 0.00 0.00 0.00 0.01 0.01 0.03 0.04 0.06 0.10 0.13 0.17 0.23 0.32 0.36 0.36
0.01 0.01 0.00 0.00 0.00 0.00 0.00 0.00 0.00 0.00 0.00 0.01 0.00 0.00 0.00 0.00 0.00 0.00 0.00 0.00 0.00 0.00 0.00 0.00 0.00 0.00 0.01 0.02 0.04 0.07 0.11 0.15 0.18 0.20 0.20 0.20 0.20 0.22
0.00 0.00 0.00 0.00 0.00 0.00 0.00 0.00 0.00 0.00 0.00 0.01 0.00 0.00 0.00 0.01 0.02 0.00 0.00 0.00 0.00 0.00 0.00 0.00 0.00 0.00 0.01 0.03 0.05 0.07 0.07 0.05 0.06 0.05 0.06 0.07 0.08 0.11
0.00 0.00 0.00 0.00 0.00 0.00 0.00 0.00 0.00 0.00 0.00 0.01 0.07 0.05 0.04 0.03 0.01 0.00 0.00 0.00 0.00 0.00 0.00 0.00 0.00 0.00 0.00 0.00 0.00 0.00 0.00 0.00 0.01 0.01 0.02 0.04 0.07 0.08
0.00 0.00 0.00 0.00 0.00 0.00 0.00 0.00 0.00 0.02 0.09 0.18 0.12 0.10 0.06 0.00 0.00 0.00 0.00 0.01 0.01 0.00 0.00 0.00 0.00 0.00 0.00 0.00 0.00 0.00 0.00 0.01 0.03 0.06 0.10 0.13 0.15 0.17
0.00 0.00 0.00 0.00 0.00 0.00 0.00 0.00 0.03 0.15 0.18 0.18 0.15 0.04 0.00 0.00 0.00 0.02 0.06 0.06 0.05 0.00 0.00 0.00 0.00 0.00 0.00 0.00 0.00 0.01 0.01 0.02 0.03 0.05 0.08 0.11 0.12 0.14
0.00 0.00 0.00 0.00 0.00 0.00 0.00 0.06 0.13 0.10 0.09 0.06 0.01 0.00 0.01 0.03 0.10 0.09 0.07 0.10 0.05 0.00 0.02 0.02 0.00 0.00 0.00 0.00 0.00 0.00 0.01 0.01 0.02 0.05 0.08 0.09 0.09 0.10
0.00 0.00 0.00 0.00 0.00 0.01 0.09 0.16 0.06 0.02 0.00 0.00 0.00 0.01 0.04 0.04 0.06 0.15 0.08 0.06 0.02 0.00 0.00 0.04 0.00 0.00 0.00 0.00 0.00 0.00 0.00 0.01 0.02 0.04 0.07 0.10 0.14 0.17
0.00 0.00 0.00 0.01 0.01 0.06 0.08 0.04 0.00 0.00 0.00 0.01 0.02 0.02 0.01 0.00 0.00 0.06 0.07 0.07 0.05 0.00 0.00 0.01 0.00 0.00 0.00 0.00 0.00 0.00 0.00 0.01 0.01 0.02 0.04 0.05 0.06 0.08
0.00 0.00 0.00 0.01 0.04 0.08 0.03 0.00 0.00 0.00 0.05 0.02 0.00 0.00 0.00 0.00 0.00 0.01 0.07 0.24 0.12 0.11 0.00 0.13 0.07 0.04 0.18 0.01 0.00 0.00 0.00 0.00 0.00 0.01 0.02 0.03 0.06 0.09
0.00 0.00 0.00 0.02 0.04 0.02 0.01 0.00 0.01 0.02 0.02 0.00 0.00 0.00 0.00 0.00 0.00 0.00 0.02 0.21 0.38 0.24 0.00 0.33 0.38 0.05 0.20 0.06 0.00 0.00 0.00 0.00 0.00 0.00 0.01 0.04 0.11 0.21
0.01 0.00 0.01 0.03 0.01 0.00 0.00 0.01 0.02 0.01 0.00 0.00 0.00 0.00 0.00 0.00 0.00 0.00 0.00 0.02 0.09 0.27 0.09 0.16 0.59 0.20 0.34 0.17 0.02 0.00 0.00 0.00 0.00 0.02 0.03 0.08 0.16 0.24
0.01 0.01 0.01 0.00 0.00 0.00 0.00 0.00 0.00 0.00 0.00 0.01 0.01 0.00 0.00 0.00 0.00 0.00 0.00 0.00 0.01 0.01 0.03 0.03 0.23 0.22 0.31 0.32 0.18 0.03 0.07 0.02 0.01 0.08 0.14 0.22 0.25 0.27
0.00 0.00 0.00 0.00 0.00 0.00 0.00 0.00 0.00 0.00 0.01 0.03 0.01 0.00 0.00 0.00 0.00 0.00 0.03 0.01 0.05 0.00 0.00 0.01 0.06 0.21 0.32 0.14 0.26 0.18 0.06 0.19 0.08 0.09 0.22 0.17 0.16 0.23
0.01 0.00 0.00 0.00 0.00 0.00 0.00 0.00 0.00 0.00 0.01 0.01 0.02 0.02 0.01 0.00 0.00 0.00 0.04 0.08 0.09 0.03 0.02 0.00 0.00 0.02 0.07 0.11 0.21 0.10 0.08 0.09 0.19 0.31 0.28 0.21 0.10 0.24
0.00 0.00 0.00 0.00 0.00 0.00 0.00 0.00 0.00 0.00 0.01 0.02 0.03 0.03 0.06 0.04 0.04 0.02 0.02 0.06 0.09 0.03 0.04 0.02 0.01 0.05 0.02 0.01 0.08 0.19 0.22 0.19 0.20 0.23 0.22 0.42 0.22 0.16
0.00 0.00 0.00 0.00 0.00 0.00 0.01 0.02 0.01 0.00 0.02 0.04 0.04 0.06 0.12 0.08 0.03 0.03 0.02 0.04 0.03 0.02 0.03 0.04 0.10 0.23 0.23 0.06 0.03 0.18 0.52 0.37 0.21 0.22 0.28 0.41 0.53 0.40
0.00 0.00 0.00 0.00 0.00 0.01 0.02 0.03 0.02 0.01 0.01 0.02 0.08 0.12 0.13 0.15 0.07 0.07 0.06 0.11 0.15 0.11 0.06 0.02 0.05 0.22 0.53 0.45 0.31 0.08 0.17 0.38 0.54 0.50 0.40 0.39 0.65 0.59
0.00 0.00 0.00 0.00 0.01 0.02 0.02 0.03 0.04 0.05 0.08 0.12 0.08 0.11 0.13 0.22 0.11 0.05 0.07 0.07 0.11 0.11 0.09 0.03 0.04 0.11 0.18 0.15 0.12 0.03 0.04 0.10 0.31 0.70 0.60 0.48 0.31 0.17
0.00 0.00 0.00 0.00 0.01 0.03 0.04 0.04 0.04 0.02 0.04 0.06 0.08 0.13 0.14 0.18 0.23 0.16 0.10 0.15 0.08 0.07 0.08 0.04 0.02 0.05 0.05 0.15 0.11 0.03 0.02 0.01 0.06 0.16 0.25 0.65 0.91 0.91
0.00 0.00 0.00 0.01 0.02 0.03 0.05 0.04 0.04 0.03 0.06 0.12 0.11 0.13 0.17 0.21 0.12 0.12 0.12 0.12 0.14 0.15 0.08 0.05 0.01 0.02 0.02 0.06 0.09 0.05 0.02 0.03 0.03 0.11 0.17 0.22 0.36 0.58

GFSNE_prec_precacc_030.txt.gz
Total_Precipitation_Accumulation
0.01 0.00 0.00 0.00 0.00 0.00 0.00 0.00 0.00 0.00 0.00 0.00 0.00 0.00 0.00 0.00 0.00 0.00 0.00 0.00 0.00 0.00 0.00 0.00 0.00 0.01 0.01 0.01 0.02 0.03 0.03 0.04 0.06 0.10 0.13 0.16 0.20 0.22
0.01 0.00 0.00 0.00 0.00 0.00 0.00 0.00 0.00 0.00 0.00 0.00 0.00 0.00 0.00 0.00 0.00 0.00 0.00 0.00 0.00 0.00 0.01 0.01 0.01 0.00 0.01 0.01 0.01 0.02 0.05 0.08 0.13 0.21 0.28 0.34 0.38 0.38
0.01 0.01 0.00 0.00 0.00 0.00 0.00 0.00 0.00 0.00 0.00 0.00 0.00 0.00 0.00 0.00 0.00 0.00 0.00 0.00 0.00 0.01 0.01 0.00 0.00 0.00 0.01 0.01 0.03 0.04 0.06 0.10 0.14 0.18 0.24 0.33 0.38 0.38
0.04 0.04 0.03 0.00 0.00 0.00 0.00 0.00 0.00 0.00 0.00 0.01 0.00 0.00 0.00 0.00 0.00 0.00 0.00 0.00 0.00 0.00 0.00 0.00 0.00 0.00 0.01 0.02 0.04 0.07 0.12 0.16 0.19 0.20 0.21 0.20 0.20 0.22
0.04 0.04 0.02 0.00 0.00 0.00 0.00 0.00 0.00 0.00 0.00 0.01 0.00 0.00 0.00 0.01 0.02 0.00 0.00 0.00 0.00 0.00 0.00 0.00 0.00 0.00 0.01 0.03 0.05 0.07 0.07 0.05 0.06 0.05 0.06 0.07 0.08 0.11
0.08 0.07 0.04 0.01 0.00 0.00 0.00 0.00 0.00 0.00 0.00 0.01 0.07 0.05 0.04 0.03 0.01 0.00 0.00 0.00 0.00 0.00 0.00 0.00 0.00 0.00 0.00 0.00 0.00 0.00 0.00 0.00 0.01 0.01 0.02 0.04 0.07 0.08
0.06 0.05 0.02 0.01 0.00 0.00 0.00 0.00 0.00 0.02 0.09 0.18 0.12 0.10 0.06 0.00 0.00 0.00 0.00 0.01 0.01 0.00 0.00 0.00 0.00 0.00 0.00 0.00 0.00 0.00 0.00 0.01 0.03 0.06 0.10 0.14 0.15 0.17
0.07 0.05 0.03 0.01 0.00 0.00 0.00 0.00 0.03 0.15 0.18 0.18 0.15 0.04 0.00 0.00 0.00 0.02 0.06 0.06 0.05 0.00 0.00 0.00 0.00 0.00 0.00 0.00 0.00 0.01 0.01 0.02 0.03 0.06 0.09 0.11 0.12 0.14
0.08 0.05 0.02 0.01 0.00 0.00 0.00 0.06 0.13 0.10 0.09 0.06 0.01 0.00 0.01 0.03 0.10 0.10 0.07 0.10 0.05 0.00 0.02 0.02 0.00 0.00 0.00 0.00 0.00 0.00 0.01 0.01 0.02 0.05 0.08 0.09 0.09 0.10
0.06 0.03 0.01 0.00 0.00 0.01 0.09 0.16 0.06 0.02 0.00 0.00 0.00 0.01 0.04 0.04 0.07 0.16 0.09 0.06 0.02 0.00 0.00 0.04 0.00 0.00 0.00 0.00 0.00 0.00 0.00 0.01 0.02 0.04 0.08 0.11 0.14 0.17
0.01 0.00 0.00 0.01 0.01 0.06 0.08 0.04 0.00 0.00 0.00 0.01 0.02 0.02 0.01 0.01 0.00 0.06 0.07 0.07 0.05 0.00 0.00 0.01 0.00 0.00 0.00 0.00 0.00 0.00 0.00 0.01 0.01 0.02 0.04 0.05 0.06 0.08
0.00 0.00 0.00 0.01 0.04 0.08 0.03 0.00 0.00 0.00 0.05 0.02 0.00 0.00 0.00 0.00 0.00 0.01 0.07 0.25 0.13 0.12 0.00 0.13 0.07 0.05 0.19 0.01 0.00 0.00 0.00 0.00 0.00 0.01 0.02 0.03 0.06 0.09
0.00 0.00 0.00 0.02 0.04 0.02 0.01 0.00 0.01 0.02 0.02 0.00 0.00 0.00 0.00 0.00 0.00 0.00 0.02 0.21 0.39 0.25 0.00 0.35 0.41 0.05 0.22 0.07 0.00 0.00 0.00 0.00 0.00 0.00 0.01 0.04 0.11 0.22
0.01 0.00 0.01 0.03 0.01 0.00 0.00 0.01 0.02 0.01 0.00 0.00 0.00 0.00 0.00 0.00 0.00 0.00 0.00 0.02 0.10 0.27 0.09 0.17 0.65 0.21 0.37 0.19 0.02 0.00 0.00 0.00 0.00 0.02 0.03 0.08 0.16 0.24
0.01 0.01 0.01 0.00 0.00 0.00 0.00 0.00 0.00 0.00 0.00 0.01 0.01 0.00 0.00 0.00 0.00 0.00 0.00 0.00 0.01 0.01 0.03 0.03 0.24 0.23 0.34 0.34 0.19 0.03 0.07 0.02 0.01 0.08 0.14 0.22 0.25 0.27
0.00 0.00 0.00 0.00 0.00 0.00 0.00 0.00 0.00 0.00 0.01 0.03 0.01 0.00 0.00 0.00 0.00 0.00 0.03 0.01 0.05 0.00 0.00 0.01 0.06 0.21 0.34 0.15 0.28 0.19 0.06 0.19 0.08 0.09 0.22 0.17 0.16 0.23
0.01 0.00 0.00 0.00 0.00 0.00 0.00 0.00 0.00 0.00 0.01 0.01 0.02 0.02 0.01 0.00 0.00 0.00 0.04 0.08 0.09 0.03 0.02 0.00 0.00 0.02 0.07 0.12 0.24 0.11 0.08 0.09 0.19 0.31 0.28 0.21 0.10 0.24
0.00 0.00 0.00 0.00 0.00 0.00 0.00 0.00 0.00 0.00 0.01 0.02 0.03 0.04 0.06 0.04 0.04 0.02 0.02 0.07 0.10 0.03 0.04 0.02 0.01 0.05 0.02 0.01 0.09 0.22 0.25 0.19 0.20 0.23 0.22 0.45 0.23 0.16
0.00 0.00 0.00 0.00 0.00 0.00 0.01 0.02 0.01 0.00 0.02 0.04 0.04 0.06 0.12 0.09 0.03 0.04 0.03 0.04 0.03 0.03 0.03 0.04 0.11 0.25 0.26 0.07 0.03 0.19 0.59 0.43 0.22 0.23 0.28 0.42 0.54 0.41
0.00 0.00 0.00 0.00 0.00 0.01 0.02 0.03 0.03 0.01 0.01 0.02 0.08 0.12 0.13 0.15 0.07 0.07 0.06 0.12 0.16 0.11 0.06 0.02 0.05 0.23 0.59 0.50 0.35 0.09 0.17 0.41 0.60 0.54 0.41 0.39 0.66 0.59
0.00 0.00 0.00 0.00 0.01 0.02 0.02 0.03 0.04 0.05 0.08 0.12 0.09 0.11 0.13 0.23 0.12 0.05 0.08 0.07 0.12 0.11 0.10 0.03 0.04 0.11 0.18 0.18 0.15 0.04 0.04 0.10 0.32 0.76 0.67 0.55 0.32 0.17
0.00 0.00 0.00 0.00 0.01 0.03 0.04 0.04 0.04 0.02 0.04 0.06 0.08 0.14 0.14 0.19 0.24 0.17 0.11 0.16 0.08 0.07 0.09 0.04 0.02 0.05 0.07 0.21 0.15 0.05 0.03 0.01 0.06 0.16 0.27 0.72 0.98 0.97
0.00 0.00 0.00 0.01 0.02 0.03 0.05 0.04 0.04 0.03 0.06 0.12 0.11 0.14 0.18 0.21 0.12 0.13 0.13 0.12 0.14 0.16 0.09 0.06 0.02 0.02 0.03 0.08 0.12 0.08 0.04 0.04 0.03 0.11 0.17 0.23 0.37 0.60

GFSNE_prec_precacc_033.txt.gz
Total_Precipitation_Accumulation
0.02 0.01 0.01 0.00 0.00 0.00 0.00 0.00 0.00 0.00 0.00 0.00 0.00 0.00 0.00 0.00 0.00 0.00 0.00 0.00 0.00 0.00 0.00 0.00 0.00 0.01 0.01 0.01 0.02 0.03 0.03 0.04 0.06 0.10 0.13 0.16 0.20 0.23
0.01 0.01 0.00 0.00 0.00 0.00 0.00 0.00 0.00 0.00 0.00 0.00 0.00 0.00 0.00 0.00 0.00 0.00 0.00 0.00 0.00 0.00 0.01 0.01 0.01 0.00 0.01 0.01 0.01 0.02 0.05 0.08 0.13 0.21 0.28 0.35 0.40 0.41
0.01 0.01 0.01 0.01 0.01 0.01 0.00 0.00 0.00 0.00 0.00 0.00 0.00 0.00 0.00 0.00 0.00 0.00 0.00 0.00 0.00 0.01 0.01 0.00 0.00 0.00 0.01 0.01 0.03 0.04 0.06 0.10 0.14 0.18 0.25 0.34 0.40 0.41
0.08 0.09 0.08 0.06 0.07 0.06 0.02 0.02 0.01 0.01 0.01 0.01 0.00 0.00 0.00 0.00 0.00 0.00 0.00 0.00 0.00 0.00 0.00 0.00 0.00 0.00 0.01 0.02 0.04 0.07 0.12 0.16 0.19 0.20 0.21 0.21 0.21 0.23
0.08 0.08 0.07 0.06 0.07 0.06 0.05 0.04 0.04 0.03 0.02 0.01 0.00 0.00 0.00 0.01 0.02 0.00 0.00 0.00 0.00 0.00 0.00 0.00 0.00 0.00 0.01 0.03 0.05 0.07 0.07 0.05 0.06 0.05 0.06 0.07 0.08 0.11
0.13 0.13 0.13 0.11 0.09 0.08 0.09 0.08 0.05 0.02 0.01 0.01 0.07 0.05 0.04 0.03 0.01 0.00 0.00 0.00 0.00 0.00 0.00 0.00 0.00 0.00 0.00 0.00 0.00 0.00 0.00 0.00 0.01 0.01 0.03 0.05 0.07 0.09
0.13 0.14 0.14 0.12 0.10 0.08 0.06 0.04 0.02 0.03 0.10 0.18 0.12 0.10 0.06 0.00 0.00 0.00 0.00 0.01 0.01 0.00 0.00 0.00 0.00 0.00 0.00 0.00 0.00 0.00 0.00 0.01 0.03 0.07 0.11 0.14 0.16 0.18
0.16 0.17 0.15 0.12 0.09 0.07 0.05 0.03 0.04 0.16 0.18 0.18 0.15 0.04 0.00 0.00 0.00 0.02 0.06 0.06 0.06 0.00 0.00 0.00 0.00 0.00 0.00 0.00 0.00 0.01 0.01 0.02 0.03 0.06 0.09 0.11 0.13 0.15
0.24 0.18 0.13 0.09 0.08 0.07 0.04 0.07 0.13 0.10 0.09 0.06 0.01 0.00 0.01 0.03 0.10 0.10 0.07 0.10 0.06 0.00 0.02 0.02 0.00 0.00 0.00 0.00 0.00 0.00 0.01 0.01 0.02 0.05 0.08 0.10 0.10 0.11
0.19 0.14 0.09 0.06 0.03 0.02 0.09 0.16 0.06 0.02 0.00 0.00 0.00 0.01 0.04 0.04 0.07 0.16 0.09 0.06 0.02 0.00 0.00 0.04 0.00 0.00 0.00 0.00 0.00 0.00 0.00 0.01 0.02 0.04 0.08 0.11 0.15 0.18
0.04 0.01 0.00 0.01 0.01 0.06 0.08 0.04 0.00 0.00 0.00 0.01 0.02 0.02 0.01 0.01 0.00 0.06 0.07 0.07 0.05 0.00 0.00 0.01 0.00 0.00 0.00 0.00 0.00 0.00 0.00 0.01 0.01 0.02 0.04 0.05 0.07 0.08
0.00 0.00 0.00 0.01 0.04 0.08 0.03 0.00 0.00 0.00 0.05 0.02 0.00 0.00 0.00 0.00 0.00 0.01 0.07 0.25 0.13 0.13 0.00 0.14 0.07 0.05 0.19 0.01 0.00 0.00 0.00 0.00 0.00 0.01 0.02 0.03 0.06 0.09
0.00 0.00 0.00 0.02 0.04 0.02 0.02 0.00 0.01 0.02 0.02 0.00 0.00 0.00 0.00 0.00 0.00 0.00 0.02 0.21 0.40 0.26 0.00 0.37 0.43 0.05 0.23 0.07 0.00 0.00 0.00 0.00 0.00 0.00 0.01 0.04 0.11 0.22
0.01 0.00 0.01 0.03 0.02 0.00 0.00 0.01 0.02 0.01 0.00 0.00 0.00 0.00 0.00 0.00 0.00 0.00 0.00 0.02 0.10 0.27 0.09 0.17 0.68 0.21 0.39 0.20 0.02 0.00 0.00 0.00 0.00 0.02 0.03 0.08 0.16 0.24
0.01 0.01 0.01 0.00 0.00 0.00 0.00 0.00 0.00 0.00 0.00 0.01 0.01 0.00 0.00 0.00 0.00 0.00 0.00 0.00 0.01 0.01 0.03 0.03 0.25 0.23 0.36 0.37 0.20 0.04 0.07 0.02 0.01 0.08 0.14 0.22 0.25 0.27
0.00 0.00 0.00 0.00 0.00 0.00 0.00 0.00 0.00 0.00 0.01 0.03 0.01 0.00 0.00 0.00 0.00 0.00 0.03 0.01 0.05 0.00 0.00 0.01 0.06 0.22 0.35 0.16 0.29 0.20 0.06 0.19 0.08 0.09 0.22 0.17 0.16 0.23
0.01 0.00 0.00 0.00 0.00 0.00 0.00 0.00 0.00 0.00 0.01 0.01 0.02 0.02 0.01 0.00 0.00 0.00 0.04 0.09 0.10 0.03 0.02 0.00 0.00 0.02 0.07 0.12 0.25 0.11 0.08 0.09 0.19 0.31 0.28 0.21 0.10 0.24
0.00 0.00 0.00 0.00 0.00 0.00 0.00 0.00 0.00 0.00 0.01 0.02 0.03 0.04 0.06 0.04 0.04 0.02 0.02 0.07 0.10 0.03 0.04 0.02 0.01 0.06 0.02 0.01 0.09 0.23 0.26 0.20 0.20 0.23 0.23 0.47 0.24 0.16
0.00 0.00 0.00 0.00 0.00 0.00 0.01 0.02 0.01 0.00 0.02 0.04 0.04 0.06 0.12 0.09 0.03 0.04 0.03 0.05 0.04 0.03 0.03 0.04 0.11 0.27 0.29 0.07 0.03 0.19 0.62 0.46 0.23 0.24 0.28 0.42 0.54 0.41
0.00 0.00 0.00 0.00 0.00 0.01 0.02 0.03 0.03 0.01 0.01 0.02 0.08 0.12 0.13 0.16 0.07 0.08 0.06 0.13 0.16 0.12 0.07 0.02 0.05 0.24 0.62 0.52 0.37 0.09 0.17 0.44 0.66 0.58 0.41 0.39 0.66 0.59
0.00 0.00 0.00 0.00 0.01 0.02 0.02 0.04 0.04 0.06 0.08 0.13 0.09 0.12 0.13 0.24 0.13 0.06 0.08 0.08 0.12 0.12 0.11 0.03 0.04 0.11 0.19 0.20 0.17 0.04 0.04 0.10 0.35 0.86 0.75 0.60 0.32 0.17
0.00 0.00 0.00 0.00 0.01 0.03 0.04 0.04 0.04 0.02 0.04 0.06 0.09 0.14 0.15 0.19 0.25 0.17 0.11 0.16 0.09 0.07 0.09 0.04 0.02 0.05 0.08 0.24 0.17 0.05 0.03 0.01 0.06 0.17 0.30 0.81 1.04 1.00
0.00 0.00 0.00 0.01 0.02 0.03 0.05 0.04 0.04 0.03 0.06 0.13 0.12 0.14 0.18 0.22 0.13 0.13 0.13 0.13 0.15 0.17 0.10 0.07 0.02 0.02 0.03 0.08 0.13 0.10 0.04 0.04 0.03 0.11 0.17 0.23 0.37 0.60

GFSNE_prec_precacc_036.txt.gz
Total_Precipitation_Accumulation
0.05 0.03 0.01 0.01 0.01 0.00 0.00 0.00 0.00 0.00 0.00 0.00 0.00 0.00 0.00 0.00 0.00 0.00 0.00 0.00 0.00 0.00 0.00 0.00 0.00 0.01 0.01 0.01 0.02 0.03 0.03 0.04 0.06 0.10 0.13 0.17 0.21 0.24
0.05 0.03 0.01 0.01 0.00 0.00 0.00 0.00 0.00 0.01 0.00 0.00 0.00 0.00 0.00 0.00 0.00 0.00 0.00 0.00 0.00 0.00 0.01 0.01 0.01 0.00 0.01 0.01 0.01 0.02 0.05 0.08 0.13 0.21 0.29 0.36 0.41 0.42
0.07 0.08 0.08 0.06 0.02 0.01 0.02 0.02 0.03 0.04 0.05 0.04 0.01 0.01 0.01 0.01 0.01 0.00 0.00 0.00 0.00 0.01 0.01 0.00 0.00 0.00 0.01 0.01 0.03 0.04 0.06 0.10 0.14 0.18 0.25 0.35 0.41 0.43
0.10 0.10 0.09 0.08 0.10 0.12 0.12 0.12 0.12 0.10 0.07 0.08 0.06 0.07 0.05 0.03 0.01 0.00 0.00 0.00 0.00 0.00 0.00 0.00 0.00 0.00 0.01 0.02 0.04 0.07 0.12 0.16 0.19 0.21 0.21 0.21 0.21 0.23
0.12 0.12 0.12 0.12 0.14 0.12 0.12 0.14 0.15 0.15 0.14 0.11 0.05 0.02 0.03 0.03 0.03 0.01 0.00 0.00 0.00 0.00 0.00 0.00 0.00 0.00 0.01 0.03 0.05 0.07 0.07 0.05 0.06 0.06 0.06 0.07 0.08 0.11
0.15 0.16 0.16 0.15 0.15 0.17 0.21 0.23 0.21 0.16 0.09 0.05 0.09 0.07 0.06 0.04 0.02 0.00 0.00 0.00 0.00 0.00 0.00 0.00 0.00 0.00 0.00 0.00 0.00 0.00 0.00 0.00 0.01 0.01 0.03 0.05 0.07 0.09
0.16 0.18 0.20 0.22 0.27 0.27 0.20 0.16 0.12 0.10 0.15 0.22 0.15 0.13 0.07 0.00 0.00 0.00 0.00 0.01 0.01 0.00 0.00 0.00 0.00 0.00 0.00 0.00 0.00 0.00 0.00 0.01 0.03 0.07 0.11 0.14 0.16 0.19
0.21 0.25 0.28 0.29 0.24 0.18 0.11 0.08 0.09 0.20 0.23 0.21 0.16 0.05 0.00 0.00 0.00 0.02 0.06 0.06 0.06 0.00 0.00 0.00 0.00 0.00 0.00 0.00 0.00 0.01 0.01 0.02 0.03 0.06 0.09 0.12 0.13 0.15
0.36 0.31 0.25 0.19 0.15 0.12 0.09 0.12 0.16 0.12 0.09 0.06 0.01 0.00 0.01 0.03 0.10 0.10 0.08 0.11 0.06 0.00 0.02 0.02 0.00 0.00 0.00 0.00 0.00 0.00 0.01 0.01 0.02 0.05 0.08 0.10 0.10 0.11
0.24 0.19 0.15 0.10 0.06 0.03 0.09 0.16 0.06 0.02 0.00 0.00 0.00 0.01 0.04 0.04 0.07 0.17 0.10 0.07 0.02 0.00 0.00 0.04 0.00 0.00 0.00 0.00 0.00 0.00 0.00 0.01 0.02 0.04 0.08 0.11 0.15 0.18
0.06 0.03 0.01 0.01 0.01 0.06 0.08 0.04 0.00 0.00 0.00 0.01 0.02 0.02 0.01 0.01 0.00 0.06 0.07 0.07 0.05 0.00 0.00 0.01 0.00 0.00 0.00 0.00 0.00 0.00 0.00 0.01 0.01 0.02 0.04 0.05 0.07 0.08
0.00 0.00 0.00 0.01 0.04 0.08 0.03 0.00 0.00 0.00 0.05 0.02 0.00 0.00 0.00 0.00 0.00 0.01 0.07 0.25 0.14 0.13 0.00 0.14 0.07 0.05 0.20 0.01 0.00 0.00 0.00 0.00 0.00 0.01 0.02 0.03 0.06 0.09
0.00 0.00 0.00 0.02 0.04 0.03 0.02 0.00 0.01 0.02 0.02 0.00 0.00 0.00 0.00 0.00 0.00 0.00 0.02 0.21 0.40 0.26 0.00 0.38 0.43 0.05 0.24 0.07 0.00 0.00 0.00 0.00 0.00 0.00 0.01 0.04 0.11 0.22
0.01 0.00 0.01 0.03 0.02 0.00 0.00 0.01 0.02 0.01 0.00 0.00 0.00 0.00 0.00 0.00 0.00 0.00 0.00 0.02 0.10 0.27 0.09 0.18 0.70 0.21 0.39 0.21 0.02 0.00 0.00 0.00 0.00 0.02 0.03 0.08 0.16 0.24
0.01 0.01 0.01 0.00 0.00 0.00 0.00 0.00 0.00 0.00 0.00 0.01 0.01 0.00 0.00 0.00 0.00 0.00 0.00 0.00 0.01 0.01 0.03 0.03 0.25 0.23 0.37 0.38 0.21 0.04 0.07 0.02 0.01 0.08 0.14 0.22 0.25 0.27
0.00 0.00 0.00 0.00 0.00 0.00 0.00 0.00 0.00 0.00 0.01 0.03 0.01 0.00 0.00 0.00 0.00 0.00 0.03 0.01 0.05 0.00 0.00 0.01 0.06 0.22 0.36 0.16 0.30 0.20 0.06 0.19 0.08 0.09 0.22 0.17 0.16 0.23
0.01 0.00 0.00 0.00 0.00 0.00 0.00 0.00 0.00 0.00 0.01 0.01 0.02 0.02 0.01 0.00 0.00 0.00 0.04 0.09 0.10 0.04 0.02 0.00 0.00 0.02 0.07 0.13 0.26 0.12 0.08 0.09 0.19 0.31 0.29 0.22 0.10 0.24
0.00 0.00 0.00 0.00 0.00 0.00 0.00 0.00 0.00 0.00 0.01 0.02 0.03 0.04 0.06 0.04 0.05 0.02 0.02 0.07 0.10 0.04 0.04 0.02 0.02 0.06 0.02 0.01 0.10 0.23 0.26 0.20 0.20 0.23 0.23 0.49 0.25 0.16
0.00 0.00 0.00 0.00 0.00 0.00 0.01 0.02 0.01 0.00 0.02 0.04 0.05 0.06 0.12 0.09 0.03 0.04 0.03 0.05 0.04 0.03 0.03 0.04 0.12 0.28 0.32 0.08 0.03 0.19 0.62 0.46 0.24 0.24 0.28 0.42 0.55 0.41
0.00 0.00 0.00 0.00 0.00 0.01 0.02 0.03 0.03 0.01 0.01 0.03 0.09 0.12 0.14 0.16 0.08 0.08 0.06 0.13 0.17 0.12 0.07 0.02 0.05 0.24 0.65 0.53 0.38 0.09 0.17 0.44 0.68 0.60 0.41 0.40 0.66 0.59
0.00 0.00 0.00 0.00 0.01 0.02 0.03 0.04 0.04 0.06 0.08 0.13 0.09 0.12 0.13 0.24 0.13 0.06 0.08 0.08 0.12 0.13 0.12 0.03 0.04 0.11 0.19 0.22 0.20 0.04 0.04 0.10 0.36 0.90 0.78 0.63 0.33 0.17
0.00 0.00 0.00 0.00 0.01 0.03 0.04 0.04 0.04 0.02 0.05 0.06 0.09 0.14 0.15 0.20 0.25 0.18 0.11 0.17 0.09 0.08 0.09 0.04 0.02 0.06 0.10 0.28 0.19 0.06 0.03 0.01 0.06 0.17 0.31 0.86 1.10 1.04
0.00 0.00 0.00 0.01 0.02 0.03 0.05 0.05 0.04 0.03 0.07 0.13 0.12 0.14 0.18 0.22 0.13 0.13 0.13 0.13 0.15 0.17 0.10 0.08 0.02 0.03 0.04 0.09 0.14 0.10 0.04 0.04 0.03 0.11 0.17 0.23 0.38 0.60

GFSNE_prec_precacc_042.txt.gz
Total_Precipitation_Accumulation
0.18 0.16 0.12 0.10 0.09 0.09 0.09 0.08 0.08 0.09 0.08 0.07 0.08 0.07 0.03 0.03 0.02 0.01 0.00 0.00 0.00 0.00 0.00 0.00 0.00 0.01 0.01 0.01 0.02 0.03 0.03 0.04 0.06 0.10 0.13 0.17 0.21 0.24
0.20 0.20 0.15 0.11 0.12 0.11 0.09 0.07 0.11 0.18 0.26 0.26 0.24 0.20 0.14 0.07 0.02 0.01 0.01 0.01 0.01 0.01 0.01 0.01 0.01 0.00 0.01 0.01 0.01 0.02 0.05 0.08 0.13 0.21 0.29 0.36 0.41 0.43
0.20 0.23 0.23 0.28 0.36 0.45 0.49 0.55 0.63 0.71 0.74 0.64 0.37 0.20 0.11 0.07 0.06 0.07 0.05 0.05 0.02 0.02 0.01 0.00 0.00 0.00 0.01 0.01 0.03 0.04 0.06 0.10 0.14 0.18 0.25 0.35 0.42 0.43
0.18 0.19 0.16 0.14 0.18 0.21 0.22 0.26 0.33 0.39 0.46 0.49 0.40 0.34 0.29 0.20 0.13 0.07 0.02 0.00 0.00 0.00 0.00 0.00 0.00 0.00 0.01 0.02 0.04 0.07 0.12 0.16 0.19 0.21 0.22 0.21 0.21 0.23
0.16 0.17 0.17 0.16 0.19 0.22 0.24 0.28 0.32 0.36 0.38 0.39 0.33 0.23 0.17 0.12 0.08 0.02 0.01 0.00 0.00 0.00 0.00 0.00 0.00 0.00 0.01 0.03 0.05 0.07 0.07 0.05 0.06 0.06 0.06 0.07 0.08 0.11
0.18 0.20 0.19 0.20 0.21 0.25 0.30 0.34 0.33 0.28 0.22 0.18 0.19 0.14 0.10 0.06 0.03 0.01 0.00 0.00 0.00 0.00 0.00 0.00 0.00 0.00 0.00 0.00 0.00 0.00 0.00 0.00 0.01 0.01 0.03 0.05 0.07 0.09
0.21 0.23 0.26 0.32 0.36 0.35 0.30 0.27 0.24 0.24 0.28 0.30 0.20 0.15 0.08 0.01 0.00 0.00 0.00 0.01 0.01 0.00 0.00 0.00 0.00 0.00 0.00 0.00 0.00 0.00 0.00 0.01 0.03 0.07 0.11 0.14 0.16 0.19
0.26 0.31 0.38 0.48 0.42 0.35 0.24 0.17 0.15 0.24 0.25 0.22 0.17 0.05 0.00 0.00 0.00 0.02 0.06 0.06 0.06 0.00 0.00 0.00 0.00 0.00 0.00 0.00 0.00 0.01 0.01 0.02 0.03 0.06 0.09 0.12 0.13 0.15
0.47 0.41 0.34 0.29 0.26 0.22 0.18 0.19 0.22 0.15 0.11 0.06 0.01 0.00 0.01 0.03 0.10 0.10 0.08 0.11 0.06 0.00 0.02 0.02 0.00 0.00 0.00 0.00 0.00 0.00 0.01 0.01 0.02 0.05 0.08 0.10 0.10 0.11
0.42 0.37 0.30 0.21 0.13 0.07 0.11 0.16 0.07 0.02 0.00 0.00 0.00 0.01 0.04 0.04 0.07 0.17 0.10 0.07 0.02 0.00 0.00 0.04 0.00 0.00 0.00 0.00 0.00 0.00 0.00 0.01 0.02 0.04 0.08 0.11 0.15 0.18
0.14 0.07 0.03 0.03 0.02 0.06 0.08 0.04 0.00 0.00 0.00 0.01 0.02 0.02 0.01 0.01 0.00 0.06 0.07 0.07 0.05 0.00 0.00 0.01 0.00 0.00 0.00 0.00 0.00 0.00 0.00 0.01 0.01 0.02 0.04 0.05 0.07 0.09
0.00 0.00 0.00 0.01 0.04 0.08 0.03 0.00 0.00 0.00 0.05 0.02 0.00 0.00 0.00 0.00 0.00 0.01 0.07 0.25 0.14 0.13 0.00 0.14 0.07 0.05 0.20 0.01 0.00 0.00 0.00 0.00 0.00 0.01 0.02 0.03 0.06 0.09
0.00 0.00 0.00 0.02 0.04 0.03 0.02 0.00 0.01 0.02 0.02 0.00 0.00 0.00 0.00 0.00 0.00 0.00 0.02 0.21 0.40 0.27 0.00 0.39 0.44 0.05 0.25 0.08 0.00 0.00 0.00 0.00 0.00 0.00 0.01 0.04 0.11 0.22
0.01 0.00 0.01 0.03 0.02 0.00 0.00 0.01 0.02 0.01 0.00 0.00 0.00 0.00 0.00 0.00 0.00 0.00 0.00 0.02 0.10 0.27 0.09 0.19 0.72 0.22 0.41 0.22 0.02 0.00 0.00 0.00 0.00 0.02 0.03 0.08 0.16 0.24
0.01 0.01 0.01 0.00 0.00 0.00 0.00 0.00 0.00 0.00 0.00 0.01 0.01 0.00 0.00 0.00 0.00 0.00 0.00 0.00 0.01 0.01 0.03 0.03 0.26 0.24 0.39 0.41 0.22 0.04 0.07 0.02 0.01 0.08 0.14 0.22 0.25 0.27
0.00 0.00 0.00 0.00 0.00 0.00 0.00 0.00 0.00 0.00 0.01 0.03 0.01 0.00 0.00 0.00 0.00 0.00 0.03 0.01 0.06 0.00 0.00 0.01 0.06 0.23 0.39 0.18 0.33 0.22 0.06 0.20 0.08 0.09 0.22 0.17 0.16 0.23
0.01 0.00 0.00 0.00 0.00 0.00 0.00 0.00 0.00 0.00 0.01 0.01 0.02 0.02 0.01 0.00 0.00 0.00 0.04 0.09 0.11 0.04 0.02 0.00 0.00 0.02 0.09 0.15 0.30 0.12 0.08 0.09 0.19 0.31 0.29 0.24 0.11 0.24
0.00 0.00 0.00 0.00 0.00 0.00 0.00 0.00 0.00 0.00 0.01 0.02 0.03 0.04 0.06 0.04 0.05 0.02 0.03 0.08 0.11 0.04 0.04 0.02 0.02 0.07 0.03 0.01 0.10 0.24 0.26 0.20 0.20 0.23 0.24 0.51 0.25 0.16
0.00 0.00 0.00 0.00 0.00 0.00 0.01 0.02 0.01 0.00 0.02 0.04 0.05 0.07 0.13 0.10 0.04 0.05 0.03 0.05 0.05 0.03 0.04 0.04 0.12 0.30 0.35 0.10 0.03 0.19 0.62 0.46 0.24 0.24 0.28 0.42 0.55 0.41
0.00 0.00 0.00 0.00 0.00 0.01 0.02 0.03 0.03 0.01 0.02 0.03 0.09 0.13 0.14 0.17 0.09 0.09 0.07 0.14 0.18 0.13 0.08 0.02 0.06 0.25 0.68 0.56 0.41 0.10 0.17 0.44 0.68 0.61 0.42 0.40 0.66 0.59
0.00 0.00 0.00 0.00 0.01 0.02 0.03 0.04 0.04 0.06 0.09 0.13 0.10 0.12 0.14 0.25 0.14 0.07 0.09 0.09 0.13 0.14 0.13 0.04 0.04 0.11 0.20 0.26 0.24 0.04 0.04 0.10 0.36 0.91 0.78 0.65 0.34 0.17
0.00 0.00 0.00 0.00 0.01 0.03 0.04 0.04 0.04 0.02 0.05 0.06 0.09 0.14 0.15 0.21 0.27 0.19 0.12 0.18 0.10 0.08 0.10 0.04 0.02 0.06 0.12 0.33 0.23 0.06 0.03 0.01 0.06 0.17 0.31 0.88 1.14 1.09
0.00 0.00 0.00 0.01 0.02 0.03 0.05 0.05 0.04 0.03 0.07 0.13 0.12 0.14 0.19 0.23 0.14 0.15 0.15 0.14 0.16 0.18 0.11 0.09 0.03 0.04 0.05 0.12 0.16 0.12 0.05 0.04 0.03 0.11 0.17 0.23 0.38 0.60

GFSNE_prec_precacc_045.txt.gz
Total_Precipitation_Accumulation
0.25 0.25 0.19 0.15 0.16 0.14 0.15 0.15 0.15 0.14 0.12 0.11 0.13 0.15 0.17 0.19 0.22 0.20 0.21 0.20 0.17 0.12 0.06 0.03 0.01 0.01 0.01 0.01 0.02 0.03 0.03 0.04 0.06 0.10 0.13 0.17 0.21 0.24
0.28 0.28 0.23 0.17 0.17 0.16 0.14 0.12 0.17 0.26 0.39 0.38 0.43 0.48 0.47 0.42 0.39 0.32 0.26 0.19 0.12 0.07 0.04 0.03 0.01 0.00 0.01 0.01 0.01 0.02 0.05 0.08 0.13 0.21 0.29 0.36 0.41 0.43
0.23 0.28 0.30 0.34 0.42 0.51 0.57 0.64 0.71 0.76 0.79 0.72 0.57 0.47 0.40 0.33 0.30 0.21 0.14 0.08 0.05 0.05 0.03 0.01 0.00 0.00 0.01 0.01 0.03 0.04 0.06 0.10 0.14 0.18 0.25 0.35 0.42 0.43
0.19 0.19 0.17 0.15 0.19 0.24 0.26 0.31 0.41 0.48 0.55 0.59 0.49 0.44 0.39 0.31 0.23 0.15 0.07 0.04 0.02 0.02 0.01 0.00 0.00 0.00 0.01 0.02 0.04 0.07 0.12 0.16 0.19 0.21 0.22 0.21 0.21 0.23
0.17 0.17 0.18 0.17 0.21 0.24 0.27 0.32 0.39 0.45 0.49 0.52 0.47 0.37 0.30 0.20 0.14 0.06 0.02 0.01 0.00 0.00 0.00 0.00 0.00 0.00 0.01 0.03 0.05 0.07 0.07 0.05 0.06 0.06 0.07 0.07 0.08 0.11
0.18 0.20 0.20 0.20 0.21 0.26 0.31 0.36 0.37 0.35 0.32 0.31 0.32 0.17 0.12 0.07 0.04 0.02 0.00 0.00 0.00 0.00 0.00 0.00 0.00 0.00 0.00 0.00 0.00 0.00 0.00 0.00 0.01 0.01 0.03 0.05 0.07 0.09
0.21 0.23 0.26 0.32 0.37 0.36 0.32 0.29 0.25 0.25 0.29 0.32 0.21 0.16 0.09 0.02 0.01 0.00 0.00 0.01 0.01 0.00 0.00 0.00 0.00 0.00 0.00 0.00 0.00 0.00 0.00 0.01 0.03 0.07 0.11 0.14 0.16 0.19
0.26 0.33 0.41 0.49 0.44 0.39 0.29 0.19 0.17 0.25 0.27 0.23 0.17 0.05 0.00 0.00 0.00 0.02 0.06 0.06 0.06 0.00 0.00 0.00 0.00 0.00 0.00 0.00 0.00 0.01 0.01 0.02 0.03 0.06 0.09 0.12 0.13 0.15
0.48 0.44 0.36 0.33 0.30 0.25 0.21 0.21 0.23 0.16 0.11 0.06 0.01 0.00 0.01 0.03 0.10 0.10 0.08 0.11 0.06 0.00 0.02 0.02 0.00 0.00 0.00 0.00 0.00 0.00 0.01 0.01 0.02 0.05 0.08 0.10 0.10 0.11
0.44 0.39 0.32 0.26 0.18 0.13 0.16 0.19 0.07 0.02 0.00 0.00 0.00 0.01 0.04 0.04 0.07 0.17 0.10 0.07 0.02 0.00 0.00 0.04 0.00 0.00 0.00 0.00 0.00 0.00 0.00 0.01 0.02 0.04 0.08 0.11 0.15 0.18
0.14 0.07 0.03 0.03 0.03 0.06 0.08 0.04 0.00 0.00 0.00 0.01 0.02 0.02 0.01 0.01 0.00 0.06 0.07 0.07 0.05 0.00 0.00 0.01 0.00 0.00 0.00 0.00 0.00 0.00 0.00 0.01 0.01 0.02 0.04 0.05 0.07 0.09
0.00 0.00 0.00 0.01 0.04 0.08 0.03 0.00 0.00 0.00 0.05 0.02 0.00 0.00 0.00 0.00 0.00 0.01 0.07 0.25 0.14 0.13 0.00 0.14 0.07 0.05 0.20 0.01 0.00 0.00 0.00 0.00 0.00 0.01 0.02 0.03 0.06 0.09
0.00 0.00 0.00 0.02 0.04 0.03 0.02 0.00 0.01 0.02 0.02 0.00 0.00 0.00 0.00 0.00 0.00 0.00 0.02 0.21 0.40 0.27 0.00 0.39 0.45 0.05 0.25 0.08 0.00 0.00 0.00 0.00 0.00 0.00 0.01 0.04 0.11 0.22
0.01 0.00 0.01 0.03 0.02 0.00 0.00 0.01 0.02 0.01 0.00 0.00 0.00 0.00 0.00 0.00 0.00 0.00 0.00 0.02 0.10 0.27 0.09 0.19 0.73 0.22 0.42 0.23 0.03 0.00 0.00 0.00 0.00 0.02 0.03 0.08 0.16 0.24
0.01 0.01 0.01 0.00 0.00 0.00 0.00 0.00 0.00 0.00 0.00 0.01 0.01 0.00 0.00 0.00 0.00 0.00 0.00 0.00 0.01 0.01 0.03 0.03 0.26 0.24 0.40 0.43 0.23 0.04 0.07 0.02 0.01 0.08 0.14 0.22 0.25 0.27
0.00 0.00 0.00 0.00 0.00 0.00 0.00 0.00 0.00 0.00 0.01 0.03 0.01 0.00 0.00 0.00 0.00 0.00 0.03 0.01 0.06 0.00 0.00 0.01 0.06 0.23 0.40 0.19 0.34 0.22 0.06 0.20 0.08 0.09 0.22 0.17 0.16 0.23
0.01 0.00 0.00 0.00 0.00 0.00 0.00 0.00 0.00 0.00 0.01 0.01 0.02 0.02 0.01 0.00 0.00 0.00 0.04 0.09 0.11 0.04 0.02 0.00 0.00 0.02 0.09 0.16 0.32 0.13 0.08 0.09 0.19 0.31 0.29 0.24 0.11 0.24
0.00 0.00 0.00 0.00 0.00 0.00 0.00 0.00 0.00 0.00 0.01 0.02 0.03 0.04 0.06 0.04 0.05 0.02 0.03 0.08 0.11 0.04 0.04 0.02 0.02 0.07 0.03 0.01 0.11 0.24 0.26 0.20 0.20 0.23 0.24 0.52 0.26 0.16
0.00 0.00 0.00 0.00 0.00 0.00 0.01 0.02 0.01 0.00 0.02 0.04 0.05 0.07 0.13 0.10 0.04 0.05 0.04 0.06 0.05 0.03 0.04 0.04 0.12 0.31 0.37 0.10 0.03 0.19 0.62 0.46 0.24 0.24 0.28 0.42 0.55 0.41
0.00 0.00 0.00 0.00 0.00 0.01 0.02 0.03 0.03 0.01 0.02 0.03 0.09 0.13 0.15 0.17 0.10 0.09 0.07 0.14 0.18 0.13 0.08 0.02 0.06 0.26 0.70 0.57 0.42 0.10 0.17 0.44 0.68 0.61 0.42 0.40 0.66 0.59
0.00 0.00 0.00 0.00 0.01 0.02 0.03 0.04 0.04 0.06 0.09 0.13 0.10 0.12 0.14 0.25 0.15 0.07 0.09 0.09 0.14 0.16 0.14 0.04 0.04 0.11 0.21 0.28 0.26 0.04 0.04 0.10 0.36 0.91 0.78 0.65 0.34 0.18
0.00 0.00 0.00 0.00 0.01 0.03 0.04 0.04 0.04 0.02 0.05 0.06 0.09 0.14 0.15 0.21 0.27 0.19 0.13 0.19 0.10 0.09 0.11 0.04 0.02 0.06 0.12 0.35 0.24 0.06 0.03 0.01 0.06 0.17 0.31 0.88 1.15 1.09
0.00 0.00 0.00 0.01 0.02 0.03 0.05 0.05 0.04 0.03 0.07 0.13 0.12 0.14 0.19 0.23 0.14 0.16 0.16 0.15 0.17 0.19 0.11 0.09 0.03 0.04 0.06 0.12 0.17 0.12 0.05 0.04 0.03 0.11 0.17 0.23 0.38 0.60

GFSNE_prec_precacc_048.txt.gz
Total_Precipitation_Accumulation
0.26 0.27 0.20 0.18 0.20 0.19 0.20 0.21 0.24 0.23 0.16 0.12 0.14 0.16 0.18 0.24 0.35 0.41 0.48 0.54 0.52 0.48 0.41 0.32 0.26 0.20 0.13 0.06 0.03 0.03 0.03 0.04 0.06 0.10 0.13 0.17 0.21 0.24
0.28 0.28 0.24 0.19 0.20 0.20 0.19 0.17 0.23 0.33 0.45 0.39 0.45 0.52 0.54 0.54 0.55 0.48 0.44 0.43 0.36 0.29 0.24 0.21 0.18 0.13 0.08 0.05 0.03 0.02 0.05 0.08 0.13 0.21 0.29 0.36 0.41 0.43
0.23 0.28 0.30 0.34 0.43 0.53 0.58 0.67 0.78 0.89 0.94 0.82 0.63 0.54 0.46 0.41 0.42 0.37 0.31 0.25 0.18 0.18 0.13 0.10 0.08 0.04 0.03 0.02 0.04 0.04 0.06 0.10 0.14 0.18 0.25 0.35 0.42 0.43
0.19 0.20 0.17 0.16 0.20 0.24 0.26 0.32 0.42 0.52 0.65 0.72 0.65 0.60 0.50 0.39 0.31 0.23 0.18 0.14 0.11 0.09 0.07 0.02 0.01 0.01 0.01 0.02 0.04 0.07 0.12 0.16 0.19 0.21 0.22 0.21 0.21 0.23
0.17 0.18 0.18 0.18 0.21 0.25 0.28 0.33 0.40 0.46 0.54 0.60 0.59 0.52 0.46 0.38 0.30 0.15 0.09 0.04 0.01 0.02 0.02 0.00 0.00 0.00 0.01 0.03 0.05 0.07 0.07 0.05 0.06 0.06 0.07 0.07 0.08 0.11
0.18 0.20 0.20 0.20 0.22 0.26 0.31 0.38 0.40 0.37 0.34 0.32 0.35 0.29 0.21 0.15 0.10 0.05 0.03 0.01 0.00 0.00 0.00 0.00 0.00 0.00 0.00 0.00 0.00 0.00 0.00 0.00 0.01 0.01 0.03 0.05 0.07 0.09
0.21 0.23 0.26 0.32 0.38 0.36 0.32 0.30 0.30 0.32 0.35 0.35 0.24 0.18 0.10 0.04 0.03 0.01 0.01 0.01 0.01 0.00 0.00 0.00 0.00 0.00 0.00 0.00 0.00 0.00 0.00 0.01 0.03 0.07 0.11 0.14 0.16 0.19
0.26 0.33 0.41 0.49 0.44 0.40 0.31 0.25 0.20 0.27 0.27 0.24 0.18 0.06 0.01 0.01 0.01 0.02 0.06 0.06 0.06 0.00 0.00 0.00 0.00 0.00 0.00 0.00 0.00 0.01 0.01 0.02 0.03 0.06 0.09 0.12 0.13 0.15
0.48 0.44 0.36 0.33 0.31 0.26 0.22 0.22 0.24 0.17 0.12 0.07 0.02 0.00 0.01 0.03 0.10 0.10 0.08 0.11 0.06 0.00 0.02 0.02 0.00 0.00 0.00 0.00 0.00 0.00 0.01 0.01 0.02 0.05 0.08 0.10 0.10 0.12
0.44 0.39 0.32 0.26 0.18 0.13 0.16 0.19 0.08 0.02 0.00 0.00 0.00 0.01 0.04 0.04 0.07 0.17 0.10 0.07 0.02 0.00 0.00 0.04 0.00 0.00 0.00 0.00 0.00 0.00 0.00 0.01 0.02 0.04 0.08 0.11 0.15 0.18
0.14 0.07 0.03 0.03 0.03 0.06 0.08 0.04 0.00 0.00 0.00 0.01 0.02 0.02 0.01 0.01 0.00 0.06 0.07 0.07 0.05 0.00 0.00 0.01 0.00 0.00 0.00 0.00 0.00 0.00 0.00 0.01 0.01 0.02 0.04 0.05 0.07 0.09
0.00 0.00 0.00 0.01 0.04 0.08 0.03 0.00 0.00 0.00 0.05 0.02 0.00 0.00 0.00 0.00 0.00 0.01 0.07 0.25 0.14 0.13 0.00 0.14 0.07 0.05 0.20 0.01 0.00 0.00 0.00 0.00 0.00 0.01 0.02 0.03 0.06 0.09
0.00 0.00 0.00 0.02 0.04 0.03 0.02 0.00 0.01 0.02 0.02 0.00 0.00 0.00 0.00 0.00 0.00 0.00 0.02 0.21 0.40 0.27 0.00 0.39 0.45 0.05 0.25 0.08 0.00 0.00 0.00 0.00 0.00 0.00 0.01 0.04 0.11 0.22
0.01 0.00 0.01 0.03 0.02 0.00 0.00 0.01 0.02 0.01 0.00 0.00 0.00 0.00 0.00 0.00 0.00 0.00 0.00 0.02 0.10 0.27 0.09 0.19 0.73 0.22 0.42 0.23 0.03 0.00 0.00 0.00 0.00 0.02 0.03 0.08 0.16 0.24
0.01 0.01 0.01 0.00 0.00 0.00 0.00 0.00 0.00 0.00 0.00 0.01 0.01 0.00 0.00 0.00 0.00 0.00 0.00 0.00 0.01 0.01 0.03 0.03 0.26 0.24 0.42 0.44 0.23 0.04 0.07 0.02 0.01 0.08 0.14 0.22 0.25 0.27
0.00 0.00 0.00 0.00 0.00 0.00 0.00 0.00 0.00 0.00 0.01 0.03 0.01 0.00 0.00 0.00 0.00 0.00 0.03 0.01 0.06 0.00 0.00 0.01 0.06 0.24 0.41 0.20 0.35 0.23 0.06 0.20 0.08 0.09 0.22 0.17 0.16 0.23
0.01 0.00 0.00 0.00 0.00 0.00 0.00 0.00 0.00 0.00 0.01 0.01 0.02 0.02 0.01 0.00 0.00 0.00 0.04 0.09 0.11 0.04 0.02 0.00 0.00 0.02 0.09 0.16 0.33 0.13 0.08 0.09 0.19 0.31 0.29 0.24 0.11 0.24
0.00 0.00 0.00 0.00 0.00 0.00 0.00 0.00 0.00 0.00 0.01 0.02 0.03 0.04 0.07 0.04 0.05 0.02 0.03 0.09 0.11 0.04 0.04 0.02 0.02 0.07 0.03 0.01 0.11 0.24 0.27 0.20 0.20 0.23 0.24 0.53 0.26 0.16
0.00 0.00 0.00 0.00 0.00 0.00 0.01 0.02 0.01 0.00 0.02 0.04 0.05 0.07 0.14 0.10 0.04 0.05 0.04 0.06 0.05 0.04 0.04 0.04 0.12 0.31 0.38 0.10 0.03 0.19 0.62 0.46 0.24 0.24 0.28 0.43 0.55 0.41
0.00 0.00 0.00 0.00 0.00 0.01 0.02 0.03 0.03 0.01 0.02 0.03 0.09 0.13 0.15 0.18 0.10 0.09 0.08 0.14 0.18 0.13 0.08 0.02 0.06 0.26 0.72 0.57 0.43 0.10 0.17 0.44 0.68 0.61 0.42 0.40 0.66 0.59
0.00 0.00 0.00 0.00 0.01 0.02 0.03 0.04 0.04 0.06 0.09 0.13 0.10 0.13 0.14 0.26 0.15 0.07 0.09 0.09 0.14 0.16 0.15 0.04 0.04 0.12 0.21 0.30 0.29 0.05 0.04 0.10 0.36 0.91 0.78 0.65 0.35 0.18
0.00 0.00 0.00 0.00 0.01 0.03 0.04 0.04 0.04 0.02 0.05 0.06 0.09 0.14 0.15 0.21 0.27 0.19 0.13 0.19 0.10 0.09 0.11 0.04 0.02 0.06 0.13 0.36 0.24 0.06 0.03 0.01 0.06 0.17 0.31 0.88 1.15 1.10
0.00 0.00 0.00 0.01 0.02 0.03 0.05 0.05 0.04 0.03 0.07 0.13 0.12 0.14 0.19 0.23 0.14 0.16 0.16 0.16 0.18 0.19 0.11 0.09 0.03 0.04 0.06 0.13 0.18 0.13 0.05 0.04 0.03 0.11 0.17 0.23 0.38 0.60

GFSNE_prec_precacc_051.txt.gz
Total_Precipitation_Accumulation
0.26 0.27 0.21 0.18 0.20 0.20 0.22 0.23 0.28 0.27 0.18 0.12 0.14 0.16 0.20 0.29 0.42 0.50 0.56 0.62 0.60 0.57 0.54 0.49 0.41 0.34 0.26 0.20 0.17 0.16 0.15 0.14 0.13 0.14 0.14 0.17 0.21 0.24
0.28 0.28 0.25 0.19 0.21 0.21 0.19 0.18 0.25 0.37 0.48 0.40 0.45 0.52 0.55 0.55 0.58 0.52 0.49 0.51 0.43 0.37 0.34 0.31 0.28 0.24 0.18 0.14 0.13 0.13 0.16 0.16 0.17 0.23 0.30 0.36 0.41 0.43
0.23 0.28 0.31 0.35 0.43 0.53 0.59 0.67 0.78 0.89 0.95 0.82 0.63 0.54 0.48 0.44 0.47 0.42 0.38 0.33 0.27 0.31 0.27 0.24 0.20 0.15 0.13 0.09 0.08 0.08 0.08 0.11 0.14 0.18 0.25 0.35 0.42 0.43
0.19 0.20 0.17 0.16 0.20 0.24 0.26 0.32 0.43 0.53 0.65 0.73 0.67 0.63 0.58 0.52 0.46 0.39 0.29 0.24 0.22 0.24 0.20 0.13 0.08 0.05 0.04 0.03 0.05 0.07 0.12 0.16 0.19 0.21 0.22 0.21 0.21 0.23
0.17 0.18 0.18 0.18 0.21 0.25 0.28 0.33 0.40 0.47 0.54 0.61 0.61 0.55 0.49 0.44 0.37 0.26 0.22 0.18 0.13 0.12 0.09 0.04 0.03 0.02 0.02 0.03 0.05 0.07 0.07 0.05 0.06 0.06 0.07 0.07 0.08 0.11
0.18 0.20 0.20 0.20 0.22 0.26 0.31 0.38 0.40 0.37 0.34 0.32 0.36 0.31 0.25 0.20 0.16 0.12 0.09 0.05 0.03 0.02 0.01 0.01 0.01 0.00 0.00 0.00 0.00 0.00 0.00 0.00 0.01 0.01 0.03 0.05 0.07 0.09
0.21 0.23 0.26 0.32 0.38 0.36 0.32 0.30 0.30 0.32 0.36 0.37 0.26 0.21 0.12 0.05 0.04 0.03 0.03 0.03 0.01 0.00 0.00 0.00 0.00 0.00 0.00 0.00 0.00 0.00 0.00 0.01 0.03 0.07 0.11 0.14 0.16 0.19
0.26 0.33 0.41 0.49 0.45 0.41 0.32 0.25 0.20 0.27 0.27 0.24 0.19 0.07 0.02 0.01 0.01 0.03 0.06 0.06 0.06 0.00 0.00 0.00 0.00 0.00 0.00 0.00 0.00 0.01 0.01 0.02 0.03 0.06 0.09 0.12 0.13 0.15
0.48 0.44 0.36 0.33 0.31 0.26 0.22 0.22 0.24 0.17 0.12 0.07 0.02 0.00 0.01 0.03 0.10 0.10 0.08 0.11 0.06 0.00 0.02 0.02 0.00 0.00 0.00 0.00 0.00 0.00 0.01 0.01 0.02 0.05 0.08 0.10 0.10 0.12
0.44 0.39 0.32 0.26 0.18 0.13 0.16 0.19 0.08 0.02 0.00 0.00 0.00 0.01 0.04 0.04 0.07 0.17 0.10 0.07 0.02 0.00 0.00 0.04 0.00 0.00 0.00 0.00 0.00 0.00 0.00 0.01 0.02 0.04 0.08 0.11 0.15 0.18
0.14 0.07 0.03 0.03 0.03 0.06 0.08 0.04 0.00 0.00 0.00 0.01 0.02 0.02 0.01 0.01 0.00 0.06 0.07 0.07 0.05 0.00 0.00 0.01 0.00 0.00 0.00 0.00 0.00 0.00 0.00 0.01 0.01 0.02 0.04 0.05 0.07 0.09
0.00 0.00 0.00 0.01 0.04 0.08 0.03 0.00 0.00 0.00 0.05 0.02 0.00 0.00 0.00 0.00 0.00 0.01 0.07 0.25 0.14 0.13 0.00 0.14 0.07 0.05 0.20 0.01 0.00 0.00 0.00 0.00 0.00 0.01 0.02 0.03 0.06 0.09
0.00 0.00 0.00 0.02 0.04 0.03 0.02 0.00 0.01 0.02 0.02 0.00 0.00 0.00 0.00 0.00 0.00 0.00 0.02 0.21 0.40 0.27 0.00 0.39 0.45 0.05 0.25 0.08 0.00 0.00 0.00 0.00 0.00 0.00 0.01 0.04 0.11 0.22
0.01 0.00 0.01 0.03 0.02 0.00 0.00 0.01 0.02 0.01 0.00 0.00 0.00 0.00 0.00 0.00 0.00 0.00 0.00 0.02 0.10 0.27 0.09 0.19 0.73 0.22 0.42 0.24 0.03 0.00 0.00 0.00 0.00 0.02 0.03 0.08 0.16 0.24
0.01 0.01 0.01 0.00 0.00 0.00 0.00 0.00 0.00 0.00 0.00 0.01 0.01 0.00 0.00 0.00 0.00 0.00 0.00 0.00 0.01 0.01 0.03 0.03 0.26 0.25 0.43 0.44 0.23 0.04 0.07 0.02 0.01 0.08 0.14 0.22 0.25 0.27
0.00 0.00 0.00 0.00 0.00 0.00 0.00 0.00 0.00 0.00 0.01 0.03 0.01 0.00 0.00 0.00 0.00 0.00 0.03 0.01 0.06 0.00 0.00 0.01 0.06 0.24 0.42 0.21 0.36 0.23 0.06 0.20 0.08 0.09 0.22 0.17 0.16 0.23
0.01 0.00 0.00 0.00 0.00 0.00 0.00 0.00 0.00 0.00 0.01 0.01 0.02 0.02 0.01 0.00 0.00 0.00 0.04 0.09 0.12 0.04 0.02 0.00 0.00 0.02 0.09 0.16 0.34 0.13 0.08 0.09 0.19 0.31 0.29 0.24 0.11 0.24
0.00 0.00 0.00 0.00 0.00 0.00 0.00 0.00 0.00 0.00 0.01 0.02 0.03 0.04 0.07 0.05 0.05 0.02 0.03 0.09 0.11 0.04 0.04 0.02 0.02 0.07 0.03 0.01 0.11 0.24 0.27 0.20 0.20 0.23 0.24 0.53 0.26 0.16
0.00 0.00 0.00 0.00 0.00 0.00 0.01 0.02 0.01 0.00 0.02 0.04 0.05 0.07 0.14 0.10 0.05 0.05 0.04 0.06 0.05 0.04 0.04 0.04 0.12 0.32 0.40 0.11 0.03 0.19 0.62 0.46 0.24 0.24 0.28 0.43 0.55 0.41
0.00 0.00 0.00 0.00 0.00 0.01 0.02 0.03 0.03 0.01 0.02 0.03 0.09 0.13 0.15 0.18 0.10 0.09 0.08 0.14 0.18 0.13 0.08 0.02 0.06 0.27 0.73 0.57 0.43 0.10 0.17 0.44 0.68 0.61 0.42 0.40 0.66 0.59
0.00 0.00 0.00 0.00 0.01 0.02 0.03 0.04 0.04 0.06 0.09 0.13 0.10 0.13 0.14 0.26 0.15 0.07 0.09 0.09 0.14 0.16 0.15 0.04 0.04 0.12 0.22 0.31 0.30 0.05 0.04 0.10 0.36 0.91 0.78 0.66 0.35 0.18
0.00 0.00 0.00 0.00 0.01 0.03 0.04 0.04 0.04 0.02 0.05 0.06 0.09 0.14 0.15 0.21 0.27 0.19 0.13 0.19 0.10 0.09 0.11 0.04 0.02 0.06 0.13 0.37 0.25 0.06 0.03 0.01 0.06 0.17 0.31 0.89 1.15 1.11
0.00 0.00 0.00 0.01 0.02 0.03 0.05 0.05 0.04 0.03 0.07 0.13 0.12 0.14 0.19 0.23 0.14 0.16 0.17 0.16 0.18 0.20 0.11 0.09 0.03 0.04 0.07 0.14 0.18 0.13 0.05 0.04 0.03 0.11 0.17 0.23 0.38 0.60

GFSNE_prec_precacc_054.txt.gz
Total_Precipitation_Accumulation
0.27 0.27 0.21 0.18 0.21 0.21 0.22 0.23 0.29 0.27 0.19 0.12 0.14 0.16 0.20 0.29 0.42 0.50 0.57 0.67 0.71 0.73 0.73 0.71 0.63 0.47 0.33 0.26 0.22 0.21 0.19 0.19 0.19 0.20 0.21 0.23 0.26 0.28
0.29 0.29 0.25 0.19 0.21 0.21 0.20 0.18 0.26 0.38 0.48 0.40 0.45 0.52 0.55 0.55 0.58 0.52 0.50 0.54 0.52 0.55 0.56 0.54 0.47 0.39 0.28 0.22 0.19 0.19 0.21 0.22 0.24 0.30 0.38 0.46 0.50 0.50
0.23 0.28 0.31 0.35 0.44 0.53 0.59 0.68 0.79 0.90 0.95 0.82 0.63 0.54 0.48 0.44 0.47 0.42 0.39 0.37 0.37 0.50 0.42 0.36 0.31 0.24 0.21 0.19 0.17 0.16 0.16 0.17 0.18 0.21 0.29 0.38 0.45 0.46
0.19 0.20 0.17 0.16 0.20 0.24 0.26 0.32 0.43 0.53 0.65 0.73 0.67 0.63 0.58 0.52 0.47 0.39 0.33 0.30 0.29 0.34 0.29 0.20 0.14 0.11 0.10 0.09 0.12 0.14 0.16 0.18 0.20 0.22 0.22 0.21 0.21 0.23
0.17 0.18 0.18 0.18 0.21 0.25 0.28 0.33 0.40 0.47 0.54 0.61 0.61 0.55 0.49 0.44 0.37 0.26 0.24 0.21 0.18 0.19 0.16 0.12 0.10 0.08 0.06 0.09 0.09 0.10 0.08 0.06 0.07 0.06 0.07 0.07 0.08 0.11
0.18 0.20 0.20 0.20 0.22 0.26 0.31 0.38 0.40 0.37 0.34 0.32 0.36 0.31 0.25 0.20 0.16 0.12 0.09 0.06 0.03 0.03 0.03 0.02 0.02 0.01 0.01 0.02 0.01 0.00 0.00 0.00 0.01 0.01 0.03 0.05 0.07 0.09
0.21 0.23 0.26 0.32 0.39 0.37 0.32 0.30 0.30 0.32 0.36 0.37 0.26 0.21 0.12 0.05 0.04 0.03 0.03 0.03 0.01 0.00 0.00 0.00 0.00 0.00 0.00 0.00 0.00 0.00 0.00 0.01 0.03 0.07 0.11 0.14 0.16 0.19
0.26 0.33 0.41 0.49 0.45 0.41 0.33 0.26 0.21 0.27 0.27 0.24 0.19 0.07 0.02 0.01 0.01 0.03 0.06 0.06 0.06 0.00 0.00 0.00 0.00 0.00 0.00 0.00 0.00 0.01 0.01 0.02 0.03 0.06 0.09 0.12 0.13 0.15
0.48 0.44 0.36 0.33 0.31 0.26 0.22 0.22 0.24 0.18 0.12 0.07 0.02 0.00 0.01 0.03 0.10 0.10 0.08 0.11 0.06 0.00 0.02 0.02 0.00 0.00 0.00 0.00 0.00 0.00 0.01 0.01 0.02 0.05 0.09 0.10 0.11 0.12
0.44 0.39 0.32 0.26 0.18 0.13 0.16 0.19 0.08 0.02 0.00 0.00 0.00 0.01 0.04 0.04 0.07 0.17 0.10 0.07 0.02 0.00 0.00 0.04 0.00 0.00 0.00 0.00 0.00 0.00 0.00 0.01 0.02 0.04 0.08 0.11 0.15 0.19
0.14 0.07 0.03 0.03 0.03 0.06 0.08 0.04 0.00 0.00 0.00 0.01 0.02 0.02 0.01 0.01 0.00 0.06 0.07 0.07 0.05 0.00 0.00 0.01 0.00 0.00 0.00 0.00 0.00 0.00 0.00 0.01 0.01 0.02 0.04 0.05 0.07 0.09
0.00 0.00 0.00 0.01 0.04 0.08 0.03 0.00 0.00 0.00 0.05 0.02 0.00 0.00 0.00 0.00 0.00 0.01 0.07 0.25 0.14 0.13 0.00 0.14 0.07 0.05 0.20 0.01 0.00 0.00 0.00 0.00 0.00 0.01 0.02 0.03 0.06 0.09
0.00 0.00 0.00 0.02 0.04 0.03 0.02 0.00 0.01 0.02 0.02 0.00 0.00 0.00 0.00 0.00 0.00 0.00 0.02 0.21 0.40 0.27 0.00 0.39 0.45 0.05 0.25 0.08 0.00 0.00 0.00 0.00 0.00 0.00 0.01 0.04 0.11 0.22
0.01 0.00 0.01 0.03 0.02 0.00 0.00 0.01 0.02 0.01 0.00 0.00 0.00 0.00 0.00 0.00 0.00 0.00 0.00 0.02 0.10 0.27 0.09 0.19 0.73 0.22 0.43 0.24 0.03 0.00 0.00 0.00 0.00 0.02 0.03 0.08 0.16 0.24
0.01 0.01 0.01 0.00 0.00 0.00 0.00 0.00 0.00 0.00 0.00 0.01 0.01 0.00 0.00 0.00 0.00 0.00 0.00 0.00 0.01 0.01 0.03 0.03 0.26 0.25 0.43 0.45 0.24 0.04 0.07 0.02 0.01 0.08 0.14 0.22 0.25 0.27
0.00 0.00 0.00 0.00 0.00 0.00 0.00 0.00 0.00 0.00 0.01 0.03 0.01 0.00 0.00 0.00 0.00 0.00 0.03 0.01 0.06 0.00 0.00 0.01 0.06 0.24 0.43 0.21 0.36 0.23 0.06 0.20 0.08 0.09 0.22 0.17 0.16 0.23
0.01 0.00 0.00 0.00 0.00 0.00 0.00 0.00 0.00 0.00 0.01 0.01 0.02 0.02 0.01 0.00 0.00 0.00 0.04 0.09 0.12 0.04 0.02 0.00 0.00 0.02 0.09 0.16 0.34 0.13 0.08 0.09 0.19 0.31 0.29 0.24 0.11 0.24
0.00 0.00 0.00 0.00 0.00 0.00 0.00 0.00 0.00 0.00 0.01 0.02 0.03 0.04 0.07 0.05 0.06 0.03 0.03 0.09 0.12 0.04 0.04 0.02 0.02 0.08 0.03 0.01 0.11 0.24 0.27 0.20 0.20 0.23 0.24 0.53 0.26 0.16
0.00 0.00 0.00 0.00 0.00 0.00 0.01 0.02 0.01 0.00 0.02 0.04 0.05 0.07 0.14 0.10 0.05 0.05 0.04 0.06 0.05 0.04 0.04 0.04 0.12 0.32 0.41 0.11 0.03 0.19 0.62 0.46 0.24 0.24 0.28 0.43 0.55 0.41
0.00 0.00 0.00 0.00 0.00 0.01 0.02 0.03 0.03 0.01 0.02 0.03 0.09 0.13 0.15 0.18 0.10 0.09 0.08 0.15 0.18 0.13 0.08 0.02 0.06 0.28 0.75 0.58 0.44 0.11 0.17 0.44 0.68 0.61 0.42 0.40 0.66 0.59
0.00 0.00 0.00 0.00 0.01 0.02 0.03 0.04 0.04 0.06 0.09 0.13 0.10 0.13 0.14 0.26 0.15 0.07 0.09 0.09 0.14 0.16 0.15 0.04 0.04 0.12 0.23 0.34 0.32 0.05 0.04 0.10 0.36 0.91 0.78 0.66 0.35 0.18
0.00 0.00 0.00 0.00 0.01 0.03 0.04 0.04 0.04 0.02 0.05 0.06 0.09 0.14 0.15 0.21 0.27 0.19 0.13 0.19 0.11 0.09 0.11 0.04 0.02 0.06 0.13 0.38 0.25 0.06 0.03 0.01 0.06 0.17 0.31 0.89 1.16 1.11
0.00 0.00 0.00 0.01 0.02 0.03 0.05 0.05 0.04 0.03 0.07 0.13 0.12 0.14 0.19 0.24 0.14 0.17 0.17 0.17 0.19 0.20 0.11 0.10 0.03 0.04 0.07 0.14 0.18 0.13 0.05 0.04 0.03 0.11 0.17 0.23 0.38 0.60

GFSNE_prec_precacc_057.txt.gz
Total_Precipitation_Accumulation
0.28 0.27 0.21 0.19 0.21 0.21 0.22 0.24 0.29 0.28 0.19 0.13 0.14 0.16 0.20 0.29 0.42 0.50 0.57 0.67 0.71 0.73 0.75 0.76 0.75 0.68 0.53 0.43 0.40 0.36 0.31 0.26 0.23 0.24 0.25 0.29 0.31 0.32
0.29 0.29 0.25 0.20 0.21 0.22 0.20 0.19 0.26 0.38 0.49 0.40 0.45 0.52 0.55 0.55 0.58 0.52 0.50 0.54 0.52 0.55 0.58 0.61 0.59 0.47 0.44 0.39 0.35 0.32 0.31 0.28 0.28 0.34 0.44 0.52 0.55 0.55
0.23 0.28 0.31 0.35 0.44 0.53 0.59 0.68 0.79 0.90 0.95 0.82 0.63 0.54 0.48 0.44 0.47 0.42 0.39 0.37 0.37 0.52 0.49 0.47 0.40 0.30 0.26 0.24 0.23 0.23 0.22 0.24 0.29 0.33 0.40 0.46 0.50 0.51
0.19 0.20 0.17 0.16 0.20 0.24 0.26 0.32 0.43 0.53 0.65 0.73 0.67 0.63 0.58 0.52 0.47 0.39 0.33 0.30 0.29 0.35 0.32 0.23 0.16 0.13 0.12 0.12 0.15 0.17 0.21 0.24 0.28 0.30 0.30 0.29 0.26 0.25
0.17 0.18 0.18 0.18 0.21 0.25 0.28 0.33 0.40 0.47 0.54 0.61 0.61 0.55 0.49 0.44 0.37 0.26 0.24 0.21 0.18 0.19 0.16 0.12 0.10 0.09 0.09 0.12 0.13 0.13 0.12 0.10 0.10 0.09 0.09 0.09 0.09 0.12
0.18 0.20 0.20 0.20 0.22 0.26 0.31 0.38 0.40 0.37 0.34 0.32 0.36 0.31 0.25 0.20 0.16 0.12 0.09 0.06 0.03 0.03 0.03 0.02 0.02 0.01 0.02 0.02 0.02 0.01 0.00 0.01 0.01 0.01 0.03 0.05 0.07 0.09
0.21 0.23 0.26 0.33 0.39 0.37 0.32 0.30 0.30 0.32 0.36 0.37 0.26 0.21 0.12 0.05 0.04 0.03 0.03 0.03 0.01 0.00 0.00 0.00 0.00 0.00 0.00 0.00 0.00 0.00 0.00 0.01 0.03 0.07 0.11 0.14 0.16 0.19
0.26 0.33 0.41 0.49 0.45 0.41 0.33 0.26 0.21 0.27 0.27 0.24 0.19 0.07 0.02 0.01 0.01 0.03 0.06 0.06 0.06 0.00 0.00 0.00 0.00 0.00 0.00 0.00 0.00 0.01 0.01 0.02 0.03 0.06 0.09 0.12 0.13 0.15
0.48 0.44 0.36 0.33 0.31 0.26 0.22 0.22 0.24 0.18 0.12 0.07 0.02 0.00 0.01 0.03 0.10 0.10 0.08 0.11 0.06 0.00 0.02 0.02 0.00 0.00 0.00 0.00 0.00 0.00 0.01 0.01 0.02 0.05 0.09 0.10 0.11 0.12
0.44 0.39 0.32 0.26 0.18 0.13 0.16 0.19 0.08 0.02 0.00 0.00 0.00 0.01 0.04 0.04 0.07 0.17 0.10 0.07 0.02 0.00 0.00 0.04 0.00 0.00 0.00 0.00 0.00 0.00 0.00 0.01 0.02 0.04 0.08 0.11 0.16 0.19
0.14 0.07 0.03 0.03 0.03 0.06 0.08 0.04 0.00 0.00 0.00 0.01 0.02 0.02 0.01 0.01 0.00 0.06 0.07 0.07 0.05 0.00 0.00 0.01 0.00 0.00 0.00 0.00 0.00 0.00 0.00 0.01 0.01 0.02 0.04 0.05 0.07 0.09
0.00 0.00 0.00 0.01 0.04 0.08 0.03 0.00 0.00 0.00 0.05 0.02 0.00 0.00 0.00 0.00 0.00 0.01 0.07 0.25 0.14 0.13 0.00 0.14 0.07 0.05 0.20 0.01 0.00 0.00 0.00 0.00 0.00 0.01 0.02 0.03 0.06 0.09
0.00 0.00 0.00 0.02 0.04 0.03 0.02 0.00 0.01 0.02 0.02 0.00 0.00 0.00 0.00 0.00 0.00 0.00 0.02 0.21 0.40 0.27 0.00 0.39 0.45 0.05 0.25 0.08 0.00 0.00 0.00 0.00 0.00 0.00 0.01 0.04 0.11 0.22
0.01 0.00 0.01 0.03 0.02 0.00 0.00 0.01 0.02 0.01 0.00 0.00 0.00 0.00 0.00 0.00 0.00 0.00 0.00 0.02 0.10 0.27 0.09 0.19 0.73 0.22 0.43 0.24 0.03 0.00 0.00 0.00 0.00 0.02 0.03 0.08 0.16 0.24
0.01 0.01 0.01 0.00 0.00 0.00 0.00 0.00 0.00 0.00 0.00 0.01 0.01 0.00 0.00 0.00 0.00 0.00 0.00 0.00 0.01 0.01 0.03 0.03 0.26 0.25 0.43 0.46 0.24 0.04 0.07 0.02 0.01 0.08 0.14 0.22 0.25 0.27
0.00 0.00 0.00 0.00 0.00 0.00 0.00 0.00 0.00 0.00 0.01 0.03 0.01 0.00 0.00 0.00 0.00 0.00 0.03 0.01 0.06 0.00 0.00 0.01 0.06 0.24 0.43 0.21 0.36 0.23 0.06 0.20 0.08 0.09 0.22 0.17 0.16 0.23
0.01 0.00 0.00 0.00 0.00 0.00 0.00 0.00 0.00 0.00 0.01 0.01 0.02 0.02 0.01 0.00 0.00 0.00 0.04 0.09 0.12 0.04 0.02 0.00 0.00 0.02 0.09 0.16 0.34 0.13 0.08 0.09 0.19 0.31 0.29 0.24 0.11 0.24
0.00 0.00 0.00 0.00 0.00 0.00 0.00 0.00 0.00 0.00 0.01 0.02 0.03 0.04 0.07 0.05 0.06 0.03 0.03 0.09 0.12 0.04 0.04 0.02 0.02 0.08 0.03 0.01 0.11 0.24 0.27 0.20 0.20 0.23 0.24 0.53 0.26 0.16
0.00 0.00 0.00 0.00 0.00 0.00 0.01 0.02 0.01 0.00 0.02 0.04 0.05 0.07 0.14 0.10 0.05 0.05 0.04 0.06 0.05 0.04 0.04 0.04 0.12 0.32 0.41 0.11 0.03 0.19 0.62 0.46 0.24 0.24 0.28 0.43 0.55 0.41
0.00 0.00 0.00 0.00 0.00 0.01 0.02 0.03 0.03 0.01 0.02 0.03 0.09 0.13 0.15 0.18 0.10 0.09 0.08 0.15 0.18 0.13 0.08 0.02 0.06 0.28 0.76 0.58 0.44 0.11 0.17 0.44 0.68 0.61 0.42 0.40 0.66 0.59
0.00 0.00 0.00 0.00 0.01 0.02 0.03 0.04 0.04 0.06 0.09 0.13 0.10 0.13 0.14 0.26 0.15 0.07 0.09 0.09 0.14 0.16 0.15 0.04 0.04 0.12 0.24 0.36 0.33 0.05 0.04 0.10 0.36 0.91 0.78 0.66 0.35 0.18
0.00 0.00 0.00 0.00 0.01 0.03 0.04 0.04 0.04 0.02 0.05 0.06 0.09 0.14 0.15 0.21 0.27 0.19 0.13 0.20 0.11 0.09 0.12 0.04 0.02 0.06 0.14 0.39 0.26 0.06 0.03 0.01 0.06 0.17 0.31 0.89 1.16 1.11
0.00 0.00 0.00 0.01 0.02 0.03 0.05 0.05 0.04 0.03 0.07 0.13 0.12 0.14 0.19 0.24 0.15 0.17 0.18 0.17 0.19 0.21 0.12 0.10 0.03 0.04 0.07 0.14 0.19 0.13 0.05 0.04 0.03 0.11 0.17 0.23 0.38 0.60

GFSNE_prec_precacc_060.txt.gz
Total_Precipitation_Accumulation
0.29 0.29 0.23 0.20 0.21 0.21 0.22 0.24 0.30 0.28 0.19 0.13 0.14 0.16 0.20 0.29 0.42 0.50 0.57 0.67 0.71 0.73 0.75 0.76 0.75 0.68 0.56 0.51 0.51 0.44 0.42 0.39 0.33 0.30 0.31 0.33 0.36 0.37
0.29 0.29 0.26 0.20 0.21 0.22 0.20 0.19 0.26 0.38 0.49 0.40 0.45 0.52 0.55 0.55 0.58 0.52 0.50 0.54 0.53 0.55 0.58 0.61 0.61 0.50 0.45 0.42 0.43 0.41 0.40 0.39 0.36 0.39 0.47 0.56 0.60 0.60
0.23 0.28 0.31 0.35 0.44 0.53 0.59 0.68 0.79 0.90 0.95 0.82 0.63 0.54 0.48 0.44 0.47 0.42 0.39 0.37 0.38 0.52 0.50 0.49 0.45 0.34 0.30 0.27 0.26 0.25 0.25 0.27 0.31 0.36 0.43 0.51 0.57 0.58
0.19 0.20 0.17 0.16 0.20 0.24 0.26 0.32 0.43 0.53 0.65 0.73 0.67 0.63 0.58 0.52 0.47 0.39 0.33 0.30 0.29 0.35 0.32 0.24 0.18 0.14 0.13 0.13 0.15 0.17 0.21 0.24 0.28 0.31 0.32 0.31 0.30 0.29
0.17 0.18 0.18 0.18 0.21 0.25 0.28 0.33 0.40 0.47 0.54 0.61 0.61 0.55 0.49 0.44 0.37 0.26 0.24 0.21 0.18 0.19 0.16 0.12 0.10 0.09 0.09 0.12 0.13 0.14 0.12 0.11 0.11 0.10 0.10 0.10 0.10 0.13
0.18 0.20 0.20 0.20 0.22 0.26 0.31 0.38 0.40 0.37 0.34 0.32 0.36 0.31 0.25 0.20 0.16 0.12 0.09 0.06 0.03 0.03 0.03 0.02 0.02 0.01 0.02 0.02 0.02 0.01 0.00 0.01 0.01 0.01 0.03 0.05 0.07 0.09
0.21 0.23 0.26 0.33 0.39 0.37 0.32 0.30 0.30 0.32 0.36 0.37 0.26 0.21 0.12 0.05 0.04 0.03 0.03 0.03 0.01 0.00 0.00 0.00 0.00 0.00 0.00 0.00 0.00 0.00 0.00 0.01 0.03 0.07 0.11 0.14 0.16 0.19
0.26 0.33 0.41 0.49 0.45 0.41 0.33 0.26 0.21 0.27 0.27 0.24 0.19 0.07 0.02 0.01 0.01 0.03 0.06 0.06 0.06 0.00 0.00 0.00 0.00 0.00 0.00 0.00 0.00 0.01 0.01 0.02 0.03 0.06 0.09 0.12 0.13 0.15
0.48 0.44 0.36 0.33 0.31 0.26 0.22 0.22 0.24 0.18 0.12 0.07 0.02 0.00 0.01 0.03 0.10 0.10 0.08 0.11 0.06 0.00 0.02 0.02 0.00 0.00 0.00 0.00 0.00 0.00 0.01 0.01 0.02 0.05 0.09 0.10 0.11 0.12
0.44 0.39 0.32 0.26 0.18 0.13 0.16 0.19 0.08 0.02 0.00 0.00 0.00 0.01 0.04 0.04 0.07 0.17 0.10 0.07 0.02 0.00 0.00 0.04 0.00 0.00 0.00 0.00 0.00 0.00 0.00 0.01 0.02 0.04 0.08 0.11 0.16 0.19
0.14 0.07 0.03 0.03 0.03 0.06 0.08 0.04 0.00 0.00 0.00 0.01 0.02 0.02 0.01 0.01 0.00 0.06 0.07 0.07 0.05 0.00 0.00 0.01 0.00 0.00 0.00 0.00 0.00 0.00 0.00 0.01 0.01 0.02 0.04 0.05 0.07 0.09
0.00 0.00 0.00 0.01 0.04 0.08 0.03 0.00 0.00 0.00 0.05 0.02 0.00 0.00 0.00 0.00 0.00 0.01 0.07 0.25 0.14 0.13 0.00 0.14 0.07 0.05 0.20 0.01 0.00 0.00 0.00 0.00 0.00 0.01 0.02 0.03 0.06 0.09
0.00 0.00 0.00 0.02 0.04 0.03 0.02 0.00 0.01 0.02 0.02 0.00 0.00 0.00 0.00 0.00 0.00 0.00 0.02 0.21 0.40 0.27 0.00 0.39 0.45 0.05 0.25 0.08 0.00 0.00 0.00 0.00 0.00 0.00 0.01 0.04 0.11 0.22
0.01 0.00 0.01 0.03 0.02 0.00 0.00 0.01 0.02 0.01 0.00 0.00 0.00 0.00 0.00 0.00 0.00 0.00 0.00 0.02 0.10 0.27 0.09 0.19 0.73 0.22 0.43 0.24 0.03 0.00 0.00 0.00 0.00 0.02 0.03 0.08 0.16 0.24
0.01 0.01 0.01 0.00 0.00 0.00 0.00 0.00 0.00 0.00 0.00 0.01 0.01 0.00 0.00 0.00 0.00 0.00 0.00 0.00 0.01 0.01 0.03 0.03 0.26 0.25 0.44 0.46 0.24 0.04 0.07 0.02 0.01 0.08 0.14 0.22 0.25 0.27
0.00 0.00 0.00 0.00 0.00 0.00 0.00 0.00 0.00 0.00 0.01 0.03 0.01 0.00 0.00 0.00 0.00 0.00 0.03 0.01 0.06 0.00 0.00 0.01 0.06 0.24 0.43 0.21 0.36 0.23 0.06 0.20 0.08 0.09 0.22 0.17 0.16 0.23
0.01 0.00 0.00 0.00 0.00 0.00 0.00 0.00 0.00 0.00 0.01 0.01 0.02 0.02 0.01 0.00 0.00 0.00 0.04 0.09 0.12 0.04 0.02 0.00 0.00 0.02 0.09 0.16 0.34 0.13 0.08 0.09 0.19 0.31 0.29 0.24 0.11 0.24
0.00 0.00 0.00 0.00 0.00 0.00 0.00 0.00 0.00 0.00 0.01 0.02 0.03 0.04 0.07 0.05 0.06 0.03 0.03 0.09 0.12 0.04 0.04 0.02 0.02 0.08 0.03 0.01 0.11 0.24 0.27 0.20 0.20 0.23 0.24 0.53 0.26 0.16
0.00 0.00 0.00 0.00 0.00 0.00 0.01 0.02 0.01 0.00 0.02 0.04 0.05 0.07 0.14 0.10 0.05 0.05 0.04 0.06 0.05 0.04 0.04 0.04 0.12 0.32 0.41 0.11 0.03 0.19 0.62 0.46 0.24 0.24 0.28 0.43 0.55 0.41
0.00 0.00 0.00 0.00 0.00 0.01 0.02 0.03 0.03 0.01 0.02 0.03 0.09 0.13 0.15 0.18 0.10 0.09 0.08 0.15 0.18 0.13 0.08 0.02 0.06 0.28 0.76 0.58 0.45 0.11 0.17 0.44 0.68 0.61 0.42 0.40 0.66 0.59
0.00 0.00 0.00 0.00 0.01 0.02 0.03 0.04 0.04 0.06 0.09 0.13 0.10 0.13 0.14 0.26 0.15 0.07 0.09 0.09 0.14 0.16 0.15 0.04 0.04 0.12 0.25 0.38 0.35 0.05 0.04 0.10 0.36 0.91 0.78 0.66 0.36 0.18
0.00 0.00 0.00 0.00 0.01 0.03 0.04 0.04 0.04 0.02 0.05 0.06 0.09 0.14 0.15 0.21 0.27 0.19 0.13 0.20 0.11 0.09 0.12 0.04 0.02 0.06 0.14 0.41 0.26 0.06 0.03 0.01 0.06 0.17 0.31 0.89 1.16 1.11
0.00 0.00 0.00 0.01 0.02 0.03 0.05 0.05 0.04 0.03 0.07 0.13 0.12 0.14 0.19 0.24 0.15 0.17 0.18 0.17 0.19 0.21 0.12 0.10 0.03 0.04 0.08 0.15 0.19 0.14 0.05 0.04 0.03 0.11 0.17 0.23 0.38 0.60

GFSNE_prec_precacc_063.txt.gz
Total_Precipitation_Accumulation
0.29 0.29 0.24 0.21 0.23 0.23 0.24 0.24 0.30 0.28 0.19 0.13 0.14 0.16 0.20 0.29 0.42 0.50 0.57 0.67 0.71 0.73 0.75 0.76 0.75 0.68 0.57 0.51 0.54 0.53 0.46 0.42 0.37 0.35 0.36 0.36 0.38 0.39
0.29 0.30 0.26 0.21 0.23 0.24 0.23 0.20 0.27 0.38 0.49 0.40 0.45 0.52 0.55 0.55 0.58 0.52 0.50 0.55 0.53 0.56 0.59 0.62 0.61 0.52 0.47 0.43 0.44 0.43 0.41 0.42 0.43 0.45 0.50 0.58 0.62 0.61
0.23 0.28 0.31 0.35 0.44 0.53 0.59 0.68 0.79 0.90 0.95 0.82 0.63 0.54 0.48 0.44 0.47 0.42 0.39 0.37 0.38 0.52 0.50 0.49 0.46 0.36 0.32 0.28 0.26 0.26 0.26 0.29 0.33 0.38 0.46 0.53 0.58 0.58
0.19 0.20 0.17 0.16 0.20 0.24 0.26 0.32 0.43 0.53 0.65 0.73 0.67 0.63 0.58 0.52 0.47 0.39 0.33 0.30 0.29 0.35 0.32 0.24 0.18 0.14 0.13 0.13 0.15 0.17 0.21 0.24 0.28 0.31 0.32 0.31 0.30 0.29
0.17 0.18 0.18 0.18 0.21 0.25 0.28 0.33 0.40 0.47 0.54 0.61 0.61 0.55 0.49 0.44 0.37 0.26 0.24 0.21 0.18 0.19 0.16 0.12 0.10 0.09 0.09 0.12 0.13 0.14 0.12 0.11 0.11 0.10 0.10 0.10 0.10 0.13
0.18 0.20 0.20 0.20 0.22 0.26 0.31 0.38 0.40 0.37 0.34 0.32 0.36 0.31 0.25 0.20 0.16 0.12 0.09 0.06 0.03 0.03 0.03 0.02 0.02 0.01 0.02 0.02 0.02 0.01 0.00 0.01 0.01 0.01 0.03 0.05 0.07 0.09
0.21 0.23 0.26 0.33 0.39 0.37 0.32 0.30 0.30 0.32 0.36 0.37 0.26 0.21 0.12 0.05 0.04 0.03 0.03 0.03 0.01 0.00 0.00 0.00 0.00 0.00 0.00 0.00 0.00 0.00 0.00 0.01 0.03 0.07 0.11 0.14 0.16 0.19
0.26 0.33 0.41 0.49 0.45 0.41 0.33 0.26 0.21 0.27 0.27 0.24 0.19 0.07 0.02 0.01 0.01 0.03 0.06 0.06 0.06 0.00 0.00 0.00 0.00 0.00 0.00 0.00 0.00 0.01 0.01 0.02 0.03 0.06 0.09 0.12 0.13 0.15
0.48 0.44 0.36 0.33 0.31 0.26 0.22 0.22 0.24 0.18 0.12 0.07 0.02 0.00 0.01 0.03 0.10 0.10 0.08 0.11 0.06 0.00 0.02 0.02 0.00 0.00 0.00 0.00 0.00 0.00 0.01 0.01 0.02 0.05 0.09 0.10 0.11 0.12
0.44 0.39 0.32 0.26 0.18 0.13 0.16 0.19 0.08 0.02 0.00 0.00 0.00 0.01 0.04 0.04 0.07 0.17 0.10 0.07 0.02 0.00 0.00 0.04 0.00 0.00 0.00 0.00 0.00 0.00 0.00 0.01 0.02 0.04 0.08 0.11 0.16 0.19
0.14 0.07 0.03 0.03 0.03 0.06 0.08 0.04 0.00 0.00 0.00 0.01 0.02 0.02 0.01 0.01 0.00 0.06 0.07 0.07 0.05 0.00 0.00 0.01 0.00 0.00 0.00 0.00 0.00 0.00 0.00 0.01 0.01 0.02 0.04 0.05 0.07 0.09
0.00 0.00 0.00 0.01 0.04 0.08 0.03 0.00 0.00 0.00 0.05 0.02 0.00 0.00 0.00 0.00 0.00 0.01 0.07 0.25 0.14 0.13 0.00 0.14 0.07 0.05 0.20 0.01 0.00 0.00 0.00 0.00 0.00 0.01 0.02 0.03 0.06 0.09
0.00 0.00 0.00 0.02 0.04 0.03 0.02 0.00 0.01 0.02 0.02 0.00 0.00 0.00 0.00 0.00 0.00 0.00 0.02 0.21 0.40 0.27 0.00 0.39 0.45 0.05 0.25 0.08 0.00 0.00 0.00 0.00 0.00 0.00 0.01 0.04 0.11 0.22
0.01 0.00 0.01 0.03 0.02 0.00 0.00 0.01 0.02 0.01 0.00 0.00 0.00 0.00 0.00 0.00 0.00 0.00 0.00 0.02 0.10 0.27 0.09 0.19 0.73 0.22 0.43 0.24 0.03 0.00 0.00 0.00 0.00 0.02 0.03 0.08 0.16 0.24
0.01 0.01 0.01 0.00 0.00 0.00 0.00 0.00 0.00 0.00 0.00 0.01 0.01 0.00 0.00 0.00 0.00 0.00 0.00 0.00 0.01 0.01 0.03 0.03 0.26 0.25 0.44 0.46 0.24 0.04 0.07 0.02 0.01 0.08 0.14 0.22 0.25 0.27
0.00 0.00 0.00 0.00 0.00 0.00 0.00 0.00 0.00 0.00 0.01 0.03 0.01 0.00 0.00 0.00 0.00 0.00 0.03 0.01 0.06 0.00 0.00 0.01 0.06 0.24 0.43 0.21 0.36 0.23 0.06 0.20 0.08 0.09 0.22 0.17 0.16 0.23
0.01 0.00 0.00 0.00 0.00 0.00 0.00 0.00 0.00 0.00 0.01 0.01 0.02 0.02 0.01 0.00 0.00 0.00 0.04 0.09 0.12 0.04 0.02 0.00 0.00 0.02 0.09 0.16 0.34 0.13 0.08 0.09 0.19 0.31 0.29 0.24 0.11 0.24
0.00 0.00 0.00 0.00 0.00 0.00 0.00 0.00 0.00 0.00 0.01 0.02 0.03 0.04 0.07 0.05 0.06 0.03 0.03 0.09 0.12 0.04 0.04 0.02 0.02 0.08 0.03 0.01 0.11 0.24 0.27 0.20 0.20 0.23 0.24 0.53 0.26 0.16
0.00 0.00 0.00 0.00 0.00 0.00 0.01 0.02 0.01 0.00 0.02 0.04 0.05 0.07 0.14 0.10 0.05 0.05 0.04 0.06 0.05 0.04 0.04 0.04 0.12 0.32 0.42 0.11 0.03 0.19 0.62 0.46 0.24 0.24 0.28 0.43 0.55 0.41
0.00 0.00 0.00 0.00 0.00 0.01 0.02 0.03 0.03 0.01 0.02 0.03 0.09 0.13 0.15 0.18 0.10 0.09 0.08 0.15 0.18 0.13 0.08 0.02 0.06 0.28 0.76 0.58 0.45 0.11 0.17 0.44 0.68 0.61 0.42 0.40 0.66 0.59
0.00 0.00 0.00 0.00 0.01 0.02 0.03 0.04 0.04 0.06 0.09 0.13 0.10 0.13 0.14 0.26 0.15 0.07 0.09 0.09 0.14 0.16 0.15 0.04 0.04 0.12 0.26 0.40 0.36 0.05 0.04 0.10 0.36 0.91 0.78 0.67 0.36 0.18
0.00 0.00 0.00 0.00 0.01 0.03 0.04 0.04 0.04 0.02 0.05 0.06 0.09 0.14 0.15 0.21 0.27 0.19 0.13 0.20 0.11 0.10 0.12 0.04 0.02 0.06 0.15 0.42 0.27 0.07 0.03 0.01 0.06 0.17 0.31 0.89 1.16 1.11
0.00 0.00 0.00 0.01 0.02 0.03 0.05 0.05 0.04 0.03 0.07 0.13 0.12 0.14 0.19 0.24 0.15 0.18 0.18 0.18 0.19 0.21 0.12 0.10 0.03 0.05 0.08 0.15 0.20 0.14 0.06 0.04 0.03 0.11 0.17 0.23 0.38 0.60

GFSNE_prec_precacc_066.txt.gz
Total_Precipitation_Accumulation
0.29 0.29 0.24 0.21 0.23 0.24 0.25 0.27 0.32 0.30 0.20 0.13 0.14 0.16 0.20 0.29 0.42 0.50 0.57 0.67 0.72 0.74 0.75 0.76 0.75 0.68 0.57 0.51 0.55 0.53 0.46 0.43 0.37 0.36 0.37 0.39 0.41 0.42
0.29 0.30 0.27 0.22 0.23 0.24 0.23 0.23 0.31 0.41 0.50 0.40 0.45 0.52 0.55 0.55 0.58 0.52 0.50 0.55 0.53 0.57 0.59 0.62 0.62 0.53 0.48 0.45 0.46 0.44 0.42 0.42 0.43 0.47 0.53 0.61 0.66 0.66
0.23 0.28 0.31 0.35 0.44 0.53 0.59 0.68 0.79 0.90 0.95 0.82 0.63 0.54 0.48 0.44 0.47 0.42 0.39 0.37 0.38 0.53 0.50 0.50 0.46 0.36 0.33 0.30 0.28 0.27 0.27 0.30 0.35 0.41 0.48 0.57 0.62 0.62
0.19 0.20 0.17 0.16 0.20 0.24 0.26 0.32 0.43 0.53 0.65 0.73 0.67 0.63 0.58 0.52 0.47 0.39 0.33 0.30 0.29 0.35 0.32 0.24 0.18 0.14 0.14 0.14 0.16 0.18 0.21 0.24 0.28 0.31 0.32 0.31 0.30 0.30
0.17 0.18 0.18 0.18 0.21 0.25 0.28 0.33 0.40 0.47 0.54 0.61 0.61 0.55 0.49 0.44 0.37 0.26 0.24 0.21 0.18 0.19 0.16 0.12 0.10 0.09 0.09 0.12 0.13 0.14 0.12 0.11 0.11 0.10 0.10 0.10 0.10 0.13
0.18 0.20 0.20 0.20 0.22 0.26 0.31 0.38 0.40 0.37 0.34 0.32 0.36 0.31 0.25 0.20 0.16 0.12 0.09 0.06 0.03 0.03 0.03 0.02 0.02 0.01 0.02 0.02 0.02 0.01 0.00 0.01 0.01 0.01 0.03 0.05 0.07 0.09
0.21 0.23 0.26 0.33 0.39 0.37 0.32 0.30 0.30 0.32 0.36 0.37 0.26 0.21 0.12 0.05 0.04 0.03 0.03 0.03 0.01 0.00 0.00 0.00 0.00 0.00 0.00 0.00 0.00 0.00 0.00 0.01 0.03 0.07 0.11 0.14 0.16 0.19
0.26 0.33 0.41 0.49 0.45 0.41 0.33 0.26 0.21 0.27 0.27 0.24 0.19 0.07 0.02 0.01 0.01 0.03 0.06 0.06 0.06 0.00 0.00 0.00 0.00 0.00 0.00 0.00 0.00 0.01 0.01 0.02 0.03 0.06 0.09 0.12 0.13 0.15
0.48 0.44 0.36 0.33 0.31 0.26 0.22 0.22 0.24 0.18 0.12 0.07 0.02 0.00 0.01 0.03 0.10 0.10 0.08 0.11 0.06 0.00 0.02 0.02 0.00 0.00 0.00 0.00 0.00 0.00 0.01 0.01 0.02 0.05 0.09 0.10 0.11 0.12
0.44 0.39 0.32 0.26 0.18 0.13 0.16 0.19 0.08 0.02 0.00 0.00 0.00 0.01 0.04 0.04 0.07 0.17 0.10 0.07 0.02 0.00 0.00 0.04 0.00 0.00 0.00 0.00 0.00 0.00 0.00 0.01 0.02 0.04 0.08 0.11 0.16 0.19
0.14 0.07 0.03 0.03 0.03 0.06 0.08 0.04 0.00 0.00 0.00 0.01 0.02 0.02 0.01 0.01 0.00 0.06 0.07 0.07 0.05 0.00 0.00 0.01 0.00 0.00 0.00 0.00 0.00 0.00 0.00 0.01 0.01 0.02 0.04 0.05 0.07 0.09
0.00 0.00 0.00 0.01 0.04 0.08 0.03 0.00 0.00 0.00 0.05 0.02 0.00 0.00 0.00 0.00 0.00 0.01 0.07 0.25 0.14 0.13 0.00 0.14 0.07 0.05 0.20 0.01 0.00 0.00 0.00 0.00 0.00 0.01 0.02 0.03 0.06 0.09
0.00 0.00 0.00 0.02 0.04 0.03 0.02 0.00 0.01 0.02 0.02 0.00 0.00 0.00 0.00 0.00 0.00 0.00 0.02 0.21 0.40 0.27 0.00 0.39 0.45 0.05 0.25 0.08 0.00 0.00 0.00 0.00 0.00 0.00 0.01 0.04 0.11 0.22
0.01 0.00 0.01 0.03 0.02 0.00 0.00 0.01 0.02 0.01 0.00 0.00 0.00 0.00 0.00 0.00 0.00 0.00 0.00 0.02 0.10 0.27 0.09 0.19 0.73 0.22 0.43 0.24 0.03 0.00 0.00 0.00 0.00 0.02 0.03 0.08 0.16 0.24
0.01 0.01 0.01 0.00 0.00 0.00 0.00 0.00 0.00 0.00 0.00 0.01 0.01 0.00 0.00 0.00 0.00 0.00 0.00 0.00 0.01 0.01 0.03 0.03 0.26 0.25 0.44 0.46 0.24 0.04 0.07 0.02 0.01 0.08 0.14 0.22 0.25 0.27
0.00 0.00 0.00 0.00 0.00 0.00 0.00 0.00 0.00 0.00 0.01 0.03 0.01 0.00 0.00 0.00 0.00 0.00 0.03 0.01 0.06 0.00 0.00 0.01 0.06 0.24 0.43 0.22 0.37 0.24 0.06 0.20 0.08 0.09 0.22 0.17 0.16 0.23
0.01 0.00 0.00 0.00 0.00 0.00 0.00 0.00 0.00 0.00 0.01 0.01 0.02 0.02 0.01 0.00 0.00 0.00 0.04 0.09 0.12 0.04 0.02 0.00 0.00 0.02 0.09 0.16 0.34 0.13 0.08 0.09 0.19 0.31 0.29 0.24 0.11 0.24
0.00 0.00 0.00 0.00 0.00 0.00 0.00 0.00 0.00 0.00 0.01 0.02 0.03 0.04 0.07 0.05 0.06 0.03 0.03 0.09 0.12 0.04 0.04 0.02 0.02 0.08 0.03 0.01 0.11 0.24 0.27 0.20 0.20 0.23 0.24 0.53 0.26 0.16
0.00 0.00 0.00 0.00 0.00 0.00 0.01 0.02 0.01 0.00 0.02 0.04 0.05 0.07 0.14 0.10 0.05 0.05 0.04 0.06 0.05 0.04 0.04 0.04 0.12 0.33 0.42 0.11 0.03 0.19 0.62 0.46 0.24 0.24 0.28 0.43 0.55 0.41
0.00 0.00 0.00 0.00 0.00 0.01 0.02 0.03 0.03 0.01 0.02 0.03 0.09 0.13 0.15 0.18 0.10 0.09 0.08 0.15 0.18 0.13 0.08 0.02 0.06 0.28 0.76 0.58 0.45 0.11 0.17 0.44 0.68 0.61 0.42 0.40 0.66 0.59
0.00 0.00 0.00 0.00 0.01 0.02 0.03 0.04 0.04 0.06 0.09 0.13 0.10 0.13 0.14 0.26 0.15 0.07 0.09 0.09 0.14 0.16 0.15 0.04 0.04 0.12 0.28 0.43 0.39 0.05 0.04 0.10 0.36 0.91 0.78 0.67 0.36 0.19
0.00 0.00 0.00 0.00 0.01 0.03 0.04 0.04 0.04 0.02 0.05 0.06 0.09 0.14 0.15 0.21 0.27 0.19 0.13 0.20 0.11 0.10 0.12 0.05 0.02 0.06 0.15 0.43 0.27 0.07 0.03 0.01 0.06 0.17 0.31 0.90 1.17 1.12
0.00 0.00 0.00 0.01 0.02 0.03 0.05 0.05 0.04 0.04 0.07 0.13 0.12 0.14 0.19 0.24 0.15 0.18 0.18 0.18 0.20 0.21 0.12 0.10 0.03 0.05 0.09 0.16 0.20 0.14 0.06 0.04 0.03 0.11 0.17 0.23 0.38 0.60

GFSNE_prec_precacc_069.txt.gz
Total_Precipitation_Accumulation
0.29 0.29 0.24 0.21 0.23 0.24 0.26 0.28 0.33 0.31 0.21 0.14 0.14 0.16 0.20 0.29 0.42 0.50 0.57 0.67 0.72 0.74 0.76 0.77 0.76 0.69 0.58 0.52 0.56 0.54 0.47 0.43 0.38 0.38 0.41 0.45 0.49 0.58
0.29 0.30 0.27 0.22 0.23 0.24 0.23 0.23 0.31 0.43 0.53 0.41 0.45 0.52 0.55 0.55 0.58 0.52 0.50 0.55 0.54 0.57 0.60 0.63 0.62 0.54 0.49 0.46 0.48 0.46 0.44 0.44 0.45 0.48 0.54 0.62 0.67 0.68
0.23 0.28 0.31 0.35 0.44 0.54 0.59 0.68 0.79 0.90 0.96 0.83 0.63 0.54 0.48 0.44 0.47 0.42 0.39 0.37 0.38 0.53 0.51 0.50 0.46 0.37 0.33 0.30 0.29 0.28 0.27 0.31 0.36 0.42 0.50 0.59 0.65 0.66
0.19 0.20 0.17 0.16 0.20 0.24 0.26 0.32 0.43 0.53 0.65 0.73 0.67 0.63 0.58 0.52 0.47 0.39 0.33 0.30 0.29 0.35 0.32 0.25 0.18 0.14 0.14 0.14 0.16 0.18 0.22 0.24 0.28 0.31 0.33 0.32 0.31 0.30
0.17 0.18 0.18 0.18 0.21 0.25 0.28 0.33 0.40 0.47 0.54 0.61 0.61 0.55 0.49 0.44 0.37 0.26 0.24 0.21 0.18 0.19 0.16 0.12 0.10 0.09 0.09 0.12 0.13 0.14 0.12 0.11 0.11 0.10 0.10 0.10 0.10 0.13
0.18 0.20 0.20 0.20 0.22 0.26 0.31 0.38 0.40 0.37 0.34 0.32 0.36 0.31 0.25 0.20 0.16 0.12 0.09 0.06 0.03 0.03 0.03 0.02 0.02 0.01 0.02 0.02 0.02 0.01 0.00 0.01 0.01 0.01 0.03 0.05 0.07 0.09
0.21 0.23 0.26 0.33 0.39 0.37 0.32 0.30 0.30 0.32 0.36 0.37 0.26 0.21 0.12 0.05 0.04 0.03 0.03 0.03 0.01 0.00 0.00 0.00 0.00 0.00 0.00 0.00 0.00 0.00 0.00 0.01 0.03 0.07 0.11 0.14 0.16 0.19
0.26 0.33 0.41 0.49 0.45 0.41 0.33 0.26 0.21 0.27 0.27 0.24 0.19 0.07 0.02 0.01 0.01 0.03 0.06 0.06 0.06 0.00 0.00 0.00 0.00 0.00 0.00 0.00 0.00 0.01 0.01 0.02 0.03 0.06 0.09 0.12 0.13 0.15
0.48 0.44 0.36 0.33 0.31 0.26 0.22 0.22 0.24 0.18 0.12 0.07 0.02 0.00 0.01 0.03 0.10 0.10 0.08 0.11 0.06 0.00 0.02 0.02 0.00 0.00 0.00 0.00 0.00 0.00 0.01 0.01 0.02 0.05 0.09 0.10 0.11 0.12
0.44 0.39 0.32 0.26 0.18 0.13 0.16 0.19 0.08 0.02 0.00 0.00 0.00 0.01 0.04 0.04 0.07 0.17 0.10 0.07 0.02 0.00 0.00 0.04 0.00 0.00 0.00 0.00 0.00 0.00 0.00 0.01 0.02 0.04 0.08 0.11 0.16 0.19
0.14 0.07 0.03 0.03 0.03 0.06 0.08 0.04 0.00 0.00 0.00 0.01 0.02 0.02 0.01 0.01 0.00 0.06 0.07 0.07 0.05 0.00 0.00 0.01 0.00 0.00 0.00 0.00 0.00 0.00 0.00 0.01 0.01 0.02 0.04 0.05 0.07 0.09
0.00 0.00 0.00 0.01 0.04 0.08 0.03 0.00 0.00 0.00 0.05 0.02 0.00 0.00 0.00 0.00 0.00 0.01 0.07 0.25 0.14 0.13 0.00 0.14 0.07 0.05 0.20 0.01 0.00 0.00 0.00 0.00 0.00 0.01 0.02 0.03 0.06 0.09
0.00 0.00 0.00 0.02 0.04 0.03 0.02 0.00 0.01 0.02 0.02 0.00 0.00 0.00 0.00 0.00 0.00 0.00 0.02 0.21 0.40 0.27 0.00 0.39 0.45 0.05 0.25 0.08 0.00 0.00 0.00 0.00 0.00 0.00 0.01 0.04 0.11 0.22
0.01 0.00 0.01 0.03 0.02 0.00 0.00 0.01 0.02 0.01 0.00 0.00 0.00 0.00 0.00 0.00 0.00 0.00 0.00 0.02 0.10 0.27 0.09 0.19 0.73 0.22 0.43 0.24 0.03 0.00 0.00 0.00 0.00 0.02 0.03 0.08 0.16 0.24
0.01 0.01 0.01 0.00 0.00 0.00 0.00 0.00 0.00 0.00 0.00 0.01 0.01 0.00 0.00 0.00 0.00 0.00 0.00 0.00 0.01 0.01 0.03 0.03 0.26 0.25 0.44 0.46 0.24 0.04 0.07 0.02 0.01 0.08 0.14 0.22 0.25 0.27
0.00 0.00 0.00 0.00 0.00 0.00 0.00 0.00 0.00 0.00 0.01 0.03 0.01 0.00 0.00 0.00 0.00 0.00 0.03 0.01 0.06 0.00 0.00 0.01 0.06 0.24 0.43 0.22 0.37 0.24 0.06 0.20 0.08 0.09 0.22 0.17 0.16 0.23
0.01 0.00 0.00 0.00 0.00 0.00 0.00 0.00 0.00 0.00 0.01 0.01 0.02 0.02 0.01 0.00 0.00 0.00 0.04 0.09 0.12 0.04 0.02 0.00 0.00 0.02 0.09 0.16 0.34 0.13 0.08 0.09 0.19 0.31 0.29 0.24 0.11 0.24
0.00 0.00 0.00 0.00 0.00 0.00 0.00 0.00 0.00 0.00 0.01 0.02 0.03 0.04 0.07 0.05 0.06 0.03 0.03 0.09 0.12 0.04 0.04 0.02 0.02 0.08 0.03 0.01 0.11 0.24 0.27 0.20 0.20 0.23 0.24 0.53 0.26 0.16
0.00 0.00 0.00 0.00 0.00 0.00 0.01 0.02 0.01 0.00 0.02 0.04 0.05 0.07 0.14 0.10 0.05 0.05 0.04 0.06 0.05 0.04 0.04 0.04 0.12 0.33 0.42 0.11 0.03 0.19 0.62 0.46 0.24 0.24 0.28 0.43 0.55 0.41
0.00 0.00 0.00 0.00 0.00 0.01 0.02 0.03 0.03 0.01 0.02 0.03 0.09 0.13 0.15 0.18 0.10 0.09 0.08 0.15 0.18 0.13 0.08 0.02 0.06 0.28 0.76 0.58 0.45 0.11 0.17 0.44 0.68 0.61 0.42 0.40 0.66 0.59
0.00 0.00 0.00 0.00 0.01 0.02 0.03 0.04 0.04 0.06 0.09 0.13 0.10 0.13 0.14 0.26 0.15 0.07 0.09 0.09 0.14 0.16 0.15 0.04 0.04 0.12 0.28 0.45 0.40 0.06 0.04 0.10 0.36 0.91 0.78 0.68 0.36 0.19
0.00 0.00 0.00 0.00 0.01 0.03 0.04 0.04 0.04 0.02 0.05 0.06 0.09 0.14 0.15 0.21 0.27 0.19 0.13 0.20 0.11 0.10 0.12 0.05 0.02 0.06 0.16 0.44 0.28 0.07 0.03 0.01 0.06 0.17 0.31 0.90 1.17 1.13
0.00 0.00 0.00 0.01 0.02 0.03 0.05 0.05 0.04 0.04 0.07 0.13 0.12 0.14 0.19 0.25 0.15 0.18 0.18 0.18 0.20 0.22 0.12 0.11 0.03 0.05 0.09 0.16 0.21 0.15 0.06 0.04 0.03 0.11 0.17 0.23 0.38 0.60

GFSNE_prec_precacc_072.txt.gz
Total_Precipitation_Accumulation
0.29 0.29 0.24 0.21 0.23 0.24 0.26 0.29 0.35 0.32 0.22 0.14 0.14 0.17 0.20 0.29 0.43 0.50 0.57 0.67 0.72 0.74 0.76 0.77 0.76 0.70 0.60 0.54 0.57 0.55 0.47 0.43 0.38 0.38 0.45 0.53 0.60 0.71
0.29 0.30 0.27 0.22 0.23 0.24 0.23 0.23 0.31 0.44 0.54 0.41 0.46 0.53 0.55 0.55 0.58 0.52 0.50 0.55 0.54 0.57 0.60 0.63 0.62 0.54 0.50 0.47 0.48 0.46 0.45 0.45 0.45 0.49 0.55 0.65 0.70 0.69
0.23 0.28 0.31 0.35 0.44 0.54 0.59 0.68 0.80 0.90 0.97 0.85 0.65 0.56 0.49 0.44 0.47 0.42 0.39 0.37 0.38 0.53 0.51 0.51 0.46 0.37 0.34 0.31 0.29 0.28 0.27 0.31 0.37 0.43 0.50 0.60 0.66 0.66
0.19 0.20 0.17 0.16 0.20 0.24 0.26 0.32 0.43 0.53 0.66 0.73 0.67 0.63 0.58 0.52 0.47 0.39 0.33 0.30 0.29 0.35 0.33 0.25 0.18 0.14 0.14 0.14 0.16 0.19 0.22 0.25 0.28 0.31 0.33 0.33 0.31 0.30
0.17 0.18 0.18 0.18 0.21 0.25 0.28 0.33 0.40 0.47 0.54 0.61 0.61 0.55 0.49 0.44 0.37 0.26 0.24 0.21 0.18 0.19 0.16 0.12 0.10 0.09 0.09 0.12 0.13 0.14 0.12 0.11 0.11 0.10 0.10 0.10 0.10 0.13
0.18 0.20 0.20 0.20 0.22 0.26 0.31 0.38 0.40 0.37 0.34 0.32 0.36 0.31 0.25 0.20 0.16 0.12 0.09 0.06 0.03 0.03 0.03 0.02 0.02 0.01 0.02 0.02 0.02 0.01 0.00 0.01 0.01 0.01 0.03 0.05 0.07 0.09
0.21 0.23 0.26 0.33 0.39 0.37 0.32 0.30 0.30 0.32 0.36 0.37 0.26 0.21 0.12 0.05 0.04 0.03 0.03 0.03 0.01 0.00 0.00 0.00 0.00 0.00 0.00 0.00 0.00 0.00 0.00 0.01 0.03 0.07 0.11 0.14 0.16 0.19
0.26 0.33 0.41 0.49 0.45 0.41 0.33 0.26 0.21 0.27 0.27 0.24 0.19 0.07 0.02 0.01 0.01 0.03 0.06 0.06 0.06 0.00 0.00 0.00 0.00 0.00 0.00 0.00 0.00 0.01 0.01 0.02 0.03 0.06 0.09 0.12 0.13 0.15
0.48 0.44 0.36 0.33 0.31 0.26 0.22 0.22 0.24 0.18 0.12 0.07 0.02 0.00 0.01 0.03 0.10 0.10 0.08 0.11 0.06 0.00 0.02 0.02 0.00 0.00 0.00 0.00 0.00 0.00 0.01 0.01 0.02 0.05 0.09 0.10 0.11 0.12
0.44 0.39 0.32 0.26 0.18 0.13 0.16 0.19 0.08 0.02 0.00 0.00 0.00 0.01 0.04 0.04 0.07 0.17 0.10 0.07 0.02 0.00 0.00 0.04 0.00 0.00 0.00 0.00 0.00 0.00 0.00 0.01 0.02 0.04 0.08 0.11 0.16 0.19
0.14 0.07 0.03 0.03 0.03 0.06 0.08 0.04 0.00 0.00 0.00 0.01 0.02 0.02 0.01 0.01 0.00 0.06 0.07 0.07 0.05 0.00 0.00 0.01 0.00 0.00 0.00 0.00 0.00 0.00 0.00 0.01 0.01 0.02 0.04 0.05 0.07 0.09
0.00 0.00 0.00 0.01 0.04 0.08 0.03 0.00 0.00 0.00 0.05 0.02 0.00 0.00 0.00 0.00 0.00 0.01 0.07 0.25 0.14 0.13 0.00 0.14 0.07 0.05 0.20 0.01 0.00 0.00 0.00 0.00 0.00 0.01 0.02 0.03 0.06 0.09
0.00 0.00 0.00 0.02 0.04 0.03 0.02 0.00 0.01 0.02 0.02 0.00 0.00 0.00 0.00 0.00 0.00 0.00 0.02 0.21 0.40 0.27 0.00 0.39 0.45 0.05 0.25 0.08 0.00 0.00 0.00 0.00 0.00 0.00 0.01 0.04 0.11 0.22
0.01 0.01 0.01 0.03 0.02 0.00 0.00 0.01 0.02 0.01 0.00 0.00 0.00 0.00 0.00 0.00 0.00 0.00 0.00 0.02 0.10 0.27 0.09 0.19 0.73 0.22 0.43 0.24 0.03 0.00 0.00 0.00 0.00 0.02 0.03 0.08 0.16 0.24
0.01 0.01 0.01 0.00 0.00 0.00 0.00 0.00 0.00 0.00 0.00 0.01 0.01 0.00 0.00 0.00 0.00 0.00 0.00 0.00 0.01 0.01 0.03 0.03 0.26 0.25 0.44 0.46 0.24 0.04 0.07 0.02 0.01 0.08 0.14 0.22 0.25 0.27
0.00 0.00 0.00 0.00 0.00 0.00 0.00 0.00 0.00 0.00 0.01 0.03 0.01 0.00 0.00 0.00 0.00 0.00 0.03 0.01 0.06 0.00 0.00 0.01 0.06 0.24 0.43 0.22 0.37 0.24 0.06 0.20 0.08 0.09 0.22 0.17 0.16 0.23
0.01 0.00 0.00 0.00 0.00 0.00 0.00 0.00 0.00 0.00 0.01 0.01 0.02 0.02 0.01 0.00 0.00 0.00 0.04 0.09 0.12 0.04 0.02 0.00 0.00 0.02 0.09 0.16 0.34 0.13 0.08 0.09 0.19 0.31 0.29 0.24 0.11 0.24
0.00 0.00 0.00 0.00 0.00 0.00 0.00 0.00 0.00 0.00 0.01 0.02 0.03 0.04 0.07 0.05 0.06 0.03 0.03 0.09 0.12 0.04 0.04 0.02 0.02 0.08 0.03 0.01 0.11 0.24 0.27 0.20 0.20 0.23 0.24 0.54 0.26 0.16
0.00 0.00 0.00 0.00 0.00 0.00 0.01 0.02 0.02 0.00 0.02 0.04 0.05 0.07 0.14 0.10 0.05 0.05 0.04 0.06 0.05 0.04 0.04 0.04 0.12 0.33 0.42 0.12 0.03 0.19 0.62 0.46 0.24 0.24 0.28 0.43 0.55 0.41
0.00 0.00 0.00 0.00 0.00 0.01 0.02 0.03 0.03 0.01 0.02 0.03 0.09 0.13 0.15 0.18 0.10 0.09 0.08 0.15 0.18 0.13 0.08 0.02 0.06 0.28 0.76 0.58 0.45 0.11 0.17 0.44 0.68 0.61 0.42 0.40 0.66 0.59
0.00 0.00 0.00 0.00 0.01 0.02 0.03 0.04 0.04 0.06 0.09 0.13 0.10 0.13 0.14 0.26 0.15 0.07 0.09 0.09 0.14 0.16 0.15 0.04 0.04 0.12 0.29 0.45 0.41 0.06 0.04 0.10 0.36 0.91 0.78 0.68 0.37 0.19
0.00 0.00 0.00 0.00 0.01 0.03 0.04 0.04 0.04 0.02 0.05 0.06 0.09 0.14 0.15 0.21 0.27 0.19 0.13 0.21 0.11 0.10 0.12 0.05 0.02 0.06 0.16 0.45 0.28 0.07 0.03 0.01 0.06 0.17 0.31 0.90 1.17 1.13
0.00 0.00 0.00 0.01 0.02 0.03 0.05 0.05 0.04 0.04 0.07 0.13 0.12 0.14 0.19 0.25 0.16 0.20 0.20 0.19 0.21 0.22 0.13 0.11 0.03 0.05 0.09 0.16 0.21 0.15 0.06 0.04 0.03 0.11 0.17 0.23 0.38 0.60

GFSNE_prec_precacc_075.txt.gz
Total_Precipitation_Accumulation
0.29 0.29 0.24 0.21 0.23 0.24 0.26 0.29 0.36 0.33 0.23 0.15 0.15 0.17 0.21 0.30 0.44 0.51 0.57 0.67 0.72 0.74 0.76 0.78 0.76 0.70 0.62 0.58 0.59 0.56 0.49 0.44 0.38 0.38 0.46 0.57 0.70 0.86
0.29 0.30 0.27 0.22 0.23 0.24 0.23 0.23 0.32 0.45 0.56 0.42 0.47 0.54 0.55 0.56 0.61 0.53 0.50 0.55 0.54 0.57 0.60 0.63 0.62 0.54 0.50 0.47 0.49 0.47 0.46 0.45 0.46 0.50 0.56 0.67 0.75 0.74
0.23 0.28 0.31 0.35 0.44 0.54 0.59 0.68 0.80 0.91 0.98 0.85 0.66 0.57 0.50 0.46 0.49 0.42 0.39 0.37 0.38 0.53 0.51 0.51 0.46 0.37 0.34 0.31 0.30 0.29 0.28 0.31 0.37 0.44 0.52 0.62 0.68 0.68
0.19 0.20 0.17 0.16 0.20 0.24 0.26 0.32 0.43 0.53 0.67 0.75 0.68 0.64 0.59 0.52 0.47 0.39 0.33 0.30 0.29 0.35 0.33 0.25 0.18 0.14 0.15 0.14 0.17 0.19 0.22 0.25 0.28 0.31 0.33 0.33 0.32 0.31
0.17 0.18 0.18 0.18 0.21 0.25 0.28 0.33 0.40 0.47 0.54 0.61 0.61 0.55 0.49 0.44 0.37 0.26 0.24 0.21 0.18 0.19 0.16 0.12 0.10 0.09 0.09 0.12 0.13 0.14 0.13 0.11 0.11 0.10 0.10 0.10 0.10 0.13
0.18 0.20 0.20 0.20 0.22 0.26 0.31 0.38 0.40 0.37 0.34 0.33 0.36 0.31 0.25 0.20 0.16 0.12 0.09 0.06 0.03 0.03 0.03 0.02 0.02 0.01 0.02 0.02 0.02 0.01 0.00 0.01 0.01 0.01 0.03 0.05 0.07 0.09
0.21 0.23 0.26 0.33 0.39 0.37 0.32 0.30 0.30 0.32 0.36 0.37 0.26 0.21 0.12 0.05 0.04 0.03 0.03 0.03 0.01 0.00 0.00 0.00 0.00 0.00 0.00 0.00 0.00 0.00 0.00 0.01 0.03 0.07 0.11 0.14 0.16 0.19
0.26 0.33 0.41 0.50 0.46 0.42 0.33 0.26 0.21 0.27 0.27 0.24 0.19 0.07 0.02 0.01 0.01 0.03 0.06 0.06 0.06 0.00 0.00 0.00 0.00 0.00 0.00 0.00 0.00 0.01 0.01 0.02 0.03 0.06 0.09 0.12 0.13 0.15
0.48 0.44 0.36 0.33 0.31 0.26 0.22 0.22 0.24 0.18 0.12 0.07 0.02 0.00 0.01 0.03 0.10 0.10 0.08 0.11 0.06 0.00 0.02 0.02 0.00 0.00 0.00 0.00 0.00 0.00 0.01 0.01 0.02 0.05 0.09 0.10 0.11 0.12
0.44 0.40 0.32 0.26 0.18 0.13 0.16 0.19 0.08 0.02 0.00 0.00 0.00 0.01 0.04 0.04 0.07 0.17 0.10 0.07 0.02 0.00 0.00 0.04 0.00 0.00 0.00 0.00 0.00 0.00 0.00 0.01 0.02 0.04 0.08 0.11 0.16 0.19
0.14 0.07 0.03 0.03 0.03 0.06 0.08 0.04 0.00 0.00 0.00 0.01 0.03 0.02 0.01 0.01 0.00 0.06 0.07 0.07 0.05 0.00 0.00 0.01 0.00 0.00 0.00 0.00 0.00 0.00 0.00 0.01 0.01 0.02 0.04 0.05 0.07 0.09
0.00 0.00 0.00 0.01 0.04 0.08 0.03 0.00 0.00 0.00 0.05 0.02 0.00 0.00 0.00 0.00 0.00 0.01 0.07 0.25 0.14 0.13 0.00 0.14 0.07 0.05 0.20 0.01 0.00 0.00 0.00 0.00 0.00 0.01 0.02 0.03 0.06 0.09
0.00 0.00 0.00 0.02 0.04 0.03 0.02 0.00 0.01 0.02 0.02 0.00 0.00 0.00 0.00 0.00 0.00 0.00 0.02 0.21 0.40 0.27 0.00 0.39 0.45 0.05 0.25 0.08 0.00 0.00 0.00 0.00 0.00 0.00 0.01 0.04 0.11 0.22
0.01 0.01 0.01 0.03 0.02 0.00 0.00 0.01 0.02 0.01 0.00 0.00 0.00 0.00 0.00 0.00 0.00 0.00 0.00 0.02 0.10 0.27 0.09 0.19 0.73 0.22 0.43 0.24 0.03 0.00 0.00 0.00 0.00 0.02 0.03 0.08 0.16 0.24
0.01 0.01 0.01 0.00 0.00 0.00 0.00 0.00 0.00 0.00 0.00 0.01 0.01 0.00 0.00 0.00 0.00 0.00 0.00 0.00 0.01 0.01 0.03 0.03 0.26 0.25 0.44 0.46 0.24 0.04 0.07 0.02 0.01 0.08 0.14 0.22 0.25 0.27
0.00 0.00 0.00 0.00 0.00 0.00 0.00 0.00 0.00 0.00 0.01 0.03 0.01 0.00 0.00 0.00 0.00 0.00 0.03 0.01 0.06 0.00 0.00 0.01 0.06 0.24 0.43 0.22 0.37 0.24 0.06 0.20 0.08 0.09 0.22 0.17 0.16 0.23
0.01 0.00 0.00 0.00 0.00 0.00 0.00 0.00 0.00 0.00 0.01 0.01 0.02 0.02 0.01 0.00 0.00 0.00 0.04 0.09 0.12 0.04 0.02 0.00 0.00 0.02 0.09 0.16 0.35 0.13 0.08 0.09 0.19 0.31 0.29 0.24 0.11 0.24
0.00 0.00 0.00 0.00 0.00 0.00 0.00 0.00 0.00 0.00 0.01 0.02 0.03 0.04 0.07 0.05 0.06 0.03 0.03 0.09 0.12 0.04 0.04 0.02 0.02 0.08 0.03 0.01 0.11 0.24 0.27 0.20 0.20 0.23 0.24 0.54 0.26 0.16
0.00 0.00 0.00 0.00 0.00 0.00 0.01 0.02 0.02 0.00 0.02 0.04 0.05 0.07 0.14 0.10 0.05 0.05 0.04 0.06 0.05 0.04 0.04 0.04 0.12 0.33 0.42 0.12 0.03 0.19 0.62 0.46 0.24 0.24 0.28 0.43 0.55 0.41
0.00 0.00 0.00 0.00 0.00 0.01 0.02 0.03 0.03 0.01 0.02 0.03 0.09 0.13 0.15 0.18 0.10 0.09 0.08 0.15 0.18 0.13 0.08 0.02 0.06 0.28 0.76 0.58 0.45 0.11 0.17 0.44 0.68 0.61 0.42 0.40 0.66 0.59
0.00 0.00 0.00 0.00 0.01 0.02 0.03 0.04 0.04 0.06 0.09 0.13 0.10 0.13 0.14 0.26 0.15 0.07 0.09 0.09 0.14 0.16 0.15 0.04 0.05 0.12 0.29 0.46 0.41 0.06 0.04 0.10 0.36 0.91 0.78 0.68 0.37 0.19
0.00 0.00 0.00 0.00 0.01 0.03 0.04 0.04 0.04 0.02 0.05 0.06 0.09 0.14 0.15 0.21 0.27 0.19 0.13 0.21 0.12 0.10 0.12 0.05 0.03 0.07 0.16 0.46 0.28 0.07 0.03 0.01 0.06 0.17 0.31 0.90 1.18 1.13
0.00 0.00 0.00 0.01 0.02 0.03 0.05 0.05 0.04 0.04 0.07 0.13 0.12 0.14 0.19 0.25 0.16 0.20 0.20 0.20 0.22 0.24 0.14 0.13 0.06 0.07 0.10 0.17 0.21 0.15 0.06 0.04 0.03 0.11 0.17 0.23 0.38 0.60

GFSNE_prec_precacc_078.txt.gz
Total_Precipitation_Accumulation
0.29 0.29 0.24 0.21 0.23 0.24 0.26 0.29 0.37 0.34 0.23 0.15 0.15 0.17 0.21 0.30 0.45 0.51 0.57 0.70 0.73 0.74 0.76 0.78 0.76 0.70 0.63 0.60 0.61 0.58 0.50 0.46 0.40 0.39 0.46 0.57 0.74 0.96
0.29 0.30 0.27 0.22 0.23 0.24 0.23 0.23 0.32 0.46 0.57 0.42 0.47 0.54 0.56 0.56 0.61 0.53 0.50 0.57 0.54 0.58 0.60 0.63 0.62 0.55 0.51 0.48 0.50 0.47 0.46 0.45 0.47 0.51 0.57 0.68 0.78 0.83
0.23 0.28 0.31 0.35 0.44 0.54 0.59 0.68 0.80 0.91 0.99 0.86 0.66 0.57 0.50 0.46 0.49 0.43 0.40 0.37 0.38 0.53 0.51 0.51 0.46 0.37 0.34 0.31 0.30 0.29 0.28 0.31 0.38 0.45 0.53 0.64 0.71 0.73
0.19 0.20 0.17 0.16 0.20 0.24 0.26 0.32 0.43 0.53 0.67 0.76 0.70 0.66 0.60 0.53 0.47 0.40 0.34 0.30 0.29 0.35 0.33 0.25 0.18 0.15 0.15 0.14 0.17 0.19 0.22 0.25 0.28 0.31 0.34 0.34 0.33 0.33
0.17 0.18 0.18 0.18 0.21 0.25 0.28 0.33 0.40 0.47 0.54 0.61 0.61 0.55 0.50 0.45 0.37 0.27 0.24 0.21 0.18 0.19 0.16 0.12 0.10 0.09 0.09 0.12 0.13 0.14 0.13 0.11 0.11 0.10 0.10 0.10 0.10 0.13
0.18 0.20 0.20 0.20 0.22 0.26 0.31 0.38 0.40 0.37 0.34 0.33 0.37 0.32 0.25 0.21 0.16 0.12 0.09 0.06 0.03 0.03 0.03 0.02 0.02 0.01 0.02 0.02 0.02 0.01 0.00 0.01 0.01 0.01 0.03 0.05 0.07 0.09
0.21 0.23 0.26 0.33 0.39 0.37 0.32 0.30 0.30 0.32 0.36 0.37 0.26 0.21 0.12 0.05 0.04 0.03 0.03 0.03 0.01 0.00 0.00 0.00 0.00 0.00 0.00 0.00 0.00 0.00 0.00 0.01 0.03 0.07 0.11 0.14 0.16 0.19
0.26 0.33 0.41 0.50 0.46 0.42 0.34 0.26 0.21 0.27 0.27 0.24 0.19 0.07 0.02 0.02 0.01 0.03 0.06 0.06 0.06 0.00 0.00 0.00 0.00 0.00 0.00 0.00 0.00 0.01 0.01 0.02 0.03 0.06 0.09 0.12 0.13 0.15
0.48 0.44 0.37 0.34 0.31 0.26 0.23 0.22 0.24 0.18 0.12 0.07 0.02 0.00 0.01 0.03 0.10 0.10 0.08 0.11 0.06 0.00 0.02 0.02 0.00 0.00 0.00 0.00 0.00 0.00 0.01 0.01 0.02 0.05 0.09 0.10 0.11 0.12
0.45 0.40 0.33 0.26 0.19 0.13 0.16 0.19 0.08 0.02 0.00 0.00 0.00 0.01 0.04 0.04 0.07 0.17 0.10 0.07 0.02 0.00 0.00 0.04 0.00 0.00 0.00 0.00 0.00 0.00 0.00 0.01 0.02 0.04 0.08 0.11 0.16 0.19
0.14 0.07 0.03 0.03 0.03 0.06 0.08 0.04 0.00 0.00 0.00 0.01 0.03 0.02 0.01 0.01 0.00 0.06 0.07 0.07 0.05 0.00 0.00 0.01 0.00 0.00 0.00 0.00 0.00 0.00 0.00 0.01 0.01 0.02 0.04 0.05 0.07 0.09
0.00 0.00 0.01 0.01 0.04 0.08 0.03 0.00 0.00 0.00 0.05 0.02 0.01 0.00 0.00 0.00 0.00 0.01 0.07 0.25 0.14 0.13 0.00 0.14 0.07 0.05 0.20 0.01 0.00 0.00 0.00 0.00 0.00 0.01 0.02 0.03 0.06 0.09
0.00 0.00 0.00 0.02 0.04 0.03 0.02 0.00 0.01 0.02 0.02 0.00 0.00 0.00 0.00 0.00 0.00 0.00 0.02 0.21 0.40 0.27 0.00 0.39 0.45 0.05 0.25 0.08 0.00 0.00 0.00 0.00 0.00 0.00 0.01 0.04 0.11 0.22
0.01 0.01 0.01 0.03 0.02 0.00 0.00 0.01 0.02 0.01 0.00 0.00 0.00 0.00 0.00 0.00 0.00 0.00 0.00 0.02 0.10 0.27 0.09 0.19 0.73 0.22 0.43 0.24 0.03 0.00 0.00 0.00 0.00 0.02 0.03 0.08 0.16 0.24
0.01 0.01 0.01 0.00 0.00 0.00 0.00 0.00 0.00 0.00 0.00 0.01 0.01 0.00 0.00 0.00 0.00 0.00 0.00 0.00 0.01 0.01 0.03 0.03 0.26 0.25 0.44 0.46 0.24 0.04 0.07 0.02 0.01 0.08 0.14 0.22 0.25 0.27
0.00 0.00 0.00 0.00 0.00 0.00 0.00 0.00 0.00 0.00 0.01 0.03 0.01 0.00 0.00 0.00 0.00 0.00 0.03 0.01 0.06 0.00 0.00 0.01 0.06 0.24 0.43 0.22 0.37 0.24 0.06 0.20 0.08 0.09 0.22 0.17 0.16 0.23
0.01 0.00 0.00 0.00 0.00 0.00 0.00 0.00 0.00 0.00 0.01 0.01 0.02 0.02 0.01 0.00 0.00 0.00 0.04 0.09 0.12 0.04 0.02 0.00 0.00 0.02 0.09 0.16 0.35 0.13 0.08 0.09 0.19 0.31 0.29 0.24 0.11 0.24
0.00 0.00 0.00 0.00 0.00 0.00 0.00 0.00 0.00 0.00 0.01 0.02 0.03 0.04 0.07 0.05 0.06 0.03 0.03 0.09 0.12 0.04 0.04 0.02 0.02 0.08 0.03 0.01 0.11 0.24 0.27 0.20 0.20 0.23 0.24 0.54 0.26 0.16
0.00 0.00 0.00 0.00 0.00 0.00 0.01 0.02 0.02 0.00 0.02 0.04 0.05 0.07 0.14 0.10 0.05 0.05 0.04 0.06 0.05 0.04 0.04 0.04 0.12 0.33 0.42 0.12 0.03 0.19 0.62 0.46 0.24 0.24 0.28 0.43 0.55 0.41
0.00 0.00 0.00 0.00 0.00 0.01 0.02 0.03 0.03 0.01 0.02 0.03 0.09 0.13 0.15 0.18 0.10 0.09 0.08 0.15 0.18 0.13 0.08 0.02 0.06 0.28 0.76 0.58 0.45 0.11 0.17 0.44 0.68 0.61 0.42 0.40 0.66 0.59
0.00 0.00 0.00 0.00 0.01 0.02 0.03 0.04 0.04 0.06 0.09 0.13 0.10 0.13 0.14 0.26 0.15 0.07 0.09 0.09 0.14 0.16 0.15 0.04 0.05 0.13 0.29 0.46 0.41 0.06 0.04 0.10 0.36 0.91 0.78 0.69 0.37 0.19
0.01 0.00 0.00 0.00 0.01 0.03 0.04 0.04 0.04 0.02 0.05 0.06 0.09 0.14 0.15 0.21 0.27 0.19 0.13 0.21 0.12 0.10 0.12 0.05 0.04 0.10 0.18 0.46 0.28 0.07 0.03 0.02 0.06 0.17 0.31 0.90 1.18 1.13
0.01 0.00 0.00 0.01 0.02 0.03 0.05 0.05 0.04 0.04 0.07 0.13 0.12 0.14 0.19 0.25 0.16 0.20 0.20 0.20 0.22 0.24 0.15 0.14 0.06 0.09 0.11 0.18 0.22 0.15 0.06 0.05 0.04 0.11 0.17 0.23 0.38 0.60

GFSNE_prec_precacc_081.txt.gz
Total_Precipitation_Accumulation
0.29 0.29 0.24 0.21 0.23 0.24 0.26 0.29 0.37 0.34 0.23 0.15 0.15 0.17 0.21 0.30 0.46 0.52 0.57 0.71 0.74 0.75 0.76 0.78 0.76 0.70 0.64 0.61 0.62 0.58 0.50 0.46 0.40 0.41 0.46 0.57 0.74 1.01
0.29 0.30 0.27 0.22 0.23 0.24 0.23 0.23 0.32 0.47 0.57 0.42 0.47 0.54 0.56 0.56 0.62 0.53 0.51 0.57 0.54 0.58 0.61 0.64 0.62 0.55 0.51 0.48 0.50 0.47 0.46 0.46 0.47 0.51 0.59 0.69 0.78 0.87
0.23 0.28 0.31 0.35 0.44 0.54 0.59 0.68 0.80 0.91 0.99 0.86 0.66 0.57 0.50 0.46 0.49 0.44 0.41 0.38 0.40 0.55 0.52 0.51 0.46 0.37 0.35 0.31 0.30 0.29 0.28 0.31 0.38 0.46 0.54 0.65 0.72 0.75
0.19 0.20 0.17 0.16 0.20 0.24 0.26 0.32 0.43 0.53 0.67 0.76 0.70 0.66 0.60 0.54 0.48 0.41 0.34 0.31 0.29 0.36 0.33 0.25 0.18 0.15 0.15 0.14 0.17 0.19 0.22 0.25 0.28 0.32 0.34 0.35 0.34 0.34
0.17 0.18 0.18 0.18 0.21 0.25 0.28 0.33 0.40 0.47 0.54 0.61 0.61 0.55 0.50 0.45 0.38 0.27 0.24 0.21 0.18 0.19 0.16 0.12 0.10 0.09 0.09 0.12 0.13 0.14 0.13 0.11 0.11 0.10 0.10 0.10 0.11 0.13
0.18 0.20 0.20 0.20 0.22 0.26 0.31 0.38 0.40 0.37 0.34 0.33 0.37 0.32 0.25 0.21 0.17 0.12 0.09 0.06 0.03 0.03 0.03 0.02 0.02 0.01 0.02 0.02 0.02 0.01 0.00 0.01 0.01 0.01 0.03 0.05 0.07 0.09
0.21 0.23 0.26 0.33 0.40 0.38 0.32 0.30 0.30 0.32 0.37 0.38 0.27 0.21 0.12 0.05 0.04 0.03 0.04 0.03 0.01 0.00 0.00 0.00 0.00 0.00 0.00 0.00 0.00 0.00 0.00 0.01 0.03 0.07 0.11 0.14 0.16 0.19
0.26 0.33 0.41 0.51 0.46 0.42 0.34 0.27 0.21 0.27 0.28 0.25 0.20 0.07 0.02 0.02 0.01 0.03 0.06 0.06 0.06 0.00 0.00 0.00 0.00 0.00 0.00 0.00 0.00 0.01 0.01 0.02 0.03 0.06 0.09 0.12 0.13 0.15
0.48 0.44 0.37 0.34 0.31 0.26 0.23 0.23 0.24 0.18 0.12 0.07 0.02 0.00 0.01 0.03 0.10 0.10 0.08 0.11 0.06 0.00 0.02 0.02 0.00 0.00 0.00 0.00 0.00 0.00 0.01 0.01 0.02 0.05 0.09 0.10 0.11 0.12
0.45 0.40 0.33 0.26 0.19 0.13 0.16 0.19 0.08 0.02 0.00 0.00 0.00 0.01 0.04 0.04 0.07 0.17 0.10 0.07 0.02 0.00 0.00 0.04 0.00 0.00 0.00 0.00 0.00 0.00 0.00 0.01 0.02 0.04 0.08 0.11 0.16 0.19
0.14 0.07 0.03 0.03 0.03 0.06 0.08 0.04 0.00 0.00 0.00 0.01 0.03 0.02 0.01 0.01 0.00 0.06 0.07 0.08 0.05 0.00 0.00 0.01 0.00 0.00 0.00 0.00 0.00 0.00 0.00 0.01 0.01 0.02 0.04 0.05 0.07 0.09
0.00 0.00 0.01 0.01 0.04 0.08 0.03 0.00 0.00 0.00 0.05 0.02 0.01 0.00 0.00 0.00 0.00 0.01 0.07 0.25 0.14 0.13 0.00 0.14 0.07 0.05 0.20 0.01 0.00 0.00 0.00 0.00 0.00 0.01 0.02 0.03 0.06 0.09
0.00 0.00 0.00 0.03 0.04 0.03 0.02 0.00 0.01 0.02 0.02 0.00 0.00 0.00 0.00 0.00 0.00 0.00 0.02 0.22 0.41 0.27 0.00 0.39 0.45 0.05 0.25 0.08 0.00 0.00 0.00 0.00 0.00 0.00 0.01 0.04 0.11 0.22
0.01 0.01 0.01 0.03 0.02 0.00 0.00 0.01 0.02 0.01 0.00 0.00 0.00 0.00 0.00 0.00 0.00 0.00 0.00 0.02 0.10 0.27 0.09 0.19 0.73 0.22 0.43 0.25 0.03 0.00 0.00 0.00 0.00 0.02 0.03 0.08 0.16 0.24
0.01 0.01 0.01 0.00 0.00 0.00 0.00 0.00 0.00 0.00 0.00 0.01 0.01 0.00 0.00 0.00 0.00 0.00 0.00 0.00 0.01 0.01 0.03 0.03 0.26 0.25 0.44 0.46 0.24 0.04 0.07 0.02 0.01 0.08 0.14 0.22 0.25 0.27
0.00 0.00 0.00 0.00 0.00 0.00 0.00 0.00 0.00 0.00 0.01 0.03 0.01 0.00 0.00 0.00 0.00 0.00 0.03 0.01 0.06 0.00 0.00 0.01 0.06 0.24 0.43 0.22 0.37 0.24 0.06 0.20 0.08 0.09 0.22 0.17 0.16 0.23
0.01 0.00 0.00 0.00 0.00 0.00 0.00 0.00 0.00 0.00 0.01 0.01 0.02 0.02 0.01 0.00 0.00 0.00 0.04 0.09 0.12 0.04 0.02 0.00 0.00 0.02 0.09 0.16 0.35 0.13 0.08 0.09 0.19 0.31 0.29 0.24 0.11 0.24
0.00 0.00 0.00 0.00 0.00 0.00 0.00 0.00 0.00 0.00 0.01 0.02 0.03 0.04 0.07 0.05 0.06 0.03 0.03 0.09 0.12 0.04 0.04 0.02 0.02 0.08 0.03 0.01 0.11 0.24 0.27 0.20 0.20 0.23 0.24 0.54 0.26 0.16
0.00 0.00 0.00 0.00 0.00 0.00 0.01 0.02 0.02 0.00 0.02 0.04 0.05 0.07 0.14 0.10 0.05 0.05 0.04 0.06 0.05 0.04 0.04 0.04 0.12 0.33 0.42 0.12 0.03 0.19 0.62 0.46 0.24 0.24 0.28 0.43 0.55 0.41
0.00 0.01 0.01 0.00 0.00 0.01 0.02 0.03 0.03 0.01 0.02 0.03 0.09 0.13 0.15 0.18 0.10 0.09 0.08 0.15 0.18 0.13 0.08 0.02 0.06 0.28 0.76 0.58 0.45 0.11 0.17 0.44 0.68 0.61 0.42 0.40 0.66 0.59
0.00 0.01 0.02 0.01 0.01 0.02 0.03 0.04 0.04 0.06 0.09 0.13 0.10 0.13 0.14 0.26 0.15 0.07 0.09 0.09 0.14 0.16 0.15 0.04 0.05 0.13 0.29 0.46 0.41 0.06 0.04 0.10 0.36 0.91 0.78 0.69 0.37 0.19
0.03 0.03 0.03 0.01 0.01 0.03 0.04 0.04 0.04 0.02 0.05 0.06 0.09 0.14 0.15 0.21 0.27 0.19 0.13 0.21 0.12 0.10 0.12 0.05 0.04 0.10 0.18 0.46 0.28 0.07 0.03 0.02 0.06 0.17 0.32 0.91 1.18 1.13
0.03 0.04 0.04 0.03 0.02 0.03 0.05 0.05 0.04 0.04 0.07 0.13 0.12 0.14 0.19 0.25 0.16 0.20 0.20 0.20 0.22 0.24 0.15 0.14 0.07 0.10 0.12 0.19 0.22 0.15 0.06 0.05 0.04 0.11 0.17 0.23 0.38 0.60

GFSNE_prec_precacc_084.txt.gz
Total_Precipitation_Accumulation
0.29 0.29 0.24 0.21 0.23 0.24 0.26 0.30 0.37 0.34 0.23 0.15 0.15 0.17 0.21 0.30 0.46 0.52 0.57 0.72 0.74 0.75 0.77 0.78 0.76 0.70 0.64 0.61 0.62 0.59 0.51 0.47 0.41 0.42 0.47 0.57 0.74 1.01
0.29 0.30 0.27 0.22 0.23 0.24 0.23 0.23 0.32 0.47 0.57 0.42 0.47 0.54 0.56 0.56 0.62 0.53 0.51 0.58 0.55 0.58 0.61 0.64 0.62 0.55 0.51 0.49 0.50 0.47 0.46 0.46 0.47 0.52 0.60 0.71 0.79 0.87
0.23 0.28 0.31 0.35 0.44 0.54 0.59 0.68 0.80 0.92 0.99 0.86 0.66 0.57 0.50 0.46 0.49 0.44 0.41 0.38 0.40 0.57 0.52 0.51 0.46 0.37 0.35 0.32 0.31 0.29 0.28 0.31 0.38 0.47 0.55 0.67 0.74 0.76
0.19 0.20 0.17 0.16 0.20 0.24 0.26 0.32 0.43 0.54 0.67 0.76 0.70 0.66 0.60 0.54 0.48 0.41 0.34 0.31 0.30 0.38 0.33 0.25 0.18 0.15 0.15 0.15 0.17 0.19 0.22 0.25 0.28 0.32 0.34 0.35 0.37 0.36
0.17 0.18 0.18 0.18 0.21 0.25 0.28 0.33 0.40 0.47 0.54 0.61 0.61 0.55 0.50 0.45 0.38 0.27 0.24 0.21 0.18 0.21 0.16 0.12 0.10 0.09 0.09 0.12 0.13 0.14 0.13 0.11 0.11 0.10 0.10 0.11 0.12 0.16
0.18 0.20 0.20 0.20 0.22 0.26 0.31 0.38 0.40 0.37 0.34 0.33 0.37 0.32 0.25 0.21 0.17 0.12 0.09 0.06 0.04 0.03 0.03 0.02 0.02 0.01 0.02 0.02 0.02 0.01 0.00 0.01 0.01 0.01 0.03 0.05 0.07 0.10
0.21 0.23 0.26 0.33 0.40 0.38 0.32 0.30 0.30 0.32 0.37 0.38 0.27 0.21 0.12 0.05 0.04 0.03 0.04 0.03 0.01 0.00 0.00 0.00 0.00 0.00 0.00 0.00 0.00 0.00 0.00 0.01 0.03 0.07 0.11 0.14 0.16 0.19
0.26 0.33 0.41 0.51 0.46 0.42 0.34 0.27 0.21 0.27 0.28 0.25 0.20 0.07 0.02 0.02 0.01 0.03 0.06 0.06 0.06 0.00 0.00 0.00 0.00 0.00 0.00 0.00 0.00 0.01 0.01 0.02 0.03 0.06 0.09 0.12 0.13 0.15
0.48 0.44 0.37 0.34 0.31 0.26 0.23 0.23 0.24 0.18 0.12 0.07 0.02 0.00 0.01 0.03 0.10 0.10 0.08 0.11 0.06 0.00 0.02 0.02 0.00 0.00 0.00 0.00 0.00 0.00 0.01 0.01 0.02 0.05 0.09 0.10 0.11 0.12
0.45 0.40 0.33 0.26 0.19 0.13 0.16 0.19 0.08 0.02 0.00 0.00 0.00 0.01 0.04 0.04 0.07 0.17 0.10 0.07 0.02 0.00 0.01 0.04 0.00 0.00 0.00 0.00 0.00 0.00 0.00 0.01 0.02 0.04 0.08 0.11 0.16 0.19
0.14 0.07 0.03 0.03 0.03 0.06 0.08 0.04 0.00 0.00 0.00 0.01 0.03 0.02 0.01 0.01 0.00 0.06 0.07 0.08 0.06 0.00 0.00 0.01 0.01 0.00 0.00 0.00 0.00 0.00 0.00 0.01 0.01 0.02 0.04 0.05 0.07 0.09
0.00 0.00 0.01 0.01 0.04 0.08 0.03 0.00 0.00 0.00 0.05 0.02 0.01 0.00 0.00 0.00 0.00 0.01 0.07 0.25 0.14 0.13 0.00 0.14 0.07 0.05 0.20 0.01 0.00 0.00 0.00 0.00 0.00 0.01 0.02 0.03 0.06 0.09
0.00 0.00 0.00 0.03 0.04 0.03 0.02 0.00 0.01 0.02 0.02 0.00 0.00 0.00 0.00 0.00 0.00 0.00 0.02 0.22 0.41 0.27 0.00 0.39 0.45 0.05 0.25 0.08 0.00 0.00 0.00 0.00 0.00 0.00 0.01 0.04 0.11 0.22
0.01 0.01 0.01 0.03 0.02 0.00 0.00 0.01 0.02 0.01 0.00 0.00 0.00 0.00 0.00 0.00 0.00 0.00 0.00 0.02 0.10 0.27 0.09 0.19 0.73 0.22 0.43 0.25 0.03 0.00 0.00 0.00 0.00 0.02 0.03 0.08 0.16 0.24
0.01 0.01 0.01 0.00 0.00 0.00 0.00 0.00 0.00 0.00 0.00 0.01 0.01 0.00 0.00 0.00 0.00 0.00 0.00 0.00 0.01 0.01 0.03 0.03 0.26 0.25 0.44 0.46 0.24 0.04 0.07 0.02 0.01 0.08 0.14 0.22 0.25 0.27
0.00 0.00 0.00 0.00 0.00 0.00 0.00 0.00 0.00 0.00 0.01 0.03 0.01 0.00 0.00 0.00 0.00 0.00 0.03 0.01 0.06 0.00 0.00 0.01 0.06 0.24 0.43 0.22 0.37 0.24 0.06 0.20 0.08 0.09 0.22 0.17 0.16 0.23
0.01 0.00 0.00 0.00 0.00 0.00 0.00 0.00 0.00 0.00 0.01 0.01 0.02 0.02 0.01 0.00 0.00 0.00 0.04 0.09 0.12 0.04 0.02 0.00 0.00 0.02 0.09 0.16 0.35 0.13 0.08 0.09 0.19 0.31 0.29 0.24 0.11 0.24
0.00 0.00 0.00 0.00 0.00 0.00 0.00 0.00 0.00 0.00 0.01 0.02 0.03 0.04 0.07 0.05 0.06 0.03 0.03 0.09 0.12 0.04 0.04 0.02 0.02 0.08 0.03 0.01 0.11 0.24 0.27 0.20 0.20 0.23 0.24 0.54 0.26 0.16
0.01 0.00 0.00 0.00 0.00 0.00 0.01 0.02 0.02 0.00 0.02 0.04 0.05 0.07 0.14 0.10 0.05 0.05 0.04 0.06 0.05 0.04 0.04 0.04 0.12 0.33 0.42 0.12 0.03 0.19 0.62 0.46 0.24 0.24 0.28 0.43 0.55 0.41
0.01 0.01 0.01 0.00 0.00 0.01 0.02 0.03 0.03 0.01 0.02 0.03 0.09 0.13 0.15 0.18 0.10 0.09 0.08 0.15 0.18 0.13 0.08 0.02 0.06 0.28 0.76 0.58 0.45 0.11 0.17 0.44 0.68 0.61 0.42 0.40 0.66 0.59
0.00 0.02 0.03 0.03 0.02 0.02 0.03 0.04 0.04 0.06 0.09 0.13 0.10 0.13 0.14 0.26 0.15 0.07 0.09 0.09 0.14 0.16 0.15 0.04 0.05 0.13 0.29 0.46 0.41 0.06 0.04 0.10 0.36 0.91 0.79 0.69 0.37 0.19
0.03 0.03 0.04 0.03 0.02 0.03 0.04 0.04 0.04 0.02 0.05 0.06 0.09 0.14 0.15 0.21 0.27 0.19 0.13 0.21 0.12 0.10 0.12 0.05 0.04 0.10 0.19 0.47 0.28 0.07 0.03 0.02 0.06 0.17 0.32 0.91 1.18 1.13
0.03 0.04 0.04 0.04 0.03 0.03 0.05 0.05 0.04 0.04 0.07 0.13 0.12 0.14 0.19 0.25 0.16 0.20 0.20 0.20 0.22 0.24 0.15 0.14 0.07 0.10 0.12 0.19 0.22 0.15 0.06 0.05 0.04 0.11 0.17 0.23 0.38 0.60

GFSNE_prec_precacc_087.txt.gz
Total_Precipitation_Accumulation
0.29 0.29 0.24 0.21 0.23 0.24 0.26 0.30 0.37 0.34 0.23 0.15 0.15 0.17 0.21 0.30 0.46 0.52 0.57 0.72 0.75 0.77 0.78 0.78 0.76 0.71 0.64 0.62 0.62 0.59 0.51 0.47 0.41 0.42 0.48 0.58 0.74 1.01
0.29 0.30 0.27 0.22 0.23 0.24 0.23 0.23 0.32 0.47 0.57 0.42 0.47 0.54 0.56 0.56 0.62 0.53 0.51 0.58 0.55 0.59 0.62 0.64 0.62 0.55 0.51 0.49 0.51 0.47 0.46 0.46 0.47 0.52 0.60 0.72 0.80 0.88
0.23 0.28 0.31 0.35 0.44 0.54 0.59 0.68 0.80 0.92 0.99 0.86 0.66 0.57 0.50 0.46 0.49 0.44 0.41 0.38 0.41 0.57 0.52 0.52 0.47 0.38 0.35 0.32 0.31 0.29 0.29 0.31 0.38 0.47 0.55 0.67 0.74 0.78
0.19 0.20 0.17 0.16 0.20 0.24 0.26 0.32 0.43 0.54 0.68 0.76 0.70 0.66 0.60 0.54 0.48 0.41 0.34 0.31 0.30 0.40 0.34 0.25 0.18 0.15 0.15 0.15 0.17 0.19 0.22 0.25 0.28 0.32 0.34 0.36 0.38 0.39
0.17 0.18 0.18 0.18 0.21 0.25 0.28 0.33 0.40 0.47 0.54 0.61 0.61 0.55 0.50 0.45 0.38 0.27 0.24 0.21 0.18 0.22 0.16 0.12 0.10 0.09 0.09 0.12 0.13 0.14 0.13 0.11 0.11 0.10 0.10 0.11 0.16 0.21
0.18 0.20 0.20 0.20 0.22 0.26 0.31 0.38 0.40 0.37 0.35 0.33 0.37 0.32 0.25 0.21 0.17 0.12 0.09 0.06 0.04 0.03 0.03 0.02 0.02 0.01 0.02 0.02 0.02 0.01 0.00 0.01 0.01 0.01 0.03 0.05 0.08 0.14
0.21 0.23 0.26 0.33 0.40 0.38 0.32 0.30 0.30 0.32 0.37 0.38 0.27 0.21 0.12 0.05 0.04 0.03 0.04 0.03 0.01 0.00 0.00 0.00 0.00 0.00 0.00 0.00 0.00 0.00 0.00 0.01 0.03 0.07 0.11 0.14 0.16 0.19
0.26 0.33 0.41 0.51 0.46 0.42 0.34 0.27 0.21 0.27 0.28 0.25 0.20 0.07 0.02 0.02 0.01 0.03 0.06 0.06 0.06 0.00 0.00 0.00 0.00 0.00 0.00 0.00 0.00 0.01 0.01 0.02 0.03 0.06 0.09 0.12 0.13 0.15
0.48 0.44 0.37 0.34 0.31 0.26 0.23 0.23 0.24 0.18 0.12 0.07 0.02 0.00 0.01 0.03 0.10 0.10 0.08 0.11 0.06 0.00 0.02 0.02 0.00 0.00 0.00 0.00 0.00 0.00 0.01 0.01 0.02 0.05 0.09 0.10 0.11 0.12
0.45 0.40 0.33 0.26 0.19 0.13 0.16 0.19 0.08 0.02 0.00 0.00 0.00 0.01 0.04 0.04 0.07 0.17 0.10 0.07 0.02 0.00 0.01 0.04 0.00 0.00 0.00 0.00 0.00 0.00 0.00 0.01 0.02 0.04 0.08 0.11 0.16 0.19
0.14 0.07 0.03 0.03 0.03 0.06 0.08 0.04 0.00 0.00 0.00 0.01 0.03 0.02 0.01 0.01 0.00 0.06 0.07 0.08 0.06 0.00 0.00 0.01 0.01 0.00 0.00 0.00 0.00 0.00 0.00 0.01 0.01 0.02 0.04 0.05 0.07 0.09
0.00 0.00 0.01 0.01 0.04 0.08 0.03 0.00 0.00 0.00 0.05 0.02 0.01 0.00 0.00 0.00 0.00 0.01 0.07 0.25 0.14 0.13 0.00 0.14 0.07 0.05 0.20 0.01 0.00 0.00 0.00 0.00 0.00 0.01 0.02 0.03 0.06 0.09
0.00 0.00 0.00 0.03 0.04 0.03 0.02 0.00 0.01 0.02 0.02 0.00 0.00 0.00 0.00 0.00 0.00 0.00 0.02 0.22 0.41 0.27 0.00 0.39 0.45 0.05 0.25 0.08 0.00 0.00 0.00 0.00 0.00 0.00 0.01 0.04 0.11 0.22
0.01 0.01 0.01 0.03 0.02 0.00 0.00 0.01 0.02 0.01 0.00 0.00 0.00 0.00 0.00 0.00 0.00 0.00 0.00 0.02 0.10 0.27 0.09 0.19 0.73 0.22 0.43 0.25 0.03 0.00 0.00 0.00 0.00 0.02 0.03 0.08 0.16 0.24
0.01 0.01 0.01 0.00 0.00 0.00 0.00 0.00 0.00 0.00 0.00 0.01 0.01 0.00 0.00 0.00 0.00 0.00 0.00 0.00 0.01 0.01 0.03 0.03 0.26 0.25 0.44 0.46 0.24 0.04 0.07 0.02 0.01 0.08 0.14 0.22 0.25 0.27
0.00 0.00 0.00 0.00 0.00 0.00 0.00 0.00 0.00 0.00 0.01 0.03 0.01 0.00 0.00 0.00 0.00 0.00 0.03 0.01 0.06 0.00 0.00 0.01 0.06 0.24 0.43 0.22 0.37 0.24 0.06 0.20 0.08 0.09 0.22 0.17 0.16 0.23
0.01 0.00 0.00 0.00 0.00 0.00 0.00 0.00 0.00 0.00 0.01 0.01 0.02 0.02 0.01 0.00 0.00 0.00 0.04 0.09 0.12 0.04 0.02 0.00 0.00 0.02 0.09 0.16 0.35 0.13 0.08 0.09 0.19 0.31 0.29 0.24 0.11 0.24
0.01 0.00 0.00 0.00 0.00 0.00 0.00 0.00 0.00 0.00 0.01 0.02 0.03 0.04 0.07 0.05 0.06 0.03 0.03 0.09 0.12 0.04 0.04 0.02 0.02 0.08 0.03 0.01 0.11 0.24 0.27 0.20 0.20 0.23 0.24 0.54 0.26 0.16
0.03 0.00 0.00 0.00 0.00 0.00 0.01 0.02 0.02 0.00 0.02 0.04 0.05 0.07 0.14 0.10 0.05 0.05 0.04 0.06 0.05 0.04 0.04 0.04 0.12 0.33 0.42 0.12 0.03 0.19 0.62 0.46 0.24 0.24 0.28 0.43 0.55 0.41
0.02 0.01 0.01 0.00 0.00 0.01 0.02 0.03 0.03 0.01 0.02 0.03 0.09 0.13 0.15 0.18 0.10 0.09 0.08 0.15 0.18 0.13 0.08 0.02 0.06 0.28 0.76 0.58 0.45 0.11 0.17 0.44 0.68 0.61 0.42 0.40 0.66 0.59
0.00 0.02 0.03 0.03 0.02 0.02 0.03 0.04 0.04 0.06 0.09 0.13 0.10 0.13 0.14 0.26 0.15 0.07 0.09 0.09 0.14 0.16 0.15 0.04 0.05 0.13 0.29 0.46 0.41 0.06 0.04 0.10 0.36 0.91 0.79 0.69 0.37 0.19
0.03 0.03 0.04 0.03 0.02 0.04 0.04 0.04 0.04 0.02 0.05 0.06 0.09 0.14 0.15 0.21 0.27 0.19 0.13 0.21 0.12 0.10 0.12 0.05 0.04 0.10 0.19 0.47 0.28 0.07 0.03 0.02 0.06 0.17 0.32 0.91 1.18 1.13
0.07 0.07 0.05 0.05 0.03 0.04 0.06 0.05 0.04 0.04 0.07 0.13 0.12 0.14 0.19 0.25 0.16 0.20 0.20 0.20 0.22 0.24 0.15 0.14 0.07 0.10 0.12 0.19 0.22 0.15 0.06 0.05 0.04 0.11 0.17 0.23 0.38 0.60

GFSNE_prec_precacc_090.txt.gz
Total_Precipitation_Accumulation
0.29 0.29 0.24 0.21 0.23 0.24 0.26 0.30 0.37 0.34 0.23 0.15 0.15 0.17 0.21 0.30 0.46 0.52 0.57 0.72 0.75 0.77 0.78 0.79 0.77 0.71 0.64 0.62 0.62 0.59 0.51 0.47 0.41 0.42 0.48 0.59 0.75 1.02
0.29 0.30 0.27 0.22 0.23 0.24 0.23 0.23 0.32 0.47 0.57 0.42 0.47 0.54 0.56 0.56 0.62 0.53 0.51 0.58 0.55 0.59 0.62 0.64 0.62 0.55 0.51 0.49 0.51 0.47 0.46 0.46 0.48 0.52 0.60 0.72 0.80 0.89
0.24 0.28 0.31 0.35 0.44 0.54 0.59 0.68 0.80 0.92 0.99 0.86 0.66 0.57 0.50 0.46 0.49 0.44 0.41 0.38 0.41 0.57 0.52 0.52 0.47 0.38 0.35 0.32 0.31 0.30 0.29 0.31 0.38 0.47 0.55 0.67 0.75 0.78
0.20 0.20 0.17 0.16 0.20 0.24 0.26 0.32 0.43 0.54 0.68 0.76 0.70 0.66 0.60 0.54 0.48 0.41 0.34 0.31 0.30 0.40 0.34 0.25 0.18 0.15 0.15 0.15 0.17 0.19 0.22 0.25 0.28 0.32 0.34 0.36 0.39 0.41
0.17 0.18 0.18 0.18 0.21 0.25 0.28 0.33 0.40 0.47 0.54 0.61 0.61 0.55 0.50 0.45 0.38 0.27 0.24 0.21 0.18 0.22 0.16 0.12 0.10 0.09 0.09 0.12 0.13 0.14 0.13 0.11 0.11 0.10 0.10 0.11 0.18 0.25
0.19 0.20 0.20 0.20 0.22 0.26 0.31 0.38 0.40 0.37 0.35 0.33 0.37 0.32 0.25 0.21 0.17 0.12 0.09 0.06 0.04 0.03 0.03 0.02 0.02 0.01 0.02 0.02 0.02 0.01 0.00 0.01 0.01 0.01 0.03 0.05 0.08 0.16
0.23 0.25 0.26 0.34 0.40 0.38 0.32 0.30 0.30 0.32 0.37 0.38 0.27 0.21 0.12 0.05 0.04 0.03 0.04 0.03 0.01 0.00 0.00 0.00 0.00 0.00 0.00 0.00 0.00 0.00 0.00 0.01 0.03 0.07 0.11 0.14 0.16 0.19
0.26 0.33 0.41 0.51 0.46 0.42 0.34 0.27 0.21 0.27 0.28 0.25 0.20 0.07 0.02 0.02 0.01 0.03 0.06 0.06 0.06 0.00 0.00 0.00 0.00 0.00 0.00 0.00 0.00 0.01 0.01 0.02 0.03 0.06 0.09 0.12 0.13 0.15
0.48 0.44 0.37 0.34 0.31 0.26 0.23 0.23 0.24 0.18 0.12 0.07 0.02 0.00 0.01 0.03 0.10 0.10 0.08 0.11 0.06 0.00 0.02 0.02 0.00 0.00 0.00 0.00 0.00 0.00 0.01 0.01 0.02 0.05 0.09 0.10 0.11 0.12
0.45 0.40 0.33 0.26 0.19 0.13 0.16 0.19 0.08 0.02 0.00 0.00 0.00 0.01 0.04 0.04 0.07 0.17 0.10 0.07 0.02 0.00 0.01 0.04 0.00 0.00 0.00 0.00 0.00 0.00 0.00 0.01 0.02 0.04 0.08 0.11 0.16 0.19
0.14 0.07 0.03 0.03 0.03 0.06 0.08 0.04 0.00 0.00 0.00 0.01 0.03 0.02 0.01 0.01 0.00 0.06 0.07 0.08 0.06 0.00 0.00 0.01 0.01 0.00 0.00 0.00 0.00 0.00 0.00 0.01 0.01 0.02 0.04 0.05 0.07 0.09
0.00 0.00 0.01 0.01 0.04 0.08 0.03 0.00 0.00 0.00 0.05 0.02 0.01 0.00 0.00 0.00 0.00 0.01 0.07 0.25 0.14 0.13 0.00 0.14 0.07 0.05 0.20 0.01 0.00 0.00 0.00 0.00 0.00 0.01 0.02 0.03 0.06 0.09
0.00 0.00 0.00 0.03 0.04 0.03 0.02 0.00 0.01 0.02 0.02 0.00 0.00 0.00 0.00 0.00 0.00 0.00 0.02 0.22 0.41 0.27 0.00 0.39 0.45 0.05 0.25 0.08 0.00 0.00 0.00 0.00 0.00 0.00 0.01 0.04 0.11 0.22
0.01 0.01 0.01 0.03 0.02 0.00 0.00 0.01 0.02 0.01 0.00 0.00 0.00 0.00 0.00 0.00 0.00 0.00 0.00 0.02 0.10 0.27 0.09 0.19 0.73 0.22 0.43 0.25 0.03 0.00 0.00 0.00 0.00 0.02 0.03 0.08 0.16 0.24
0.01 0.01 0.01 0.00 0.00 0.00 0.00 0.00 0.00 0.00 0.00 0.01 0.01 0.00 0.00 0.00 0.00 0.00 0.00 0.00 0.01 0.01 0.03 0.03 0.26 0.25 0.44 0.46 0.24 0.04 0.07 0.02 0.01 0.08 0.14 0.22 0.25 0.27
0.01 0.01 0.00 0.00 0.00 0.00 0.00 0.00 0.00 0.00 0.01 0.03 0.01 0.00 0.00 0.00 0.00 0.00 0.03 0.01 0.06 0.00 0.00 0.01 0.06 0.24 0.43 0.22 0.37 0.24 0.06 0.20 0.08 0.09 0.22 0.17 0.16 0.23
0.08 0.03 0.01 0.00 0.00 0.00 0.00 0.00 0.00 0.00 0.01 0.01 0.02 0.02 0.01 0.00 0.00 0.00 0.04 0.09 0.12 0.04 0.02 0.00 0.00 0.02 0.09 0.16 0.35 0.13 0.08 0.09 0.19 0.31 0.29 0.24 0.11 0.24
0.11 0.04 0.01 0.00 0.00 0.00 0.00 0.00 0.00 0.00 0.01 0.02 0.03 0.04 0.07 0.05 0.06 0.03 0.03 0.09 0.12 0.04 0.04 0.02 0.02 0.08 0.03 0.01 0.11 0.24 0.27 0.20 0.20 0.23 0.24 0.54 0.26 0.16
0.14 0.01 0.00 0.00 0.00 0.00 0.01 0.02 0.02 0.00 0.02 0.04 0.05 0.07 0.14 0.10 0.05 0.05 0.04 0.06 0.05 0.04 0.04 0.04 0.12 0.33 0.42 0.12 0.03 0.19 0.62 0.46 0.24 0.24 0.28 0.43 0.55 0.41
0.14 0.03 0.02 0.01 0.00 0.01 0.02 0.03 0.03 0.01 0.02 0.03 0.09 0.13 0.15 0.18 0.10 0.09 0.08 0.15 0.18 0.13 0.08 0.02 0.06 0.28 0.76 0.58 0.45 0.11 0.17 0.44 0.68 0.61 0.42 0.40 0.66 0.59
0.05 0.03 0.03 0.04 0.02 0.03 0.03 0.04 0.05 0.06 0.09 0.13 0.10 0.13 0.14 0.26 0.15 0.07 0.09 0.09 0.14 0.16 0.15 0.04 0.05 0.13 0.29 0.46 0.41 0.06 0.04 0.10 0.36 0.91 0.79 0.69 0.37 0.19
0.07 0.06 0.05 0.04 0.04 0.05 0.07 0.06 0.05 0.02 0.05 0.06 0.09 0.14 0.15 0.21 0.27 0.19 0.13 0.21 0.12 0.10 0.12 0.05 0.04 0.10 0.19 0.47 0.28 0.07 0.03 0.02 0.06 0.17 0.32 0.91 1.18 1.13
0.13 0.15 0.11 0.10 0.10 0.08 0.09 0.07 0.05 0.04 0.07 0.13 0.12 0.14 0.19 0.25 0.16 0.20 0.20 0.20 0.22 0.24 0.15 0.14 0.07 0.10 0.12 0.19 0.22 0.15 0.06 0.05 0.04 0.11 0.17 0.23 0.38 0.60

GFSNE_prec_precacc_093.txt.gz
Total_Precipitation_Accumulation
0.34 0.32 0.29 0.28 0.29 0.27 0.28 0.31 0.38 0.34 0.23 0.15 0.15 0.17 0.21 0.30 0.46 0.52 0.57 0.72 0.75 0.77 0.78 0.79 0.77 0.71 0.64 0.62 0.62 0.59 0.51 0.47 0.41 0.42 0.48 0.59 0.75 1.02
0.42 0.36 0.31 0.25 0.24 0.25 0.24 0.23 0.32 0.47 0.57 0.42 0.47 0.54 0.56 0.56 0.62 0.53 0.51 0.58 0.55 0.59 0.62 0.64 0.62 0.55 0.51 0.49 0.51 0.47 0.46 0.46 0.48 0.52 0.61 0.72 0.81 0.89
0.32 0.35 0.37 0.38 0.44 0.54 0.61 0.69 0.80 0.92 0.99 0.86 0.66 0.57 0.50 0.46 0.49 0.44 0.41 0.38 0.41 0.58 0.52 0.52 0.47 0.38 0.35 0.32 0.31 0.30 0.29 0.32 0.39 0.47 0.55 0.67 0.75 0.79
0.26 0.25 0.22 0.19 0.21 0.25 0.27 0.32 0.43 0.54 0.68 0.76 0.70 0.66 0.60 0.54 0.48 0.41 0.34 0.31 0.30 0.40 0.34 0.25 0.18 0.15 0.15 0.15 0.17 0.19 0.22 0.25 0.28 0.32 0.34 0.36 0.40 0.44
0.20 0.21 0.21 0.20 0.23 0.25 0.28 0.33 0.40 0.47 0.54 0.61 0.61 0.55 0.50 0.45 0.38 0.27 0.24 0.21 0.18 0.22 0.16 0.12 0.10 0.09 0.09 0.12 0.13 0.14 0.13 0.11 0.11 0.10 0.10 0.11 0.18 0.29
0.24 0.26 0.24 0.22 0.23 0.26 0.31 0.38 0.40 0.37 0.35 0.33 0.37 0.32 0.25 0.21 0.17 0.12 0.09 0.06 0.04 0.03 0.03 0.02 0.02 0.01 0.02 0.02 0.02 0.01 0.00 0.01 0.01 0.01 0.03 0.05 0.08 0.16
0.26 0.28 0.28 0.35 0.41 0.38 0.32 0.31 0.30 0.32 0.37 0.38 0.27 0.21 0.12 0.05 0.04 0.03 0.04 0.03 0.01 0.00 0.00 0.00 0.00 0.00 0.00 0.00 0.00 0.00 0.00 0.01 0.03 0.07 0.11 0.14 0.16 0.19
0.28 0.35 0.43 0.53 0.48 0.44 0.35 0.28 0.22 0.27 0.28 0.25 0.20 0.07 0.02 0.02 0.01 0.03 0.06 0.06 0.06 0.00 0.00 0.00 0.00 0.00 0.00 0.00 0.00 0.01 0.01 0.02 0.03 0.06 0.09 0.12 0.13 0.15
0.48 0.45 0.37 0.35 0.32 0.26 0.24 0.23 0.24 0.18 0.12 0.07 0.02 0.00 0.01 0.03 0.10 0.10 0.08 0.11 0.06 0.00 0.02 0.02 0.00 0.00 0.00 0.00 0.00 0.00 0.01 0.01 0.02 0.05 0.09 0.10 0.11 0.12
0.45 0.40 0.33 0.26 0.19 0.13 0.16 0.19 0.08 0.02 0.00 0.00 0.00 0.01 0.04 0.04 0.07 0.17 0.10 0.07 0.02 0.00 0.01 0.04 0.00 0.00 0.00 0.00 0.00 0.00 0.00 0.01 0.02 0.04 0.08 0.11 0.16 0.19
0.14 0.07 0.03 0.03 0.03 0.06 0.08 0.04 0.00 0.00 0.00 0.01 0.03 0.02 0.01 0.01 0.00 0.06 0.07 0.08 0.06 0.00 0.00 0.01 0.01 0.00 0.00 0.00 0.00 0.00 0.00 0.01 0.01 0.02 0.04 0.05 0.07 0.09
0.00 0.00 0.01 0.01 0.04 0.08 0.03 0.00 0.00 0.00 0.05 0.02 0.01 0.00 0.00 0.00 0.00 0.01 0.07 0.25 0.14 0.13 0.00 0.14 0.07 0.05 0.20 0.01 0.00 0.00 0.00 0.00 0.00 0.01 0.02 0.03 0.06 0.09
0.00 0.00 0.00 0.03 0.04 0.03 0.02 0.00 0.01 0.02 0.02 0.00 0.00 0.00 0.00 0.00 0.00 0.00 0.02 0.22 0.41 0.27 0.00 0.39 0.45 0.05 0.25 0.08 0.00 0.00 0.00 0.00 0.00 0.00 0.01 0.04 0.11 0.22
0.01 0.01 0.01 0.03 0.02 0.00 0.00 0.01 0.02 0.01 0.00 0.00 0.00 0.00 0.00 0.00 0.00 0.00 0.00 0.02 0.10 0.27 0.09 0.19 0.73 0.22 0.43 0.25 0.03 0.00 0.00 0.00 0.00 0.02 0.03 0.08 0.16 0.24
0.02 0.03 0.02 0.01 0.00 0.00 0.01 0.00 0.00 0.00 0.00 0.01 0.01 0.00 0.00 0.00 0.00 0.00 0.00 0.00 0.01 0.01 0.03 0.03 0.26 0.25 0.44 0.46 0.24 0.04 0.07 0.02 0.01 0.08 0.14 0.22 0.25 0.27
0.04 0.08 0.10 0.06 0.03 0.01 0.00 0.00 0.00 0.00 0.01 0.03 0.01 0.00 0.00 0.00 0.00 0.00 0.03 0.01 0.06 0.00 0.00 0.01 0.06 0.24 0.43 0.22 0.37 0.24 0.06 0.20 0.08 0.09 0.22 0.17 0.16 0.23
0.17 0.11 0.11 0.09 0.06 0.03 0.01 0.00 0.00 0.00 0.01 0.01 0.02 0.02 0.01 0.00 0.00 0.00 0.04 0.09 0.12 0.04 0.02 0.00 0.00 0.02 0.09 0.16 0.35 0.13 0.08 0.09 0.19 0.31 0.29 0.24 0.11 0.24
0.24 0.15 0.18 0.09 0.04 0.03 0.03 0.02 0.01 0.01 0.01 0.02 0.03 0.04 0.07 0.05 0.06 0.03 0.03 0.09 0.12 0.04 0.04 0.02 0.02 0.08 0.03 0.01 0.11 0.24 0.27 0.20 0.20 0.23 0.24 0.54 0.26 0.16
0.32 0.06 0.05 0.08 0.10 0.08 0.04 0.04 0.03 0.01 0.03 0.05 0.05 0.07 0.14 0.10 0.05 0.05 0.04 0.06 0.05 0.04 0.04 0.04 0.12 0.33 0.42 0.12 0.03 0.19 0.62 0.46 0.24 0.24 0.28 0.43 0.55 0.41
0.24 0.09 0.06 0.05 0.05 0.11 0.12 0.09 0.05 0.05 0.07 0.06 0.10 0.13 0.15 0.18 0.10 0.09 0.08 0.15 0.18 0.13 0.08 0.02 0.06 0.28 0.76 0.58 0.45 0.11 0.17 0.44 0.68 0.61 0.42 0.40 0.66 0.59
0.09 0.08 0.06 0.10 0.14 0.14 0.14 0.14 0.12 0.09 0.11 0.15 0.10 0.13 0.14 0.26 0.15 0.07 0.09 0.09 0.14 0.16 0.15 0.04 0.05 0.13 0.29 0.46 0.41 0.06 0.04 0.10 0.36 0.91 0.79 0.69 0.37 0.19
0.10 0.11 0.07 0.06 0.11 0.18 0.21 0.20 0.15 0.09 0.09 0.08 0.10 0.14 0.15 0.21 0.27 0.19 0.13 0.21 0.12 0.10 0.12 0.05 0.04 0.10 0.19 0.47 0.28 0.07 0.03 0.02 0.06 0.17 0.32 0.91 1.18 1.13
0.15 0.21 0.17 0.14 0.14 0.17 0.21 0.18 0.13 0.09 0.10 0.15 0.14 0.15 0.19 0.25 0.16 0.20 0.20 0.20 0.22 0.24 0.15 0.14 0.07 0.10 0.12 0.19 0.22 0.15 0.06 0.05 0.04 0.11 0.17 0.23 0.38 0.60

GFSNE_prec_precacc_096.txt.gz
Total_Precipitation_Accumulation
0.39 0.36 0.31 0.29 0.30 0.28 0.29 0.36 0.46 0.40 0.25 0.15 0.15 0.17 0.21 0.30 0.46 0.52 0.57 0.72 0.75 0.77 0.78 0.79 0.77 0.71 0.64 0.62 0.62 0.59 0.51 0.47 0.41 0.42 0.48 0.59 0.75 1.02
0.47 0.51 0.52 0.50 0.44 0.33 0.26 0.26 0.34 0.48 0.60 0.43 0.47 0.54 0.56 0.56 0.62 0.53 0.51 0.58 0.55 0.59 0.62 0.64 0.62 0.55 0.51 0.49 0.51 0.47 0.46 0.46 0.48 0.53 0.61 0.73 0.81 0.90
0.40 0.38 0.43 0.55 0.67 0.64 0.64 0.70 0.81 0.92 0.99 0.86 0.66 0.57 0.50 0.46 0.49 0.44 0.41 0.38 0.41 0.58 0.52 0.52 0.47 0.38 0.35 0.32 0.31 0.30 0.29 0.32 0.39 0.47 0.56 0.68 0.75 0.79
0.36 0.34 0.26 0.23 0.25 0.29 0.31 0.39 0.47 0.56 0.69 0.77 0.70 0.66 0.60 0.54 0.48 0.41 0.34 0.31 0.30 0.40 0.34 0.25 0.18 0.15 0.15 0.15 0.17 0.19 0.22 0.25 0.28 0.32 0.34 0.36 0.40 0.45
0.22 0.24 0.25 0.25 0.25 0.28 0.31 0.39 0.47 0.48 0.54 0.61 0.61 0.55 0.50 0.45 0.38 0.27 0.24 0.21 0.18 0.23 0.16 0.12 0.10 0.09 0.09 0.12 0.13 0.14 0.13 0.11 0.11 0.10 0.10 0.11 0.18 0.29
0.26 0.28 0.27 0.29 0.36 0.44 0.43 0.41 0.44 0.38 0.35 0.33 0.37 0.32 0.25 0.21 0.17 0.12 0.09 0.06 0.04 0.03 0.03 0.02 0.02 0.01 0.02 0.02 0.02 0.01 0.00 0.01 0.01 0.01 0.03 0.05 0.08 0.16
0.27 0.29 0.31 0.39 0.47 0.48 0.49 0.36 0.31 0.33 0.37 0.38 0.27 0.21 0.12 0.05 0.04 0.03 0.04 0.03 0.01 0.00 0.00 0.00 0.00 0.00 0.00 0.00 0.00 0.00 0.00 0.01 0.03 0.07 0.11 0.14 0.16 0.19
0.28 0.36 0.44 0.55 0.49 0.45 0.38 0.29 0.23 0.28 0.28 0.25 0.20 0.07 0.02 0.02 0.01 0.03 0.06 0.06 0.06 0.00 0.00 0.00 0.00 0.00 0.00 0.00 0.00 0.01 0.01 0.02 0.03 0.06 0.09 0.12 0.13 0.15
0.48 0.45 0.37 0.35 0.34 0.28 0.26 0.26 0.27 0.22 0.17 0.09 0.05 0.03 0.01 0.03 0.10 0.10 0.08 0.11 0.06 0.00 0.02 0.02 0.00 0.00 0.00 0.00 0.00 0.00 0.01 0.01 0.02 0.05 0.09 0.10 0.11 0.12
0.45 0.40 0.33 0.26 0.19 0.14 0.16 0.20 0.08 0.03 0.01 0.00 0.00 0.01 0.04 0.04 0.07 0.17 0.10 0.07 0.02 0.00 0.01 0.04 0.00 0.00 0.00 0.00 0.00 0.00 0.00 0.01 0.02 0.04 0.08 0.11 0.16 0.19
0.14 0.07 0.03 0.03 0.04 0.08 0.08 0.04 0.00 0.00 0.00 0.01 0.03 0.02 0.01 0.01 0.00 0.06 0.07 0.08 0.06 0.00 0.00 0.01 0.01 0.00 0.00 0.00 0.00 0.00 0.00 0.01 0.01 0.02 0.04 0.05 0.07 0.09
0.00 0.00 0.01 0.01 0.05 0.08 0.03 0.00 0.00 0.00 0.05 0.02 0.01 0.00 0.00 0.00 0.00 0.01 0.07 0.25 0.14 0.13 0.00 0.14 0.07 0.05 0.20 0.01 0.00 0.00 0.00 0.00 0.00 0.01 0.02 0.03 0.06 0.09
0.01 0.00 0.00 0.03 0.05 0.03 0.02 0.00 0.01 0.02 0.02 0.00 0.00 0.00 0.00 0.00 0.00 0.00 0.02 0.22 0.41 0.27 0.00 0.39 0.45 0.05 0.25 0.08 0.00 0.00 0.00 0.00 0.00 0.00 0.01 0.04 0.11 0.22
0.02 0.01 0.02 0.06 0.04 0.01 0.01 0.01 0.02 0.01 0.00 0.00 0.00 0.00 0.00 0.00 0.00 0.00 0.00 0.02 0.10 0.27 0.09 0.19 0.73 0.22 0.43 0.25 0.03 0.00 0.00 0.00 0.00 0.02 0.03 0.08 0.16 0.24
0.03 0.04 0.06 0.08 0.05 0.02 0.01 0.00 0.00 0.00 0.00 0.01 0.01 0.00 0.00 0.00 0.00 0.00 0.00 0.00 0.01 0.01 0.03 0.03 0.26 0.25 0.44 0.46 0.24 0.04 0.07 0.02 0.01 0.08 0.14 0.22 0.25 0.27
0.06 0.11 0.17 0.15 0.11 0.07 0.03 0.01 0.00 0.00 0.01 0.03 0.01 0.00 0.00 0.00 0.00 0.00 0.03 0.01 0.06 0.00 0.00 0.01 0.06 0.24 0.43 0.22 0.37 0.24 0.06 0.20 0.08 0.09 0.22 0.17 0.16 0.23
0.23 0.14 0.19 0.22 0.18 0.10 0.04 0.02 0.00 0.00 0.01 0.01 0.02 0.02 0.01 0.00 0.00 0.00 0.04 0.09 0.12 0.04 0.02 0.00 0.00 0.02 0.09 0.16 0.35 0.13 0.08 0.09 0.19 0.31 0.29 0.24 0.11 0.24
0.32 0.19 0.21 0.14 0.10 0.14 0.12 0.12 0.07 0.04 0.02 0.03 0.04 0.05 0.07 0.05 0.06 0.03 0.03 0.09 0.12 0.04 0.04 0.02 0.02 0.08 0.03 0.01 0.11 0.24 0.27 0.20 0.20 0.23 0.24 0.54 0.26 0.16
0.36 0.09 0.06 0.11 0.17 0.15 0.12 0.16 0.16 0.11 0.13 0.14 0.15 0.14 0.16 0.10 0.05 0.05 0.04 0.06 0.05 0.04 0.04 0.04 0.12 0.33 0.42 0.12 0.03 0.19 0.62 0.46 0.24 0.24 0.28 0.43 0.55 0.41
0.24 0.11 0.08 0.07 0.08 0.21 0.29 0.23 0.18 0.20 0.23 0.24 0.26 0.22 0.19 0.19 0.10 0.09 0.08 0.15 0.18 0.13 0.08 0.02 0.06 0.28 0.76 0.58 0.45 0.11 0.17 0.44 0.68 0.61 0.42 0.40 0.66 0.59
0.10 0.10 0.09 0.13 0.16 0.19 0.26 0.35 0.36 0.31 0.28 0.31 0.22 0.20 0.18 0.28 0.16 0.07 0.09 0.09 0.14 0.16 0.15 0.04 0.05 0.13 0.29 0.46 0.41 0.06 0.04 0.10 0.36 0.91 0.79 0.69 0.37 0.19
0.11 0.12 0.08 0.08 0.13 0.23 0.31 0.35 0.35 0.31 0.32 0.25 0.19 0.18 0.17 0.22 0.28 0.20 0.14 0.21 0.12 0.10 0.12 0.05 0.04 0.10 0.19 0.47 0.28 0.07 0.03 0.02 0.06 0.17 0.32 0.91 1.18 1.13
0.16 0.22 0.18 0.15 0.15 0.20 0.28 0.29 0.25 0.21 0.19 0.23 0.21 0.18 0.20 0.25 0.16 0.20 0.20 0.20 0.22 0.24 0.15 0.14 0.07 0.10 0.12 0.19 0.22 0.15 0.06 0.05 0.04 0.11 0.17 0.23 0.38 0.60

GFSNE_prec_precacc_099.txt.gz
Total_Precipitation_Accumulation
0.47 0.43 0.38 0.34 0.34 0.32 0.32 0.39 0.48 0.41 0.27 0.17 0.17 0.20 0.23 0.32 0.46 0.52 0.57 0.72 0.75 0.77 0.78 0.79 0.77 0.71 0.64 0.62 0.62 0.59 0.51 0.47 0.41 0.42 0.49 0.59 0.76 1.02
0.57 0.60 0.60 0.57 0.53 0.44 0.39 0.37 0.48 0.61 0.70 0.48 0.51 0.58 0.60 0.57 0.62 0.53 0.51 0.58 0.55 0.59 0.62 0.64 0.62 0.55 0.51 0.49 0.51 0.47 0.46 0.46 0.48 0.53 0.62 0.73 0.82 0.90
0.54 0.46 0.46 0.60 0.84 0.90 0.86 0.86 0.96 1.08 1.14 0.98 0.75 0.63 0.53 0.47 0.49 0.44 0.41 0.38 0.41 0.58 0.52 0.52 0.47 0.38 0.35 0.32 0.31 0.30 0.29 0.32 0.39 0.47 0.56 0.68 0.76 0.80
0.47 0.50 0.40 0.31 0.29 0.34 0.37 0.44 0.49 0.58 0.73 0.79 0.74 0.71 0.63 0.55 0.48 0.41 0.34 0.31 0.30 0.40 0.34 0.25 0.18 0.15 0.15 0.15 0.17 0.19 0.22 0.25 0.28 0.32 0.34 0.36 0.40 0.45
0.26 0.28 0.30 0.33 0.32 0.32 0.34 0.41 0.48 0.55 0.62 0.64 0.62 0.55 0.50 0.45 0.38 0.27 0.24 0.21 0.18 0.23 0.16 0.12 0.10 0.09 0.09 0.12 0.13 0.14 0.13 0.11 0.11 0.10 0.10 0.11 0.18 0.29
0.30 0.31 0.31 0.33 0.41 0.49 0.50 0.51 0.52 0.55 0.55 0.51 0.45 0.34 0.25 0.21 0.17 0.12 0.09 0.06 0.04 0.03 0.03 0.02 0.02 0.01 0.02 0.02 0.02 0.01 0.00 0.01 0.01 0.01 0.03 0.05 0.08 0.16
0.27 0.31 0.33 0.43 0.51 0.52 0.60 0.64 0.61 0.62 0.64 0.61 0.36 0.25 0.13 0.05 0.04 0.03 0.04 0.03 0.01 0.00 0.00 0.00 0.00 0.00 0.00 0.00 0.00 0.00 0.00 0.01 0.03 0.07 0.11 0.14 0.16 0.19
0.28 0.36 0.45 0.59 0.52 0.49 0.40 0.35 0.35 0.46 0.46 0.38 0.28 0.08 0.02 0.02 0.01 0.03 0.06 0.06 0.06 0.00 0.00 0.00 0.00 0.00 0.00 0.00 0.00 0.01 0.01 0.02 0.03 0.06 0.09 0.12 0.13 0.15
0.48 0.45 0.37 0.35 0.35 0.29 0.28 0.29 0.30 0.26 0.25 0.22 0.15 0.05 0.05 0.05 0.10 0.10 0.08 0.11 0.06 0.00 0.02 0.02 0.00 0.00 0.00 0.00 0.00 0.00 0.01 0.01 0.02 0.05 0.09 0.10 0.11 0.12
0.45 0.40 0.33 0.26 0.19 0.14 0.16 0.21 0.11 0.07 0.09 0.13 0.14 0.14 0.18 0.17 0.16 0.21 0.11 0.07 0.02 0.00 0.01 0.04 0.00 0.00 0.00 0.00 0.00 0.00 0.00 0.01 0.02 0.04 0.08 0.11 0.16 0.19
0.14 0.07 0.03 0.03 0.05 0.08 0.09 0.04 0.01 0.02 0.06 0.09 0.15 0.10 0.06 0.04 0.03 0.06 0.07 0.08 0.06 0.00 0.00 0.01 0.01 0.00 0.00 0.00 0.00 0.00 0.00 0.01 0.01 0.02 0.04 0.05 0.07 0.09
0.00 0.00 0.01 0.02 0.05 0.09 0.04 0.00 0.00 0.00 0.06 0.03 0.01 0.01 0.01 0.00 0.00 0.01 0.07 0.25 0.14 0.13 0.00 0.14 0.07 0.05 0.20 0.01 0.00 0.00 0.00 0.00 0.00 0.01 0.02 0.03 0.06 0.09
0.01 0.00 0.00 0.04 0.06 0.05 0.03 0.00 0.02 0.04 0.03 0.01 0.00 0.00 0.00 0.00 0.00 0.00 0.02 0.22 0.41 0.27 0.00 0.39 0.45 0.05 0.25 0.08 0.00 0.00 0.00 0.00 0.00 0.00 0.01 0.04 0.11 0.22
0.02 0.02 0.02 0.08 0.06 0.04 0.04 0.02 0.04 0.02 0.01 0.00 0.00 0.00 0.00 0.00 0.00 0.00 0.00 0.02 0.10 0.27 0.09 0.19 0.73 0.22 0.43 0.25 0.03 0.00 0.00 0.00 0.00 0.02 0.03 0.08 0.16 0.24
0.03 0.06 0.07 0.10 0.09 0.06 0.05 0.03 0.04 0.01 0.00 0.01 0.01 0.00 0.00 0.00 0.00 0.00 0.00 0.00 0.01 0.01 0.03 0.03 0.26 0.25 0.44 0.46 0.24 0.04 0.07 0.02 0.01 0.08 0.14 0.22 0.25 0.27
0.07 0.13 0.19 0.16 0.15 0.14 0.12 0.08 0.04 0.02 0.02 0.03 0.01 0.00 0.00 0.00 0.00 0.00 0.03 0.01 0.06 0.00 0.00 0.01 0.06 0.24 0.43 0.22 0.37 0.24 0.06 0.20 0.08 0.09 0.22 0.17 0.16 0.23
0.24 0.14 0.19 0.23 0.19 0.14 0.10 0.12 0.13 0.07 0.03 0.01 0.02 0.02 0.01 0.00 0.00 0.00 0.04 0.09 0.12 0.04 0.02 0.00 0.00 0.02 0.09 0.16 0.35 0.13 0.08 0.09 0.19 0.31 0.29 0.24 0.11 0.24
0.32 0.19 0.21 0.15 0.12 0.17 0.20 0.20 0.15 0.15 0.14 0.08 0.07 0.06 0.07 0.05 0.06 0.03 0.03 0.09 0.12 0.04 0.04 0.02 0.02 0.08 0.03 0.01 0.11 0.24 0.27 0.20 0.20 0.23 0.24 0.54 0.26 0.16
0.37 0.10 0.07 0.13 0.20 0.19 0.16 0.27 0.28 0.19 0.26 0.31 0.31 0.29 0.25 0.14 0.06 0.05 0.04 0.06 0.05 0.04 0.04 0.04 0.12 0.33 0.42 0.12 0.03 0.19 0.62 0.46 0.24 0.24 0.28 0.43 0.55 0.41
0.25 0.12 0.09 0.08 0.11 0.28 0.39 0.32 0.30 0.39 0.44 0.45 0.51 0.50 0.42 0.40 0.25 0.15 0.08 0.15 0.18 0.13 0.08 0.02 0.06 0.28 0.76 0.58 0.45 0.11 0.17 0.44 0.68 0.61 0.42 0.40 0.66 0.59
0.10 0.10 0.09 0.14 0.17 0.22 0.32 0.46 0.46 0.39 0.40 0.48 0.45 0.43 0.39 0.45 0.30 0.19 0.15 0.10 0.14 0.16 0.15 0.04 0.05 0.13 0.29 0.46 0.41 0.06 0.04 0.10 0.36 0.91 0.79 0.69 0.37 0.19
0.11 0.12 0.08 0.09 0.15 0.25 0.33 0.40 0.45 0.39 0.38 0.34 0.31 0.34 0.33 0.35 0.35 0.26 0.20 0.25 0.13 0.10 0.13 0.05 0.04 0.10 0.19 0.47 0.28 0.07 0.03 0.02 0.06 0.17 0.32 0.91 1.18 1.13
0.16 0.22 0.19 0.16 0.16 0.22 0.31 0.33 0.31 0.28 0.27 0.29 0.29 0.27 0.31 0.35 0.22 0.23 0.23 0.21 0.23 0.26 0.16 0.14 0.07 0.10 0.12 0.19 0.22 0.15 0.06 0.05 0.04 0.11 0.17 0.23 0.38 0.60

GFSNE_prec_precacc_102.txt.gz
Total_Precipitation_Accumulation
0.53 0.52 0.48 0.40 0.39 0.37 0.38 0.44 0.55 0.48 0.30 0.17 0.17 0.20 0.24 0.33 0.49 0.55 0.58 0.73 0.76 0.77 0.78 0.79 0.77 0.71 0.64 0.62 0.62 0.59 0.51 0.47 0.41 0.42 0.49 0.60 0.76 1.03
0.68 0.70 0.71 0.68 0.62 0.52 0.48 0.47 0.56 0.68 0.76 0.51 0.52 0.59 0.65 0.69 0.76 0.63 0.54 0.59 0.55 0.59 0.62 0.64 0.62 0.55 0.51 0.49 0.51 0.47 0.46 0.46 0.48 0.53 0.62 0.74 0.82 0.91
0.76 0.68 0.64 0.73 0.99 1.02 0.94 0.94 1.09 1.27 1.37 1.17 0.85 0.74 0.66 0.61 0.62 0.51 0.44 0.39 0.41 0.58 0.52 0.52 0.47 0.38 0.35 0.32 0.31 0.30 0.29 0.32 0.39 0.47 0.56 0.68 0.76 0.80
0.65 0.68 0.60 0.53 0.52 0.49 0.47 0.51 0.58 0.71 0.91 0.95 0.88 0.85 0.79 0.73 0.67 0.53 0.42 0.34 0.30 0.40 0.34 0.25 0.18 0.15 0.15 0.15 0.17 0.19 0.22 0.25 0.28 0.32 0.34 0.36 0.40 0.45
0.54 0.48 0.41 0.46 0.48 0.53 0.51 0.53 0.55 0.61 0.68 0.70 0.69 0.61 0.55 0.53 0.47 0.34 0.29 0.24 0.20 0.23 0.16 0.12 0.10 0.09 0.09 0.12 0.13 0.14 0.13 0.11 0.11 0.10 0.10 0.11 0.18 0.29
0.36 0.47 0.52 0.58 0.58 0.60 0.62 0.63 0.64 0.67 0.62 0.56 0.50 0.40 0.29 0.23 0.19 0.15 0.11 0.06 0.04 0.03 0.03 0.02 0.02 0.01 0.02 0.03 0.02 0.01 0.00 0.01 0.01 0.01 0.03 0.05 0.08 0.16
0.27 0.31 0.33 0.46 0.57 0.59 0.66 0.68 0.74 0.84 0.86 0.81 0.64 0.52 0.35 0.20 0.13 0.06 0.07 0.05 0.02 0.00 0.00 0.00 0.00 0.00 0.00 0.00 0.00 0.00 0.00 0.01 0.03 0.07 0.11 0.14 0.16 0.19
0.28 0.36 0.45 0.59 0.53 0.51 0.46 0.41 0.40 0.54 0.67 0.68 0.61 0.43 0.31 0.26 0.22 0.17 0.15 0.11 0.06 0.00 0.00 0.00 0.00 0.00 0.00 0.00 0.00 0.01 0.01 0.02 0.03 0.06 0.09 0.12 0.13 0.15
0.48 0.45 0.37 0.35 0.35 0.29 0.29 0.31 0.34 0.31 0.31 0.26 0.20 0.14 0.13 0.15 0.22 0.22 0.14 0.12 0.06 0.00 0.02 0.02 0.00 0.00 0.00 0.00 0.00 0.00 0.01 0.01 0.02 0.05 0.09 0.10 0.11 0.12
0.45 0.40 0.33 0.26 0.19 0.14 0.16 0.21 0.11 0.08 0.12 0.16 0.17 0.23 0.32 0.35 0.37 0.42 0.28 0.16 0.04 0.00 0.01 0.04 0.00 0.00 0.00 0.00 0.00 0.00 0.00 0.01 0.02 0.04 0.08 0.11 0.16 0.19
0.14 0.07 0.03 0.03 0.05 0.09 0.09 0.04 0.02 0.02 0.09 0.15 0.21 0.22 0.22 0.24 0.22 0.24 0.25 0.20 0.15 0.04 0.01 0.01 0.01 0.00 0.00 0.00 0.00 0.00 0.00 0.01 0.01 0.02 0.04 0.05 0.07 0.09
0.00 0.00 0.02 0.02 0.05 0.09 0.04 0.00 0.01 0.01 0.06 0.04 0.03 0.05 0.08 0.11 0.15 0.14 0.18 0.36 0.19 0.15 0.00 0.14 0.07 0.05 0.20 0.01 0.00 0.00 0.00 0.00 0.00 0.01 0.02 0.03 0.06 0.09
0.01 0.01 0.00 0.05 0.07 0.05 0.04 0.01 0.02 0.05 0.05 0.03 0.03 0.03 0.02 0.02 0.05 0.03 0.06 0.25 0.42 0.27 0.00 0.39 0.45 0.05 0.25 0.08 0.00 0.00 0.00 0.00 0.00 0.00 0.01 0.04 0.11 0.22
0.03 0.02 0.03 0.09 0.07 0.05 0.05 0.03 0.06 0.05 0.03 0.03 0.03 0.03 0.02 0.01 0.01 0.00 0.01 0.03 0.10 0.27 0.09 0.19 0.73 0.22 0.43 0.25 0.03 0.00 0.00 0.00 0.00 0.02 0.03 0.08 0.16 0.24
0.04 0.07 0.08 0.11 0.09 0.06 0.06 0.06 0.08 0.04 0.03 0.05 0.05 0.05 0.02 0.01 0.01 0.00 0.00 0.00 0.01 0.01 0.03 0.03 0.26 0.25 0.44 0.46 0.24 0.04 0.07 0.02 0.01 0.08 0.14 0.22 0.25 0.27
0.07 0.13 0.19 0.16 0.15 0.15 0.14 0.11 0.08 0.05 0.07 0.09 0.07 0.03 0.07 0.12 0.07 0.01 0.03 0.01 0.06 0.00 0.00 0.01 0.06 0.24 0.43 0.22 0.37 0.24 0.06 0.20 0.08 0.09 0.22 0.17 0.16 0.23
0.24 0.15 0.19 0.23 0.19 0.14 0.12 0.16 0.17 0.12 0.08 0.09 0.11 0.09 0.04 0.03 0.04 0.04 0.07 0.10 0.12 0.04 0.02 0.00 0.00 0.02 0.09 0.16 0.35 0.13 0.08 0.09 0.19 0.31 0.29 0.24 0.11 0.24
0.33 0.20 0.22 0.15 0.13 0.18 0.23 0.25 0.21 0.21 0.20 0.16 0.13 0.15 0.17 0.09 0.07 0.03 0.04 0.09 0.12 0.04 0.04 0.02 0.02 0.08 0.03 0.01 0.11 0.24 0.27 0.20 0.20 0.23 0.24 0.54 0.26 0.16
0.37 0.10 0.08 0.13 0.20 0.20 0.20 0.33 0.36 0.25 0.32 0.40 0.47 0.45 0.39 0.29 0.14 0.09 0.07 0.08 0.06 0.04 0.04 0.04 0.12 0.33 0.42 0.12 0.03 0.19 0.62 0.46 0.24 0.24 0.28 0.43 0.55 0.41
0.25 0.12 0.09 0.09 0.11 0.29 0.41 0.38 0.41 0.51 0.55 0.55 0.64 0.66 0.65 0.61 0.42 0.29 0.16 0.18 0.19 0.13 0.08 0.02 0.06 0.28 0.76 0.58 0.45 0.11 0.17 0.44 0.68 0.61 0.42 0.40 0.66 0.59
0.10 0.11 0.10 0.14 0.18 0.23 0.34 0.50 0.57 0.53 0.51 0.57 0.55 0.55 0.53 0.62 0.44 0.32 0.28 0.21 0.20 0.18 0.15 0.04 0.05 0.13 0.29 0.46 0.41 0.06 0.04 0.10 0.36 0.91 0.79 0.69 0.37 0.19
0.11 0.13 0.09 0.09 0.15 0.26 0.35 0.43 0.50 0.52 0.52 0.44 0.39 0.43 0.43 0.47 0.46 0.35 0.31 0.36 0.22 0.14 0.13 0.06 0.05 0.10 0.19 0.47 0.28 0.07 0.03 0.02 0.06 0.17 0.32 0.91 1.18 1.13
0.16 0.22 0.19 0.16 0.17 0.23 0.32 0.35 0.35 0.33 0.36 0.40 0.39 0.36 0.39 0.47 0.32 0.33 0.34 0.31 0.32 0.37 0.22 0.17 0.08 0.10 0.12 0.19 0.22 0.15 0.06 0.05 0.04 0.11 0.17 0.23 0.38 0.60

GFSNE_prec_precacc_105.txt.gz
Total_Precipitation_Accumulation
0.67 0.63 0.55 0.46 0.45 0.46 0.47 0.56 0.67 0.59 0.34 0.18 0.18 0.21 0.24 0.34 0.50 0.56 0.59 0.76 0.78 0.78 0.79 0.80 0.77 0.71 0.64 0.62 0.62 0.59 0.51 0.47 0.41 0.42 0.49 0.60 0.76 1.03
0.82 0.79 0.78 0.72 0.67 0.57 0.54 0.55 0.68 0.83 0.88 0.53 0.52 0.60 0.65 0.70 0.78 0.66 0.60 0.69 0.61 0.62 0.63 0.64 0.62 0.55 0.51 0.49 0.51 0.47 0.46 0.46 0.48 0.53 0.62 0.74 0.82 0.91
1.22 1.09 0.85 0.81 1.03 1.08 1.01 1.03 1.18 1.37 1.49 1.22 0.86 0.75 0.68 0.63 0.67 0.61 0.54 0.47 0.47 0.62 0.53 0.52 0.47 0.38 0.35 0.32 0.31 0.30 0.29 0.32 0.39 0.47 0.56 0.68 0.76 0.80
0.86 0.94 0.86 0.76 0.71 0.64 0.62 0.66 0.73 0.84 1.05 1.07 0.92 0.88 0.83 0.78 0.75 0.67 0.58 0.47 0.38 0.45 0.37 0.26 0.19 0.15 0.15 0.15 0.17 0.19 0.22 0.25 0.28 0.32 0.34 0.36 0.40 0.45
0.68 0.68 0.62 0.69 0.68 0.70 0.75 0.80 0.81 0.89 0.99 0.97 0.81 0.66 0.60 0.60 0.57 0.48 0.45 0.39 0.29 0.30 0.20 0.13 0.10 0.09 0.09 0.12 0.13 0.14 0.13 0.11 0.11 0.10 0.10 0.11 0.18 0.29
0.36 0.48 0.58 0.72 0.81 0.92 0.96 0.91 0.92 0.95 0.88 0.79 0.64 0.47 0.35 0.30 0.26 0.21 0.18 0.12 0.09 0.07 0.05 0.02 0.02 0.01 0.02 0.03 0.02 0.01 0.00 0.01 0.01 0.01 0.03 0.05 0.08 0.16
0.27 0.31 0.33 0.46 0.57 0.62 0.77 0.85 0.96 1.07 1.16 1.12 0.87 0.67 0.43 0.26 0.18 0.11 0.12 0.11 0.10 0.04 0.01 0.00 0.00 0.00 0.00 0.00 0.00 0.00 0.00 0.01 0.03 0.07 0.11 0.14 0.16 0.19
0.28 0.36 0.45 0.59 0.53 0.51 0.46 0.42 0.42 0.58 0.73 0.78 0.79 0.66 0.52 0.45 0.47 0.46 0.46 0.42 0.30 0.07 0.03 0.01 0.00 0.00 0.00 0.00 0.00 0.01 0.01 0.02 0.03 0.06 0.09 0.12 0.13 0.15
0.48 0.45 0.37 0.35 0.35 0.29 0.29 0.31 0.34 0.34 0.35 0.30 0.23 0.16 0.18 0.22 0.33 0.38 0.35 0.34 0.25 0.14 0.16 0.10 0.01 0.00 0.00 0.00 0.00 0.00 0.01 0.01 0.02 0.05 0.09 0.10 0.11 0.12
0.45 0.40 0.33 0.26 0.19 0.14 0.16 0.21 0.11 0.08 0.13 0.19 0.19 0.24 0.34 0.39 0.47 0.57 0.44 0.31 0.18 0.12 0.12 0.10 0.01 0.00 0.00 0.00 0.00 0.00 0.00 0.01 0.02 0.04 0.08 0.11 0.16 0.19
0.14 0.07 0.03 0.03 0.05 0.09 0.09 0.04 0.02 0.02 0.09 0.16 0.24 0.29 0.29 0.28 0.27 0.33 0.41 0.41 0.38 0.22 0.15 0.11 0.06 0.01 0.00 0.00 0.00 0.00 0.00 0.01 0.01 0.02 0.04 0.05 0.07 0.09
0.00 0.00 0.02 0.02 0.06 0.10 0.05 0.01 0.01 0.01 0.06 0.05 0.05 0.07 0.11 0.14 0.18 0.18 0.24 0.47 0.34 0.33 0.17 0.29 0.17 0.10 0.20 0.01 0.00 0.00 0.00 0.00 0.00 0.01 0.02 0.03 0.06 0.09
0.01 0.01 0.00 0.05 0.08 0.06 0.05 0.01 0.03 0.06 0.05 0.04 0.05 0.07 0.07 0.08 0.09 0.08 0.09 0.30 0.49 0.36 0.12 0.53 0.54 0.09 0.25 0.08 0.00 0.00 0.00 0.00 0.00 0.00 0.01 0.04 0.11 0.22
0.03 0.02 0.03 0.10 0.08 0.05 0.05 0.03 0.08 0.08 0.04 0.03 0.04 0.06 0.09 0.08 0.09 0.07 0.06 0.08 0.15 0.31 0.11 0.21 0.75 0.23 0.43 0.25 0.03 0.00 0.00 0.00 0.00 0.02 0.03 0.08 0.16 0.24
0.04 0.07 0.08 0.11 0.09 0.06 0.06 0.06 0.09 0.06 0.04 0.07 0.08 0.08 0.07 0.07 0.08 0.11 0.12 0.06 0.03 0.05 0.06 0.04 0.26 0.25 0.44 0.46 0.24 0.04 0.07 0.02 0.01 0.08 0.14 0.22 0.25 0.27
0.07 0.13 0.19 0.16 0.15 0.15 0.15 0.11 0.09 0.08 0.11 0.13 0.13 0.13 0.18 0.27 0.27 0.20 0.14 0.12 0.15 0.04 0.01 0.01 0.06 0.24 0.43 0.22 0.37 0.24 0.06 0.20 0.08 0.09 0.22 0.17 0.16 0.23
0.25 0.15 0.20 0.23 0.19 0.15 0.12 0.16 0.19 0.16 0.14 0.13 0.16 0.17 0.17 0.20 0.27 0.30 0.29 0.20 0.19 0.11 0.06 0.00 0.00 0.02 0.09 0.16 0.35 0.13 0.08 0.09 0.19 0.31 0.29 0.24 0.11 0.24
0.34 0.20 0.22 0.15 0.13 0.19 0.23 0.25 0.22 0.25 0.24 0.21 0.18 0.22 0.28 0.23 0.22 0.21 0.22 0.31 0.28 0.09 0.05 0.02 0.02 0.08 0.03 0.01 0.11 0.24 0.27 0.20 0.20 0.23 0.24 0.54 0.26 0.16
0.38 0.10 0.08 0.13 0.21 0.21 0.21 0.33 0.37 0.27 0.37 0.46 0.56 0.54 0.51 0.46 0.35 0.27 0.22 0.24 0.21 0.24 0.19 0.08 0.12 0.33 0.42 0.12 0.03 0.19 0.62 0.46 0.24 0.24 0.28 0.43 0.55 0.41
0.25 0.12 0.09 0.09 0.12 0.30 0.41 0.38 0.42 0.54 0.60 0.62 0.75 0.78 0.77 0.74 0.54 0.41 0.31 0.31 0.31 0.22 0.18 0.14 0.10 0.28 0.76 0.58 0.45 0.11 0.17 0.44 0.68 0.61 0.42 0.40 0.66 0.59
0.10 0.11 0.10 0.15 0.18 0.23 0.34 0.52 0.60 0.56 0.57 0.63 0.62 0.64 0.62 0.73 0.54 0.41 0.38 0.31 0.28 0.26 0.21 0.07 0.06 0.13 0.29 0.46 0.41 0.06 0.04 0.10 0.36 0.91 0.79 0.69 0.37 0.19
0.11 0.13 0.09 0.09 0.16 0.27 0.35 0.44 0.52 0.53 0.56 0.49 0.45 0.49 0.52 0.56 0.54 0.45 0.42 0.48 0.31 0.20 0.18 0.12 0.08 0.11 0.19 0.47 0.28 0.07 0.03 0.02 0.06 0.17 0.32 0.91 1.18 1.13
0.16 0.22 0.19 0.16 0.17 0.23 0.32 0.35 0.37 0.34 0.38 0.44 0.47 0.46 0.50 0.57 0.40 0.41 0.44 0.45 0.44 0.49 0.32 0.28 0.14 0.12 0.12 0.20 0.23 0.16 0.06 0.05 0.04 0.11 0.17 0.23 0.38 0.60

GFSNE_prec_precacc_108.txt.gz
Total_Precipitation_Accumulation
0.72 0.71 0.70 0.60 0.56 0.56 0.60 0.67 0.79 0.68 0.37 0.18 0.18 0.21 0.26 0.36 0.54 0.61 0.62 0.78 0.79 0.78 0.79 0.80 0.78 0.71 0.64 0.62 0.62 0.59 0.51 0.47 0.41 0.42 0.49 0.60 0.76 1.03
1.04 0.98 0.93 0.82 0.78 0.71 0.71 0.72 0.84 0.97 0.94 0.54 0.52 0.61 0.69 0.77 0.84 0.72 0.63 0.72 0.62 0.63 0.64 0.65 0.63 0.56 0.52 0.49 0.51 0.47 0.46 0.46 0.48 0.53 0.62 0.74 0.82 0.91
1.26 1.24 1.12 1.16 1.41 1.34 1.20 1.20 1.35 1.50 1.59 1.25 0.87 0.75 0.69 0.64 0.69 0.65 0.61 0.52 0.51 0.67 0.57 0.54 0.48 0.39 0.36 0.32 0.31 0.30 0.29 0.32 0.39 0.47 0.56 0.68 0.76 0.80
0.89 1.01 0.96 0.94 0.95 0.90 0.86 0.87 0.88 0.96 1.17 1.15 0.94 0.89 0.83 0.78 0.75 0.69 0.63 0.55 0.47 0.58 0.46 0.31 0.22 0.17 0.16 0.15 0.17 0.19 0.22 0.25 0.28 0.32 0.34 0.36 0.40 0.45
0.68 0.70 0.65 0.76 0.80 0.88 0.98 1.07 1.06 1.08 1.17 1.16 0.94 0.74 0.64 0.62 0.60 0.54 0.53 0.51 0.44 0.50 0.33 0.21 0.16 0.12 0.10 0.13 0.13 0.14 0.13 0.11 0.11 0.10 0.10 0.11 0.18 0.29
0.36 0.48 0.58 0.72 0.84 0.96 1.04 1.01 1.05 1.13 1.08 1.01 0.82 0.60 0.43 0.37 0.33 0.27 0.26 0.23 0.22 0.24 0.19 0.12 0.09 0.05 0.04 0.04 0.02 0.01 0.00 0.01 0.01 0.01 0.03 0.05 0.08 0.16
0.27 0.31 0.33 0.46 0.57 0.62 0.77 0.86 0.99 1.17 1.29 1.28 1.01 0.77 0.50 0.31 0.21 0.14 0.16 0.18 0.22 0.17 0.11 0.07 0.04 0.02 0.00 0.01 0.00 0.00 0.00 0.01 0.03 0.07 0.11 0.14 0.16 0.19
0.28 0.36 0.45 0.59 0.53 0.51 0.46 0.42 0.42 0.58 0.76 0.83 0.83 0.69 0.55 0.50 0.55 0.58 0.57 0.53 0.43 0.14 0.09 0.06 0.02 0.00 0.00 0.00 0.00 0.01 0.01 0.02 0.03 0.06 0.09 0.12 0.13 0.15
0.48 0.45 0.37 0.35 0.35 0.29 0.29 0.31 0.34 0.34 0.36 0.32 0.27 0.19 0.20 0.25 0.40 0.50 0.51 0.47 0.38 0.22 0.29 0.26 0.14 0.05 0.01 0.00 0.00 0.00 0.01 0.01 0.02 0.05 0.09 0.10 0.11 0.12
0.45 0.40 0.33 0.26 0.19 0.14 0.16 0.21 0.11 0.08 0.13 0.19 0.20 0.27 0.37 0.41 0.52 0.65 0.55 0.46 0.36 0.27 0.25 0.23 0.10 0.08 0.04 0.01 0.01 0.00 0.00 0.01 0.02 0.04 0.08 0.11 0.16 0.19
0.14 0.07 0.03 0.03 0.05 0.09 0.09 0.05 0.02 0.02 0.09 0.16 0.24 0.29 0.32 0.33 0.31 0.38 0.56 0.63 0.57 0.35 0.26 0.20 0.13 0.11 0.08 0.04 0.01 0.00 0.01 0.01 0.01 0.02 0.04 0.05 0.07 0.09
0.00 0.00 0.02 0.02 0.06 0.10 0.05 0.01 0.02 0.01 0.06 0.05 0.05 0.08 0.11 0.16 0.22 0.22 0.28 0.51 0.39 0.38 0.23 0.36 0.26 0.25 0.38 0.10 0.02 0.01 0.00 0.00 0.00 0.01 0.02 0.03 0.06 0.09
0.01 0.01 0.00 0.05 0.08 0.06 0.05 0.01 0.03 0.06 0.06 0.04 0.05 0.07 0.07 0.09 0.11 0.11 0.12 0.34 0.57 0.41 0.15 0.59 0.62 0.23 0.38 0.14 0.04 0.02 0.00 0.00 0.00 0.00 0.01 0.04 0.11 0.22
0.03 0.02 0.03 0.10 0.08 0.05 0.05 0.04 0.08 0.08 0.04 0.04 0.04 0.07 0.10 0.10 0.10 0.10 0.12 0.13 0.17 0.32 0.14 0.26 0.80 0.31 0.51 0.30 0.08 0.04 0.00 0.00 0.00 0.02 0.03 0.08 0.16 0.24
0.04 0.07 0.08 0.11 0.09 0.06 0.07 0.06 0.10 0.07 0.05 0.08 0.09 0.08 0.07 0.08 0.14 0.21 0.23 0.19 0.19 0.13 0.12 0.08 0.29 0.28 0.48 0.49 0.25 0.05 0.07 0.02 0.01 0.08 0.14 0.22 0.25 0.27
0.08 0.13 0.20 0.16 0.16 0.15 0.15 0.11 0.10 0.09 0.13 0.15 0.15 0.14 0.20 0.30 0.32 0.28 0.32 0.31 0.35 0.29 0.16 0.12 0.15 0.28 0.46 0.23 0.37 0.24 0.06 0.20 0.08 0.09 0.22 0.17 0.16 0.23
0.27 0.16 0.21 0.24 0.20 0.15 0.12 0.17 0.19 0.17 0.15 0.15 0.18 0.19 0.21 0.28 0.33 0.39 0.42 0.44 0.44 0.33 0.28 0.17 0.07 0.12 0.15 0.18 0.35 0.13 0.08 0.09 0.19 0.31 0.29 0.24 0.11 0.24
0.36 0.23 0.23 0.16 0.13 0.19 0.24 0.26 0.23 0.26 0.25 0.24 0.21 0.25 0.32 0.31 0.34 0.32 0.35 0.46 0.53 0.38 0.31 0.27 0.18 0.13 0.10 0.09 0.13 0.24 0.27 0.20 0.20 0.23 0.24 0.54 0.26 0.16
0.40 0.11 0.08 0.13 0.21 0.22 0.22 0.34 0.38 0.27 0.38 0.49 0.60 0.58 0.57 0.55 0.49 0.43 0.39 0.43 0.39 0.46 0.51 0.36 0.40 0.54 0.51 0.16 0.04 0.19 0.62 0.46 0.24 0.24 0.28 0.43 0.55 0.41
0.26 0.13 0.10 0.09 0.12 0.30 0.42 0.39 0.43 0.55 0.61 0.65 0.78 0.82 0.82 0.80 0.64 0.52 0.43 0.45 0.47 0.42 0.39 0.44 0.41 0.51 0.96 0.70 0.47 0.11 0.17 0.44 0.68 0.61 0.42 0.40 0.66 0.59
0.11 0.11 0.10 0.15 0.19 0.24 0.35 0.53 0.60 0.57 0.58 0.66 0.65 0.69 0.69 0.81 0.61 0.48 0.47 0.42 0.37 0.42 0.42 0.24 0.24 0.36 0.46 0.55 0.47 0.07 0.04 0.10 0.36 0.91 0.79 0.69 0.37 0.19
0.12 0.13 0.09 0.10 0.16 0.28 0.36 0.45 0.53 0.54 0.56 0.51 0.48 0.54 0.58 0.64 0.62 0.51 0.49 0.56 0.38 0.28 0.30 0.28 0.28 0.31 0.37 0.56 0.31 0.08 0.03 0.02 0.06 0.17 0.32 0.91 1.18 1.13
0.16 0.23 0.20 0.17 0.17 0.23 0.33 0.36 0.37 0.35 0.39 0.46 0.49 0.49 0.54 0.61 0.44 0.49 0.54 0.54 0.50 0.56 0.41 0.40 0.29 0.22 0.19 0.29 0.27 0.18 0.08 0.05 0.04 0.11 0.17 0.23 0.38 0.60

GFSNE_prec_precacc_111.txt.gz
Total_Precipitation_Accumulation
0.77 0.79 0.80 0.69 0.65 0.63 0.66 0.74 0.88 0.79 0.44 0.19 0.19 0.22 0.26 0.36 0.54 0.61 0.63 0.79 0.81 0.79 0.80 0.80 0.78 0.72 0.65 0.65 0.68 0.65 0.57 0.49 0.41 0.42 0.49 0.60 0.76 1.03
1.07 1.04 1.02 0.97 0.94 0.84 0.80 0.83 1.00 1.15 1.11 0.58 0.54 0.63 0.71 0.78 0.84 0.72 0.63 0.73 0.63 0.64 0.65 0.66 0.64 0.56 0.52 0.51 0.54 0.50 0.47 0.47 0.48 0.53 0.62 0.74 0.82 0.91
1.26 1.25 1.13 1.18 1.47 1.53 1.48 1.50 1.62 1.72 1.82 1.31 0.88 0.78 0.72 0.67 0.71 0.66 0.62 0.53 0.51 0.67 0.57 0.54 0.49 0.40 0.37 0.34 0.33 0.32 0.31 0.33 0.39 0.47 0.56 0.68 0.76 0.80
0.89 1.02 0.97 0.96 0.99 0.96 1.02 1.11 1.19 1.26 1.45 1.33 1.02 0.96 0.90 0.82 0.79 0.74 0.66 0.56 0.47 0.59 0.46 0.32 0.24 0.21 0.22 0.22 0.23 0.23 0.25 0.27 0.29 0.32 0.34 0.36 0.40 0.45
0.68 0.70 0.65 0.76 0.81 0.91 1.05 1.18 1.23 1.34 1.48 1.43 1.11 0.88 0.72 0.65 0.65 0.60 0.56 0.53 0.45 0.52 0.37 0.26 0.22 0.20 0.19 0.22 0.21 0.19 0.16 0.12 0.11 0.10 0.10 0.11 0.18 0.29
0.36 0.48 0.58 0.72 0.84 0.97 1.04 1.03 1.09 1.19 1.17 1.16 0.96 0.69 0.48 0.39 0.39 0.32 0.29 0.24 0.25 0.28 0.28 0.21 0.21 0.19 0.18 0.14 0.11 0.08 0.04 0.02 0.01 0.01 0.03 0.05 0.08 0.16
0.27 0.31 0.33 0.46 0.57 0.62 0.77 0.86 0.99 1.17 1.30 1.29 1.02 0.78 0.52 0.33 0.24 0.17 0.21 0.21 0.24 0.20 0.15 0.14 0.12 0.10 0.08 0.07 0.05 0.04 0.02 0.01 0.03 0.07 0.11 0.14 0.16 0.19
0.28 0.36 0.45 0.59 0.53 0.51 0.46 0.42 0.42 0.59 0.76 0.83 0.84 0.70 0.56 0.51 0.56 0.60 0.60 0.56 0.45 0.16 0.11 0.08 0.04 0.02 0.01 0.01 0.02 0.02 0.02 0.02 0.03 0.06 0.09 0.12 0.13 0.15
0.48 0.45 0.37 0.35 0.35 0.29 0.29 0.31 0.34 0.34 0.36 0.32 0.28 0.20 0.21 0.26 0.41 0.53 0.54 0.50 0.39 0.22 0.31 0.28 0.15 0.06 0.02 0.01 0.01 0.01 0.01 0.01 0.02 0.05 0.09 0.10 0.11 0.12
0.45 0.40 0.33 0.26 0.19 0.14 0.16 0.21 0.11 0.08 0.13 0.19 0.20 0.27 0.38 0.42 0.53 0.68 0.58 0.50 0.45 0.35 0.31 0.29 0.12 0.10 0.06 0.03 0.04 0.01 0.01 0.01 0.02 0.04 0.08 0.11 0.16 0.19
0.14 0.07 0.03 0.03 0.05 0.09 0.09 0.05 0.02 0.02 0.09 0.16 0.24 0.30 0.32 0.33 0.32 0.40 0.58 0.67 0.63 0.41 0.31 0.29 0.16 0.14 0.11 0.09 0.07 0.06 0.02 0.02 0.01 0.02 0.04 0.05 0.07 0.09
0.00 0.00 0.02 0.02 0.06 0.10 0.05 0.01 0.02 0.01 0.06 0.05 0.05 0.08 0.11 0.16 0.23 0.23 0.29 0.54 0.42 0.43 0.29 0.45 0.34 0.31 0.50 0.20 0.11 0.10 0.06 0.03 0.01 0.01 0.02 0.03 0.06 0.09
0.01 0.01 0.00 0.05 0.08 0.06 0.05 0.01 0.03 0.06 0.06 0.04 0.05 0.07 0.07 0.09 0.11 0.12 0.12 0.38 0.61 0.44 0.17 0.65 0.73 0.37 0.56 0.26 0.10 0.11 0.07 0.04 0.02 0.00 0.01 0.04 0.11 0.22
0.03 0.02 0.03 0.10 0.08 0.05 0.05 0.04 0.08 0.08 0.04 0.04 0.04 0.07 0.10 0.10 0.10 0.10 0.12 0.14 0.21 0.36 0.17 0.33 0.87 0.37 0.59 0.39 0.13 0.08 0.09 0.05 0.04 0.03 0.03 0.08 0.16 0.24
0.04 0.07 0.09 0.11 0.10 0.06 0.07 0.06 0.10 0.07 0.05 0.09 0.10 0.09 0.08 0.08 0.14 0.21 0.23 0.21 0.22 0.19 0.20 0.13 0.35 0.34 0.54 0.59 0.32 0.08 0.14 0.11 0.07 0.11 0.15 0.22 0.25 0.27
0.09 0.14 0.20 0.17 0.16 0.15 0.15 0.11 0.10 0.10 0.13 0.15 0.16 0.14 0.20 0.31 0.33 0.29 0.34 0.34 0.40 0.35 0.23 0.23 0.23 0.33 0.52 0.31 0.44 0.33 0.16 0.28 0.15 0.16 0.25 0.17 0.16 0.23
0.29 0.18 0.21 0.24 0.20 0.15 0.12 0.17 0.19 0.17 0.16 0.15 0.19 0.20 0.22 0.28 0.34 0.40 0.44 0.46 0.49 0.39 0.33 0.25 0.20 0.29 0.27 0.25 0.42 0.21 0.16 0.16 0.25 0.36 0.31 0.25 0.11 0.24
0.37 0.24 0.24 0.17 0.14 0.19 0.24 0.26 0.23 0.26 0.25 0.24 0.21 0.26 0.34 0.34 0.35 0.34 0.39 0.53 0.59 0.43 0.42 0.39 0.32 0.32 0.35 0.31 0.28 0.32 0.32 0.25 0.24 0.25 0.24 0.54 0.26 0.16
0.42 0.12 0.10 0.14 0.22 0.22 0.22 0.35 0.38 0.28 0.39 0.50 0.61 0.59 0.59 0.58 0.54 0.46 0.45 0.50 0.49 0.54 0.58 0.53 0.64 0.79 0.79 0.40 0.30 0.35 0.70 0.49 0.26 0.26 0.29 0.43 0.55 0.41
0.27 0.14 0.11 0.10 0.13 0.31 0.43 0.40 0.44 0.55 0.61 0.65 0.79 0.83 0.85 0.86 0.70 0.57 0.49 0.57 0.60 0.52 0.48 0.57 0.67 0.81 1.22 0.95 0.72 0.33 0.33 0.53 0.70 0.61 0.42 0.40 0.66 0.59
0.12 0.12 0.11 0.16 0.19 0.25 0.36 0.53 0.61 0.58 0.58 0.67 0.66 0.70 0.71 0.86 0.67 0.53 0.52 0.49 0.50 0.56 0.54 0.35 0.38 0.59 0.71 0.78 0.83 0.48 0.33 0.30 0.46 0.92 0.79 0.69 0.37 0.19
0.12 0.14 0.10 0.10 0.17 0.28 0.37 0.45 0.53 0.55 0.57 0.51 0.48 0.55 0.59 0.69 0.69 0.58 0.55 0.62 0.45 0.36 0.44 0.44 0.46 0.50 0.59 0.78 0.50 0.28 0.24 0.20 0.17 0.20 0.32 0.91 1.18 1.13
0.17 0.24 0.20 0.17 0.18 0.24 0.34 0.37 0.38 0.36 0.39 0.46 0.50 0.50 0.55 0.63 0.47 0.54 0.58 0.58 0.56 0.63 0.51 0.54 0.47 0.41 0.35 0.41 0.38 0.28 0.20 0.15 0.09 0.12 0.17 0.23 0.38 0.60

GFSNE_prec_precacc_114.txt.gz
Total_Precipitation_Accumulation
0.79 0.80 0.83 0.73 0.74 0.78 0.87 1.03 1.15 0.93 0.49 0.20 0.19 0.23 0.26 0.37 0.55 0.64 0.65 0.80 0.81 0.80 0.80 0.81 0.82 0.73 0.65 0.66 0.71 0.71 0.68 0.75 0.80 0.61 0.49 0.60 0.76 1.03
1.08 1.06 1.03 0.98 0.95 0.88 0.88 0.93 1.12 1.29 1.21 0.60 0.55 0.65 0.74 0.81 0.88 0.77 0.65 0.75 0.65 0.65 0.65 0.66 0.65 0.57 0.52 0.51 0.54 0.52 0.51 0.51 0.53 0.57 0.62 0.74 0.82 0.91
1.26 1.25 1.13 1.18 1.48 1.54 1.50 1.53 1.67 1.88 2.03 1.43 1.00 0.91 0.84 0.76 0.79 0.76 0.68 0.57 0.53 0.70 0.59 0.57 0.50 0.40 0.37 0.34 0.34 0.34 0.34 0.37 0.43 0.51 0.58 0.68 0.76 0.80
0.89 1.02 0.97 0.96 0.99 0.97 1.03 1.12 1.22 1.34 1.61 1.45 1.08 1.04 1.00 0.90 0.88 0.85 0.79 0.68 0.54 0.62 0.48 0.33 0.24 0.21 0.22 0.22 0.24 0.26 0.28 0.30 0.34 0.37 0.38 0.37 0.40 0.45
0.69 0.70 0.66 0.77 0.81 0.92 1.06 1.19 1.25 1.39 1.57 1.58 1.25 1.07 0.98 0.93 0.91 0.81 0.72 0.67 0.54 0.59 0.43 0.29 0.25 0.22 0.19 0.23 0.24 0.24 0.20 0.18 0.16 0.13 0.12 0.11 0.18 0.29
0.36 0.48 0.58 0.72 0.84 0.97 1.04 1.03 1.09 1.20 1.20 1.20 1.03 0.77 0.59 0.51 0.54 0.44 0.38 0.34 0.31 0.33 0.35 0.25 0.23 0.22 0.21 0.19 0.16 0.15 0.12 0.11 0.09 0.04 0.04 0.05 0.08 0.16
0.27 0.31 0.33 0.46 0.57 0.62 0.77 0.86 1.00 1.17 1.30 1.29 1.03 0.78 0.52 0.34 0.27 0.20 0.24 0.22 0.25 0.20 0.16 0.14 0.12 0.11 0.11 0.12 0.11 0.12 0.15 0.16 0.12 0.10 0.12 0.14 0.16 0.19
0.28 0.36 0.45 0.59 0.53 0.51 0.46 0.42 0.42 0.59 0.76 0.84 0.85 0.71 0.56 0.51 0.57 0.61 0.61 0.57 0.45 0.16 0.11 0.08 0.04 0.03 0.03 0.04 0.07 0.09 0.10 0.11 0.08 0.08 0.10 0.12 0.13 0.15
0.48 0.45 0.37 0.35 0.35 0.29 0.29 0.31 0.34 0.34 0.36 0.32 0.28 0.20 0.21 0.26 0.42 0.54 0.55 0.51 0.40 0.22 0.31 0.29 0.16 0.07 0.02 0.05 0.10 0.06 0.06 0.05 0.04 0.06 0.09 0.11 0.11 0.12
0.45 0.40 0.33 0.26 0.19 0.14 0.16 0.21 0.11 0.08 0.13 0.19 0.20 0.27 0.38 0.42 0.53 0.69 0.59 0.51 0.46 0.35 0.32 0.31 0.13 0.11 0.06 0.04 0.07 0.03 0.03 0.03 0.03 0.05 0.08 0.11 0.16 0.19
0.14 0.07 0.03 0.03 0.05 0.09 0.09 0.05 0.02 0.02 0.09 0.16 0.24 0.30 0.32 0.33 0.32 0.40 0.58 0.67 0.64 0.41 0.31 0.31 0.18 0.17 0.14 0.11 0.08 0.07 0.03 0.03 0.02 0.02 0.04 0.05 0.07 0.09
0.00 0.00 0.02 0.02 0.06 0.10 0.05 0.01 0.02 0.01 0.06 0.05 0.05 0.08 0.11 0.16 0.23 0.23 0.30 0.54 0.43 0.44 0.29 0.46 0.36 0.35 0.59 0.27 0.16 0.14 0.09 0.07 0.03 0.01 0.02 0.03 0.06 0.09
0.01 0.01 0.00 0.05 0.08 0.06 0.05 0.02 0.04 0.07 0.06 0.04 0.05 0.07 0.07 0.09 0.11 0.12 0.13 0.38 0.62 0.46 0.21 0.68 0.74 0.40 0.64 0.35 0.16 0.21 0.16 0.11 0.07 0.03 0.02 0.04 0.11 0.22
0.03 0.02 0.03 0.10 0.08 0.06 0.05 0.04 0.08 0.09 0.04 0.04 0.04 0.07 0.10 0.10 0.10 0.10 0.12 0.14 0.21 0.38 0.21 0.38 0.89 0.38 0.62 0.46 0.22 0.17 0.24 0.18 0.16 0.11 0.07 0.11 0.17 0.24
0.04 0.07 0.09 0.12 0.10 0.07 0.07 0.06 0.10 0.07 0.05 0.09 0.10 0.09 0.08 0.08 0.14 0.21 0.23 0.21 0.22 0.20 0.21 0.16 0.38 0.36 0.56 0.64 0.38 0.14 0.28 0.26 0.18 0.21 0.22 0.26 0.26 0.27
0.09 0.15 0.21 0.18 0.16 0.15 0.15 0.11 0.10 0.10 0.13 0.15 0.16 0.14 0.20 0.31 0.33 0.29 0.34 0.35 0.40 0.35 0.24 0.24 0.26 0.36 0.57 0.36 0.49 0.39 0.24 0.41 0.26 0.23 0.33 0.25 0.19 0.24
0.30 0.18 0.21 0.24 0.21 0.15 0.12 0.17 0.19 0.17 0.16 0.15 0.19 0.20 0.22 0.28 0.34 0.40 0.44 0.47 0.51 0.40 0.33 0.26 0.22 0.32 0.32 0.31 0.47 0.26 0.24 0.25 0.31 0.44 0.46 0.40 0.18 0.27
0.38 0.24 0.24 0.17 0.14 0.19 0.24 0.26 0.23 0.26 0.25 0.24 0.21 0.26 0.34 0.34 0.36 0.34 0.40 0.55 0.61 0.45 0.43 0.40 0.34 0.37 0.43 0.40 0.35 0.35 0.36 0.32 0.32 0.34 0.33 0.67 0.39 0.23
0.43 0.13 0.11 0.15 0.23 0.23 0.23 0.35 0.38 0.28 0.39 0.50 0.61 0.60 0.59 0.59 0.55 0.47 0.46 0.52 0.51 0.55 0.60 0.55 0.67 0.83 0.88 0.50 0.37 0.40 0.73 0.54 0.34 0.35 0.39 0.50 0.61 0.46
0.28 0.16 0.12 0.11 0.13 0.31 0.43 0.40 0.44 0.55 0.61 0.65 0.79 0.83 0.85 0.86 0.71 0.60 0.53 0.62 0.65 0.55 0.52 0.59 0.70 0.89 1.31 0.99 0.76 0.42 0.42 0.57 0.78 0.71 0.54 0.49 0.72 0.63
0.12 0.12 0.11 0.16 0.19 0.25 0.36 0.54 0.62 0.58 0.59 0.67 0.66 0.70 0.71 0.87 0.69 0.56 0.58 0.56 0.58 0.62 0.59 0.39 0.41 0.66 0.89 0.95 0.94 0.59 0.54 0.52 0.63 1.05 0.89 0.80 0.47 0.28
0.12 0.14 0.10 0.10 0.17 0.28 0.37 0.46 0.54 0.55 0.57 0.51 0.49 0.55 0.59 0.70 0.71 0.61 0.60 0.70 0.50 0.42 0.53 0.53 0.56 0.61 0.75 0.98 0.70 0.42 0.44 0.54 0.62 0.56 0.52 1.06 1.28 1.19
0.17 0.24 0.20 0.17 0.18 0.24 0.34 0.38 0.38 0.36 0.40 0.47 0.50 0.51 0.56 0.64 0.48 0.58 0.64 0.64 0.60 0.67 0.59 0.68 0.61 0.54 0.45 0.52 0.57 0.51 0.37 0.36 0.39 0.48 0.46 0.38 0.48 0.62

GFSNE_prec_precacc_117.txt.gz
Total_Precipitation_Accumulation
0.80 0.81 0.83 0.74 0.75 0.81 0.91 1.09 1.29 1.08 0.56 0.22 0.20 0.23 0.26 0.37 0.55 0.64 0.66 0.82 0.83 0.81 0.83 0.85 0.87 0.79 0.71 0.71 0.77 0.77 0.77 0.81 0.85 0.86 0.84 0.88 0.96 1.10
1.08 1.06 1.03 0.98 0.95 0.89 0.89 0.95 1.14 1.32 1.23 0.62 0.56 0.65 0.74 0.81 0.88 0.78 0.66 0.78 0.69 0.69 0.69 0.68 0.66 0.63 0.60 0.58 0.60 0.57 0.55 0.54 0.55 0.62 0.72 0.85 0.93 0.96
1.26 1.25 1.13 1.18 1.48 1.55 1.51 1.55 1.71 1.93 2.08 1.45 1.01 0.92 0.87 0.79 0.83 0.81 0.73 0.61 0.56 0.72 0.61 0.58 0.53 0.46 0.47 0.45 0.42 0.39 0.37 0.39 0.44 0.52 0.60 0.71 0.78 0.82
0.89 1.02 0.97 0.96 0.99 0.97 1.03 1.13 1.23 1.35 1.63 1.46 1.08 1.05 1.02 0.96 0.94 0.93 0.88 0.81 0.69 0.70 0.56 0.39 0.29 0.25 0.26 0.25 0.27 0.28 0.29 0.31 0.34 0.38 0.40 0.41 0.43 0.47
0.69 0.70 0.66 0.77 0.82 0.93 1.07 1.21 1.27 1.39 1.58 1.59 1.25 1.08 1.01 0.98 1.02 0.99 0.93 0.90 0.82 0.94 0.74 0.55 0.47 0.34 0.26 0.27 0.27 0.26 0.21 0.18 0.16 0.14 0.15 0.15 0.20 0.30
0.36 0.48 0.58 0.72 0.84 0.97 1.05 1.04 1.10 1.22 1.21 1.21 1.03 0.77 0.61 0.56 0.66 0.61 0.56 0.50 0.48 0.53 0.58 0.47 0.42 0.34 0.31 0.25 0.19 0.17 0.14 0.12 0.10 0.08 0.10 0.12 0.12 0.19
0.27 0.31 0.33 0.46 0.57 0.62 0.77 0.86 1.00 1.17 1.30 1.29 1.03 0.78 0.52 0.35 0.29 0.26 0.33 0.30 0.31 0.26 0.21 0.19 0.19 0.15 0.12 0.13 0.11 0.12 0.17 0.21 0.24 0.27 0.28 0.26 0.24 0.24
0.28 0.36 0.45 0.59 0.53 0.51 0.46 0.42 0.42 0.59 0.76 0.84 0.85 0.71 0.56 0.51 0.57 0.61 0.61 0.57 0.46 0.18 0.13 0.08 0.05 0.04 0.03 0.04 0.08 0.10 0.12 0.17 0.21 0.26 0.31 0.31 0.27 0.21
0.48 0.45 0.37 0.35 0.35 0.29 0.29 0.31 0.34 0.34 0.36 0.32 0.28 0.20 0.21 0.26 0.42 0.54 0.55 0.51 0.40 0.23 0.31 0.29 0.16 0.07 0.02 0.06 0.11 0.08 0.10 0.12 0.14 0.18 0.25 0.25 0.21 0.17
0.45 0.40 0.33 0.26 0.19 0.14 0.16 0.21 0.11 0.08 0.13 0.19 0.20 0.27 0.38 0.42 0.53 0.69 0.59 0.51 0.46 0.35 0.32 0.32 0.13 0.11 0.06 0.05 0.11 0.06 0.09 0.10 0.12 0.15 0.17 0.17 0.20 0.23
0.14 0.07 0.03 0.03 0.05 0.09 0.09 0.05 0.02 0.02 0.09 0.16 0.24 0.30 0.32 0.33 0.32 0.40 0.58 0.68 0.64 0.41 0.31 0.31 0.18 0.17 0.15 0.11 0.10 0.11 0.06 0.07 0.08 0.08 0.08 0.08 0.08 0.10
0.00 0.00 0.02 0.02 0.06 0.10 0.05 0.01 0.02 0.01 0.06 0.05 0.05 0.08 0.11 0.16 0.23 0.23 0.30 0.55 0.43 0.44 0.29 0.47 0.36 0.36 0.60 0.27 0.16 0.16 0.13 0.13 0.10 0.07 0.05 0.05 0.07 0.09
0.01 0.01 0.00 0.05 0.08 0.07 0.06 0.03 0.04 0.08 0.06 0.04 0.05 0.07 0.07 0.09 0.11 0.12 0.13 0.39 0.62 0.46 0.21 0.68 0.74 0.41 0.66 0.35 0.17 0.23 0.21 0.19 0.17 0.12 0.09 0.07 0.12 0.22
0.03 0.02 0.03 0.10 0.09 0.07 0.07 0.05 0.09 0.10 0.04 0.04 0.04 0.07 0.10 0.10 0.10 0.10 0.12 0.14 0.21 0.38 0.21 0.38 0.89 0.39 0.62 0.47 0.22 0.18 0.28 0.25 0.24 0.22 0.17 0.17 0.21 0.26
0.04 0.08 0.09 0.12 0.10 0.07 0.07 0.06 0.10 0.07 0.05 0.09 0.10 0.09 0.08 0.08 0.14 0.21 0.23 0.21 0.22 0.20 0.21 0.16 0.38 0.36 0.57 0.65 0.39 0.15 0.30 0.30 0.24 0.28 0.30 0.35 0.33 0.31
0.09 0.15 0.22 0.18 0.16 0.15 0.15 0.11 0.10 0.10 0.13 0.15 0.16 0.14 0.20 0.31 0.33 0.29 0.34 0.35 0.40 0.35 0.24 0.25 0.26 0.36 0.57 0.37 0.50 0.40 0.25 0.42 0.28 0.27 0.40 0.33 0.28 0.31
0.30 0.18 0.21 0.24 0.21 0.15 0.12 0.17 0.19 0.17 0.16 0.15 0.19 0.20 0.22 0.28 0.34 0.40 0.44 0.47 0.52 0.41 0.33 0.26 0.22 0.32 0.33 0.32 0.49 0.27 0.25 0.26 0.31 0.46 0.53 0.54 0.30 0.32
0.38 0.25 0.24 0.17 0.14 0.20 0.25 0.26 0.23 0.26 0.25 0.24 0.21 0.26 0.34 0.34 0.36 0.34 0.40 0.56 0.62 0.45 0.43 0.40 0.34 0.39 0.44 0.41 0.38 0.38 0.38 0.33 0.35 0.38 0.38 0.79 0.50 0.30
0.43 0.13 0.11 0.16 0.23 0.23 0.23 0.35 0.38 0.28 0.39 0.50 0.61 0.60 0.59 0.59 0.55 0.47 0.46 0.53 0.51 0.56 0.60 0.56 0.69 0.87 0.93 0.53 0.37 0.42 0.74 0.55 0.36 0.40 0.44 0.58 0.68 0.50
0.28 0.16 0.12 0.11 0.13 0.31 0.43 0.40 0.44 0.55 0.61 0.65 0.79 0.84 0.85 0.87 0.71 0.60 0.53 0.62 0.66 0.56 0.52 0.60 0.72 0.92 1.35 1.01 0.77 0.42 0.42 0.57 0.78 0.73 0.60 0.60 0.82 0.74
0.12 0.12 0.11 0.16 0.19 0.25 0.36 0.54 0.62 0.58 0.59 0.67 0.66 0.70 0.71 0.87 0.69 0.56 0.58 0.57 0.59 0.65 0.62 0.40 0.41 0.68 0.96 1.04 1.06 0.64 0.55 0.55 0.64 1.06 0.92 0.87 0.62 0.47
0.12 0.14 0.10 0.10 0.17 0.28 0.37 0.46 0.54 0.55 0.57 0.51 0.49 0.55 0.60 0.71 0.72 0.62 0.60 0.71 0.51 0.45 0.56 0.55 0.58 0.67 0.82 1.04 0.74 0.45 0.46 0.57 0.69 0.66 0.60 1.12 1.39 1.33
0.17 0.24 0.20 0.17 0.18 0.24 0.34 0.38 0.38 0.36 0.40 0.47 0.51 0.51 0.57 0.65 0.49 0.59 0.65 0.66 0.63 0.71 0.62 0.72 0.68 0.63 0.52 0.56 0.62 0.56 0.45 0.44 0.48 0.62 0.61 0.53 0.62 0.73

GFSNE_prec_precacc_120.txt.gz
Total_Precipitation_Accumulation
0.80 0.81 0.83 0.74 0.75 0.81 0.92 1.10 1.31 1.10 0.57 0.23 0.21 0.23 0.26 0.37 0.56 0.64 0.66 0.82 0.83 0.81 0.83 0.87 0.91 0.85 0.80 0.83 0.88 0.91 0.94 1.00 1.03 1.06 0.98 0.95 1.03 1.22
1.08 1.06 1.03 0.99 0.96 0.89 0.89 0.95 1.15 1.33 1.24 0.62 0.56 0.65 0.74 0.81 0.88 0.78 0.66 0.78 0.69 0.71 0.71 0.70 0.69 0.65 0.63 0.62 0.67 0.66 0.67 0.66 0.67 0.72 0.81 0.92 0.97 1.02
1.26 1.25 1.13 1.18 1.48 1.55 1.51 1.55 1.71 1.93 2.08 1.45 1.01 0.92 0.87 0.79 0.83 0.81 0.73 0.61 0.57 0.74 0.62 0.60 0.56 0.50 0.51 0.50 0.49 0.49 0.48 0.49 0.54 0.61 0.67 0.78 0.83 0.90
0.89 1.02 0.97 0.96 0.99 0.97 1.03 1.13 1.24 1.36 1.63 1.46 1.08 1.05 1.02 0.96 0.94 0.94 0.89 0.83 0.76 0.92 0.80 0.58 0.42 0.31 0.30 0.28 0.30 0.33 0.36 0.39 0.42 0.45 0.46 0.47 0.48 0.50
0.69 0.70 0.66 0.77 0.82 0.93 1.07 1.21 1.27 1.40 1.58 1.59 1.25 1.08 1.01 0.98 1.02 0.99 0.94 0.90 0.84 0.98 0.85 0.69 0.66 0.58 0.45 0.41 0.37 0.32 0.26 0.22 0.19 0.17 0.17 0.18 0.23 0.32
0.36 0.48 0.58 0.72 0.84 0.97 1.05 1.04 1.10 1.22 1.23 1.23 1.04 0.78 0.61 0.57 0.67 0.62 0.56 0.51 0.49 0.56 0.62 0.53 0.54 0.51 0.48 0.42 0.37 0.29 0.22 0.20 0.17 0.14 0.13 0.14 0.15 0.21
0.27 0.31 0.33 0.46 0.57 0.62 0.77 0.86 1.00 1.17 1.30 1.29 1.03 0.78 0.53 0.35 0.29 0.26 0.33 0.31 0.34 0.33 0.31 0.32 0.31 0.25 0.22 0.23 0.20 0.23 0.26 0.30 0.32 0.35 0.34 0.31 0.30 0.30
0.28 0.36 0.45 0.59 0.53 0.51 0.46 0.42 0.42 0.59 0.76 0.84 0.85 0.71 0.56 0.51 0.57 0.61 0.61 0.57 0.46 0.19 0.15 0.12 0.12 0.10 0.12 0.14 0.19 0.19 0.18 0.20 0.23 0.29 0.37 0.39 0.37 0.35
0.48 0.45 0.37 0.35 0.35 0.29 0.29 0.31 0.34 0.34 0.36 0.32 0.28 0.20 0.21 0.26 0.42 0.54 0.55 0.51 0.40 0.23 0.32 0.29 0.16 0.07 0.04 0.09 0.15 0.10 0.12 0.14 0.15 0.20 0.34 0.38 0.43 0.45
0.45 0.40 0.33 0.26 0.19 0.14 0.16 0.21 0.11 0.08 0.13 0.19 0.20 0.27 0.38 0.42 0.53 0.69 0.59 0.51 0.46 0.35 0.32 0.32 0.13 0.12 0.06 0.05 0.11 0.07 0.10 0.11 0.13 0.16 0.22 0.29 0.42 0.50
0.14 0.07 0.03 0.03 0.05 0.09 0.09 0.05 0.02 0.02 0.09 0.16 0.24 0.30 0.32 0.33 0.32 0.40 0.58 0.68 0.65 0.41 0.31 0.31 0.19 0.17 0.15 0.11 0.10 0.11 0.07 0.08 0.09 0.12 0.15 0.18 0.21 0.27
0.00 0.00 0.02 0.02 0.06 0.10 0.06 0.01 0.02 0.01 0.06 0.05 0.05 0.08 0.11 0.16 0.23 0.23 0.30 0.55 0.44 0.45 0.29 0.47 0.37 0.36 0.61 0.27 0.16 0.16 0.13 0.14 0.13 0.11 0.10 0.11 0.16 0.16
0.01 0.01 0.00 0.05 0.08 0.07 0.07 0.04 0.06 0.09 0.07 0.05 0.05 0.07 0.07 0.09 0.11 0.12 0.13 0.39 0.62 0.46 0.21 0.68 0.75 0.41 0.66 0.36 0.17 0.23 0.21 0.19 0.20 0.17 0.14 0.16 0.21 0.26
0.03 0.02 0.03 0.10 0.09 0.08 0.08 0.05 0.10 0.10 0.05 0.04 0.04 0.07 0.10 0.10 0.10 0.10 0.12 0.14 0.21 0.38 0.21 0.38 0.89 0.39 0.63 0.47 0.22 0.18 0.28 0.25 0.25 0.24 0.21 0.27 0.28 0.32
0.04 0.08 0.10 0.12 0.11 0.08 0.07 0.07 0.11 0.07 0.05 0.09 0.10 0.09 0.08 0.08 0.14 0.21 0.23 0.21 0.22 0.20 0.21 0.16 0.38 0.36 0.57 0.65 0.40 0.15 0.30 0.30 0.24 0.31 0.36 0.41 0.38 0.34
0.09 0.15 0.22 0.19 0.17 0.15 0.15 0.11 0.10 0.10 0.14 0.16 0.16 0.15 0.20 0.31 0.33 0.29 0.34 0.35 0.40 0.35 0.24 0.25 0.26 0.37 0.57 0.37 0.51 0.40 0.25 0.43 0.28 0.28 0.45 0.44 0.36 0.35
0.31 0.19 0.22 0.24 0.21 0.15 0.12 0.17 0.19 0.17 0.16 0.15 0.19 0.20 0.22 0.28 0.34 0.40 0.44 0.47 0.53 0.41 0.33 0.26 0.22 0.32 0.33 0.33 0.50 0.28 0.25 0.27 0.32 0.46 0.55 0.60 0.40 0.39
0.38 0.25 0.24 0.17 0.15 0.20 0.25 0.27 0.23 0.26 0.25 0.24 0.21 0.26 0.34 0.34 0.36 0.34 0.40 0.56 0.62 0.45 0.43 0.40 0.34 0.39 0.45 0.42 0.39 0.38 0.39 0.34 0.35 0.38 0.39 0.82 0.56 0.36
0.43 0.13 0.11 0.16 0.24 0.24 0.23 0.35 0.38 0.28 0.39 0.50 0.61 0.60 0.59 0.59 0.55 0.48 0.46 0.53 0.52 0.56 0.60 0.56 0.70 0.89 0.97 0.55 0.38 0.42 0.74 0.55 0.37 0.41 0.45 0.59 0.70 0.52
0.28 0.16 0.12 0.11 0.13 0.31 0.43 0.40 0.44 0.55 0.61 0.65 0.79 0.84 0.86 0.87 0.72 0.60 0.53 0.63 0.66 0.57 0.53 0.60 0.73 0.92 1.39 1.03 0.78 0.43 0.42 0.58 0.79 0.74 0.61 0.62 0.86 0.79
0.12 0.12 0.11 0.16 0.19 0.25 0.36 0.54 0.62 0.58 0.59 0.68 0.67 0.71 0.71 0.87 0.69 0.56 0.59 0.57 0.60 0.66 0.62 0.40 0.41 0.68 0.99 1.10 1.14 0.66 0.55 0.55 0.66 1.08 0.94 0.91 0.68 0.53
0.12 0.14 0.10 0.10 0.17 0.28 0.37 0.47 0.55 0.55 0.57 0.51 0.49 0.55 0.60 0.71 0.72 0.62 0.61 0.71 0.52 0.45 0.56 0.55 0.58 0.68 0.87 1.11 0.77 0.45 0.46 0.57 0.70 0.71 0.65 1.16 1.46 1.39
0.17 0.24 0.20 0.17 0.18 0.25 0.35 0.38 0.39 0.36 0.40 0.47 0.51 0.51 0.57 0.66 0.49 0.59 0.65 0.66 0.64 0.72 0.63 0.73 0.68 0.64 0.56 0.60 0.64 0.58 0.46 0.45 0.50 0.67 0.71 0.63 0.64 0.74

GFSNE_prec_precacc_126.txt.gz
Total_Precipitation_Accumulation
0.95 0.99 1.04 0.96 0.95 0.97 1.09 1.30 1.49 1.25 0.66 0.30 0.26 0.24 0.27 0.37 0.57 0.64 0.66 0.82 0.83 0.82 0.84 0.88 0.91 0.85 0.80 0.84 0.90 0.94 1.00 1.10 1.21 1.29 1.31 1.36 1.42 1.59
1.09 1.08 1.08 1.05 1.00 0.93 0.94 1.01 1.23 1.41 1.28 0.64 0.57 0.66 0.74 0.81 0.88 0.78 0.66 0.78 0.69 0.71 0.71 0.70 0.69 0.65 0.63 0.62 0.68 0.67 0.69 0.70 0.75 0.85 0.99 1.15 1.22 1.27
1.26 1.25 1.13 1.19 1.48 1.55 1.51 1.55 1.71 1.93 2.08 1.45 1.01 0.92 0.87 0.79 0.83 0.81 0.73 0.61 0.57 0.74 0.63 0.61 0.57 0.51 0.52 0.52 0.51 0.51 0.49 0.50 0.56 0.67 0.77 0.92 1.03 1.10
0.89 1.02 0.97 0.96 0.99 0.97 1.03 1.13 1.24 1.36 1.63 1.46 1.08 1.05 1.02 0.96 0.94 0.94 0.89 0.83 0.76 0.92 0.80 0.58 0.42 0.32 0.31 0.31 0.35 0.37 0.40 0.44 0.47 0.50 0.52 0.55 0.59 0.64
0.69 0.70 0.66 0.77 0.82 0.93 1.07 1.21 1.27 1.40 1.58 1.59 1.25 1.08 1.01 0.98 1.02 0.99 0.94 0.90 0.84 0.98 0.85 0.69 0.67 0.60 0.49 0.46 0.42 0.37 0.28 0.24 0.24 0.26 0.30 0.31 0.33 0.42
0.36 0.48 0.58 0.72 0.84 0.97 1.05 1.04 1.10 1.22 1.23 1.23 1.04 0.78 0.61 0.57 0.67 0.62 0.56 0.51 0.49 0.56 0.62 0.53 0.54 0.52 0.50 0.47 0.45 0.44 0.40 0.37 0.29 0.21 0.20 0.24 0.29 0.34
0.27 0.31 0.33 0.46 0.57 0.62 0.77 0.86 1.00 1.17 1.30 1.29 1.03 0.78 0.53 0.35 0.29 0.26 0.33 0.31 0.34 0.33 0.31 0.32 0.31 0.26 0.23 0.26 0.25 0.32 0.40 0.47 0.54 0.59 0.55 0.47 0.41 0.41
0.28 0.36 0.45 0.59 0.53 0.51 0.46 0.42 0.42 0.59 0.76 0.84 0.85 0.71 0.56 0.51 0.57 0.61 0.61 0.57 0.47 0.19 0.15 0.12 0.12 0.11 0.13 0.19 0.30 0.33 0.31 0.33 0.37 0.46 0.58 0.60 0.59 0.57
0.48 0.45 0.37 0.35 0.35 0.29 0.29 0.31 0.34 0.34 0.36 0.32 0.28 0.20 0.21 0.26 0.42 0.54 0.55 0.51 0.40 0.23 0.32 0.30 0.16 0.08 0.04 0.12 0.23 0.22 0.29 0.31 0.34 0.38 0.52 0.59 0.65 0.69
0.45 0.40 0.33 0.26 0.19 0.14 0.16 0.21 0.11 0.08 0.13 0.19 0.20 0.27 0.38 0.42 0.53 0.69 0.59 0.51 0.46 0.35 0.32 0.32 0.13 0.12 0.06 0.05 0.12 0.10 0.17 0.23 0.29 0.35 0.41 0.47 0.59 0.68
0.14 0.07 0.03 0.03 0.05 0.09 0.09 0.05 0.02 0.02 0.09 0.16 0.24 0.30 0.33 0.34 0.32 0.40 0.58 0.68 0.65 0.41 0.31 0.31 0.19 0.17 0.15 0.11 0.10 0.12 0.07 0.10 0.14 0.22 0.29 0.34 0.38 0.44
0.00 0.00 0.02 0.02 0.06 0.10 0.06 0.02 0.03 0.01 0.06 0.05 0.05 0.08 0.11 0.16 0.23 0.23 0.30 0.55 0.44 0.45 0.29 0.47 0.37 0.36 0.61 0.27 0.16 0.16 0.13 0.14 0.13 0.13 0.15 0.21 0.34 0.34
0.01 0.01 0.00 0.05 0.08 0.08 0.08 0.05 0.07 0.10 0.08 0.06 0.06 0.07 0.07 0.09 0.11 0.12 0.13 0.39 0.62 0.47 0.21 0.69 0.75 0.41 0.67 0.36 0.17 0.23 0.21 0.19 0.20 0.18 0.17 0.22 0.34 0.44
0.03 0.02 0.03 0.10 0.10 0.09 0.08 0.06 0.11 0.11 0.05 0.04 0.04 0.07 0.10 0.10 0.10 0.10 0.12 0.14 0.21 0.38 0.21 0.38 0.89 0.39 0.63 0.48 0.23 0.18 0.28 0.25 0.25 0.25 0.22 0.34 0.37 0.49
0.05 0.08 0.10 0.13 0.12 0.08 0.07 0.07 0.11 0.07 0.05 0.09 0.10 0.09 0.08 0.08 0.14 0.21 0.23 0.21 0.22 0.20 0.21 0.16 0.38 0.36 0.58 0.68 0.41 0.15 0.30 0.30 0.24 0.31 0.36 0.43 0.42 0.40
0.09 0.15 0.23 0.19 0.17 0.15 0.15 0.11 0.10 0.10 0.14 0.17 0.18 0.16 0.21 0.31 0.33 0.29 0.34 0.35 0.40 0.35 0.24 0.25 0.26 0.37 0.58 0.38 0.53 0.42 0.25 0.43 0.28 0.28 0.45 0.45 0.41 0.40
0.31 0.19 0.22 0.24 0.21 0.15 0.12 0.17 0.19 0.17 0.16 0.15 0.20 0.20 0.22 0.28 0.34 0.40 0.44 0.47 0.53 0.41 0.33 0.26 0.22 0.32 0.34 0.33 0.51 0.29 0.26 0.27 0.32 0.46 0.55 0.60 0.43 0.45
0.39 0.25 0.24 0.17 0.15 0.20 0.25 0.27 0.23 0.26 0.25 0.24 0.21 0.26 0.34 0.34 0.36 0.34 0.41 0.56 0.63 0.46 0.44 0.40 0.35 0.39 0.45 0.42 0.39 0.38 0.39 0.34 0.35 0.38 0.40 0.83 0.56 0.38
0.43 0.13 0.11 0.16 0.24 0.24 0.23 0.35 0.38 0.28 0.39 0.50 0.61 0.60 0.59 0.59 0.56 0.48 0.47 0.53 0.53 0.56 0.61 0.56 0.70 0.90 1.00 0.56 0.38 0.42 0.74 0.55 0.37 0.41 0.46 0.60 0.71 0.53
0.28 0.16 0.12 0.11 0.13 0.31 0.43 0.40 0.44 0.55 0.62 0.65 0.80 0.84 0.86 0.88 0.73 0.60 0.53 0.64 0.67 0.57 0.53 0.60 0.73 0.93 1.41 1.04 0.79 0.43 0.43 0.58 0.80 0.75 0.62 0.62 0.86 0.80
0.12 0.12 0.11 0.16 0.19 0.25 0.36 0.54 0.62 0.59 0.60 0.70 0.68 0.71 0.72 0.88 0.71 0.57 0.59 0.58 0.62 0.68 0.64 0.40 0.41 0.68 1.01 1.17 1.22 0.67 0.55 0.55 0.67 1.09 0.95 0.94 0.71 0.55
0.12 0.14 0.10 0.10 0.17 0.29 0.38 0.47 0.56 0.56 0.58 0.52 0.49 0.56 0.60 0.72 0.74 0.63 0.62 0.72 0.52 0.46 0.57 0.55 0.58 0.68 0.88 1.16 0.81 0.46 0.46 0.57 0.70 0.71 0.66 1.20 1.53 1.47
0.17 0.24 0.21 0.18 0.19 0.26 0.36 0.40 0.41 0.37 0.41 0.48 0.52 0.52 0.58 0.67 0.50 0.60 0.66 0.67 0.65 0.73 0.64 0.74 0.68 0.65 0.57 0.62 0.68 0.61 0.46 0.45 0.50 0.67 0.71 0.65 0.68 0.77

GFSNE_prec_precacc_129.txt.gz
Total_Precipitation_Accumulation
0.95 0.99 1.04 0.96 0.95 0.97 1.09 1.30 1.53 1.36 0.90 0.64 0.67 0.67 0.63 0.62 0.68 0.68 0.66 0.83 0.84 0.82 0.84 0.88 0.91 0.85 0.81 0.84 0.90 0.94 1.00 1.10 1.21 1.29 1.31 1.40 1.48 1.66
1.09 1.08 1.08 1.05 1.00 0.93 0.94 1.01 1.24 1.45 1.37 0.78 0.78 0.85 0.88 0.93 0.96 0.82 0.68 0.78 0.69 0.71 0.71 0.70 0.69 0.65 0.63 0.62 0.68 0.67 0.69 0.70 0.75 0.85 0.99 1.16 1.25 1.32
1.26 1.25 1.13 1.19 1.48 1.55 1.51 1.56 1.72 1.94 2.10 1.47 1.05 0.96 0.91 0.83 0.85 0.81 0.73 0.61 0.57 0.74 0.63 0.61 0.57 0.51 0.52 0.52 0.51 0.51 0.49 0.50 0.57 0.67 0.77 0.93 1.05 1.14
0.89 1.02 0.97 0.96 0.99 0.97 1.03 1.13 1.24 1.36 1.63 1.46 1.08 1.05 1.02 0.96 0.94 0.94 0.89 0.83 0.76 0.92 0.80 0.58 0.42 0.32 0.31 0.31 0.35 0.37 0.40 0.44 0.47 0.51 0.52 0.55 0.59 0.66
0.69 0.70 0.66 0.77 0.82 0.93 1.07 1.21 1.27 1.40 1.58 1.59 1.25 1.08 1.01 0.98 1.02 0.99 0.94 0.90 0.84 0.98 0.85 0.69 0.67 0.60 0.49 0.46 0.42 0.37 0.28 0.24 0.24 0.26 0.31 0.31 0.34 0.43
0.36 0.48 0.58 0.72 0.84 0.97 1.05 1.04 1.10 1.22 1.23 1.23 1.04 0.78 0.61 0.57 0.67 0.62 0.56 0.51 0.49 0.56 0.62 0.53 0.54 0.52 0.50 0.47 0.45 0.44 0.40 0.37 0.29 0.21 0.20 0.24 0.30 0.38
0.27 0.31 0.33 0.46 0.57 0.62 0.77 0.86 1.00 1.17 1.30 1.29 1.03 0.78 0.53 0.35 0.29 0.26 0.33 0.31 0.34 0.33 0.31 0.32 0.31 0.26 0.23 0.26 0.25 0.32 0.40 0.47 0.54 0.59 0.55 0.47 0.42 0.41
0.28 0.36 0.45 0.59 0.53 0.51 0.46 0.42 0.42 0.59 0.76 0.84 0.85 0.71 0.56 0.51 0.57 0.61 0.61 0.57 0.47 0.19 0.15 0.12 0.12 0.11 0.13 0.19 0.30 0.33 0.31 0.34 0.37 0.46 0.58 0.60 0.60 0.58
0.48 0.45 0.37 0.35 0.35 0.29 0.29 0.31 0.34 0.34 0.36 0.32 0.28 0.20 0.21 0.26 0.42 0.54 0.55 0.51 0.40 0.23 0.32 0.30 0.16 0.08 0.04 0.12 0.23 0.22 0.29 0.32 0.34 0.38 0.52 0.60 0.66 0.72
0.45 0.40 0.33 0.26 0.19 0.14 0.16 0.21 0.11 0.08 0.13 0.19 0.20 0.27 0.38 0.42 0.54 0.69 0.59 0.51 0.46 0.35 0.32 0.32 0.13 0.12 0.06 0.05 0.12 0.10 0.17 0.23 0.29 0.35 0.41 0.47 0.61 0.72
0.14 0.07 0.03 0.03 0.05 0.09 0.09 0.05 0.02 0.02 0.09 0.16 0.24 0.30 0.33 0.34 0.33 0.41 0.59 0.68 0.65 0.41 0.31 0.31 0.19 0.17 0.15 0.11 0.10 0.12 0.07 0.10 0.14 0.22 0.29 0.35 0.38 0.45
0.00 0.00 0.02 0.02 0.06 0.10 0.06 0.02 0.03 0.01 0.06 0.05 0.05 0.08 0.11 0.16 0.23 0.23 0.30 0.55 0.44 0.45 0.29 0.47 0.37 0.36 0.61 0.27 0.16 0.16 0.13 0.14 0.13 0.13 0.15 0.21 0.34 0.35
0.01 0.01 0.00 0.05 0.09 0.08 0.09 0.05 0.07 0.10 0.08 0.06 0.06 0.07 0.07 0.09 0.11 0.12 0.13 0.39 0.62 0.47 0.21 0.69 0.75 0.41 0.67 0.36 0.17 0.23 0.21 0.19 0.20 0.18 0.17 0.22 0.35 0.45
0.03 0.02 0.03 0.10 0.10 0.09 0.09 0.06 0.11 0.11 0.05 0.04 0.04 0.07 0.10 0.10 0.10 0.10 0.12 0.14 0.21 0.38 0.21 0.38 0.89 0.39 0.63 0.49 0.23 0.18 0.28 0.25 0.25 0.25 0.22 0.34 0.37 0.49
0.05 0.08 0.10 0.13 0.12 0.08 0.07 0.07 0.11 0.07 0.05 0.09 0.10 0.09 0.08 0.08 0.14 0.21 0.23 0.21 0.22 0.20 0.21 0.16 0.38 0.36 0.58 0.68 0.41 0.15 0.30 0.30 0.24 0.31 0.36 0.43 0.42 0.40
0.09 0.15 0.23 0.19 0.17 0.15 0.15 0.11 0.10 0.10 0.14 0.17 0.18 0.16 0.21 0.31 0.33 0.29 0.34 0.35 0.40 0.35 0.24 0.25 0.26 0.37 0.58 0.38 0.54 0.42 0.25 0.43 0.28 0.28 0.45 0.45 0.41 0.40
0.32 0.19 0.22 0.24 0.21 0.15 0.12 0.17 0.19 0.17 0.16 0.15 0.20 0.20 0.22 0.28 0.34 0.40 0.44 0.47 0.53 0.41 0.33 0.26 0.22 0.32 0.34 0.33 0.52 0.29 0.26 0.27 0.32 0.46 0.55 0.60 0.43 0.45
0.40 0.25 0.24 0.17 0.15 0.20 0.25 0.27 0.23 0.26 0.25 0.24 0.21 0.26 0.34 0.34 0.36 0.34 0.41 0.57 0.63 0.46 0.44 0.40 0.35 0.40 0.45 0.42 0.39 0.38 0.39 0.34 0.35 0.38 0.40 0.83 0.56 0.38
0.43 0.13 0.11 0.16 0.24 0.24 0.23 0.35 0.38 0.28 0.39 0.50 0.61 0.60 0.60 0.59 0.56 0.48 0.47 0.54 0.53 0.56 0.61 0.56 0.70 0.90 1.00 0.56 0.38 0.42 0.74 0.55 0.37 0.41 0.46 0.60 0.71 0.53
0.28 0.16 0.12 0.11 0.13 0.31 0.43 0.40 0.44 0.55 0.62 0.66 0.80 0.84 0.86 0.88 0.73 0.61 0.54 0.64 0.67 0.57 0.53 0.60 0.73 0.93 1.42 1.04 0.80 0.43 0.43 0.58 0.80 0.75 0.62 0.62 0.86 0.80
0.12 0.12 0.11 0.16 0.19 0.25 0.36 0.54 0.62 0.59 0.60 0.70 0.68 0.72 0.72 0.90 0.71 0.57 0.60 0.58 0.62 0.70 0.65 0.40 0.41 0.68 1.01 1.19 1.24 0.67 0.55 0.55 0.67 1.09 0.95 0.94 0.71 0.55
0.12 0.14 0.10 0.10 0.17 0.29 0.38 0.47 0.56 0.56 0.58 0.52 0.49 0.56 0.61 0.73 0.75 0.64 0.62 0.73 0.53 0.46 0.57 0.55 0.58 0.68 0.88 1.17 0.81 0.46 0.46 0.57 0.70 0.71 0.66 1.20 1.54 1.47
0.17 0.24 0.21 0.18 0.19 0.26 0.37 0.41 0.41 0.38 0.41 0.49 0.53 0.53 0.60 0.69 0.51 0.61 0.67 0.68 0.65 0.74 0.64 0.74 0.68 0.65 0.57 0.62 0.68 0.61 0.46 0.45 0.50 0.67 0.71 0.65 0.68 0.77

GFSNE_prec_precacc_132.txt.gz
Total_Precipitation_Accumulation
0.95 0.99 1.04 0.96 0.95 0.97 1.09 1.30 1.53 1.36 0.91 0.65 0.67 0.68 0.70 0.78 0.94 0.99 1.00 1.13 1.11 1.08 1.05 1.00 1.01 0.90 0.82 0.84 0.91 0.94 1.01 1.11 1.21 1.30 1.31 1.40 1.52 1.74
1.09 1.08 1.08 1.05 1.00 0.93 0.94 1.01 1.24 1.45 1.37 0.79 0.78 0.85 0.89 0.96 1.04 0.92 0.81 0.95 0.86 0.84 0.83 0.82 0.76 0.68 0.64 0.62 0.68 0.67 0.69 0.71 0.75 0.85 1.00 1.16 1.25 1.33
1.26 1.25 1.13 1.19 1.48 1.55 1.51 1.56 1.72 1.94 2.10 1.47 1.05 0.96 0.91 0.84 0.86 0.83 0.75 0.63 0.59 0.77 0.66 0.63 0.58 0.51 0.52 0.52 0.51 0.51 0.49 0.50 0.57 0.67 0.77 0.93 1.05 1.14
0.89 1.02 0.97 0.96 0.99 0.97 1.03 1.13 1.24 1.36 1.63 1.46 1.08 1.05 1.02 0.96 0.95 0.94 0.89 0.83 0.76 0.92 0.81 0.58 0.42 0.32 0.31 0.31 0.35 0.37 0.40 0.44 0.47 0.51 0.52 0.55 0.59 0.67
0.69 0.70 0.66 0.77 0.82 0.93 1.07 1.21 1.27 1.40 1.58 1.59 1.25 1.08 1.01 0.98 1.02 0.99 0.94 0.90 0.84 0.98 0.85 0.69 0.67 0.60 0.49 0.46 0.42 0.37 0.28 0.24 0.24 0.26 0.31 0.32 0.34 0.43
0.36 0.48 0.58 0.72 0.84 0.97 1.05 1.04 1.10 1.22 1.23 1.23 1.04 0.78 0.61 0.57 0.67 0.62 0.56 0.51 0.49 0.56 0.62 0.53 0.54 0.52 0.50 0.47 0.45 0.44 0.40 0.37 0.29 0.21 0.20 0.25 0.30 0.38
0.27 0.31 0.33 0.46 0.57 0.62 0.77 0.86 1.00 1.17 1.30 1.29 1.03 0.78 0.53 0.35 0.29 0.26 0.33 0.31 0.34 0.33 0.31 0.32 0.31 0.26 0.23 0.26 0.25 0.32 0.40 0.47 0.55 0.59 0.56 0.47 0.42 0.41
0.28 0.36 0.45 0.59 0.53 0.51 0.46 0.42 0.42 0.59 0.76 0.84 0.85 0.71 0.56 0.51 0.57 0.61 0.61 0.57 0.47 0.19 0.15 0.12 0.12 0.11 0.13 0.19 0.30 0.33 0.31 0.34 0.37 0.47 0.58 0.60 0.60 0.58
0.48 0.45 0.37 0.35 0.35 0.29 0.29 0.31 0.34 0.34 0.36 0.32 0.28 0.20 0.21 0.26 0.42 0.54 0.55 0.51 0.40 0.23 0.32 0.30 0.16 0.08 0.04 0.12 0.23 0.22 0.29 0.32 0.34 0.38 0.52 0.60 0.66 0.72
0.45 0.40 0.33 0.26 0.19 0.14 0.16 0.21 0.11 0.08 0.13 0.19 0.20 0.27 0.38 0.42 0.54 0.70 0.60 0.52 0.46 0.35 0.32 0.32 0.13 0.12 0.06 0.05 0.12 0.10 0.17 0.23 0.29 0.35 0.41 0.47 0.61 0.72
0.14 0.07 0.03 0.03 0.05 0.09 0.09 0.05 0.02 0.02 0.09 0.16 0.24 0.30 0.34 0.35 0.33 0.42 0.60 0.69 0.65 0.41 0.31 0.31 0.19 0.17 0.15 0.11 0.10 0.12 0.07 0.10 0.14 0.22 0.29 0.35 0.38 0.45
0.00 0.00 0.02 0.02 0.06 0.10 0.06 0.02 0.03 0.01 0.06 0.06 0.06 0.08 0.11 0.16 0.23 0.23 0.30 0.55 0.44 0.46 0.29 0.47 0.37 0.36 0.61 0.27 0.16 0.16 0.13 0.14 0.13 0.13 0.15 0.21 0.34 0.35
0.01 0.01 0.00 0.05 0.09 0.09 0.09 0.05 0.07 0.10 0.08 0.06 0.06 0.07 0.07 0.09 0.11 0.12 0.13 0.39 0.62 0.47 0.21 0.69 0.75 0.41 0.67 0.36 0.17 0.23 0.21 0.19 0.20 0.18 0.17 0.22 0.35 0.45
0.03 0.02 0.03 0.10 0.11 0.10 0.09 0.06 0.11 0.11 0.05 0.04 0.04 0.07 0.10 0.10 0.10 0.10 0.12 0.14 0.21 0.38 0.21 0.39 0.90 0.39 0.64 0.49 0.23 0.18 0.28 0.25 0.25 0.25 0.22 0.34 0.37 0.49
0.05 0.08 0.10 0.14 0.12 0.09 0.07 0.07 0.11 0.07 0.05 0.09 0.10 0.09 0.08 0.08 0.14 0.21 0.23 0.21 0.22 0.20 0.21 0.16 0.38 0.36 0.59 0.69 0.42 0.15 0.30 0.30 0.24 0.31 0.36 0.43 0.42 0.40
0.09 0.15 0.23 0.20 0.17 0.15 0.15 0.11 0.10 0.10 0.14 0.17 0.18 0.16 0.21 0.31 0.33 0.29 0.34 0.35 0.40 0.35 0.24 0.25 0.26 0.37 0.59 0.39 0.54 0.42 0.25 0.43 0.28 0.28 0.45 0.45 0.41 0.40
0.32 0.20 0.22 0.24 0.21 0.15 0.12 0.17 0.19 0.17 0.16 0.15 0.20 0.20 0.22 0.28 0.34 0.40 0.44 0.47 0.53 0.41 0.33 0.26 0.22 0.32 0.34 0.34 0.53 0.29 0.26 0.27 0.32 0.47 0.55 0.60 0.43 0.45
0.40 0.25 0.25 0.17 0.15 0.20 0.25 0.27 0.23 0.26 0.25 0.24 0.21 0.26 0.34 0.34 0.37 0.35 0.41 0.57 0.64 0.46 0.44 0.41 0.35 0.40 0.46 0.42 0.40 0.38 0.39 0.34 0.35 0.38 0.40 0.83 0.57 0.38
0.43 0.13 0.11 0.16 0.24 0.24 0.23 0.35 0.38 0.28 0.39 0.50 0.61 0.60 0.60 0.60 0.56 0.49 0.47 0.54 0.53 0.56 0.61 0.56 0.70 0.91 1.02 0.56 0.38 0.42 0.74 0.55 0.37 0.42 0.46 0.60 0.71 0.53
0.28 0.16 0.12 0.11 0.13 0.31 0.43 0.40 0.44 0.55 0.62 0.66 0.80 0.85 0.87 0.89 0.74 0.61 0.54 0.65 0.68 0.58 0.54 0.60 0.73 0.93 1.43 1.05 0.80 0.43 0.43 0.58 0.80 0.75 0.62 0.63 0.87 0.80
0.12 0.12 0.11 0.16 0.19 0.25 0.36 0.54 0.62 0.59 0.61 0.70 0.69 0.73 0.73 0.91 0.72 0.57 0.60 0.58 0.63 0.71 0.66 0.40 0.41 0.68 1.02 1.21 1.25 0.67 0.55 0.55 0.67 1.09 0.95 0.95 0.71 0.55
0.12 0.14 0.10 0.10 0.17 0.29 0.38 0.48 0.56 0.56 0.58 0.53 0.50 0.57 0.61 0.75 0.76 0.65 0.63 0.73 0.53 0.46 0.58 0.55 0.58 0.68 0.89 1.18 0.82 0.46 0.46 0.57 0.70 0.71 0.66 1.20 1.54 1.47
0.17 0.24 0.21 0.18 0.19 0.26 0.37 0.42 0.42 0.38 0.41 0.49 0.53 0.54 0.61 0.71 0.51 0.62 0.68 0.68 0.66 0.75 0.65 0.74 0.69 0.65 0.58 0.63 0.69 0.61 0.46 0.45 0.50 0.67 0.71 0.65 0.68 0.77

GFSNE_prec_precacc_138.txt.gz
Total_Precipitation_Accumulation
0.95 0.99 1.04 0.96 0.95 0.97 1.09 1.30 1.53 1.37 0.91 0.65 0.67 0.68 0.70 0.78 0.94 0.99 1.01 1.14 1.13 1.13 1.16 1.21 1.30 1.22 1.14 1.13 1.21 1.22 1.21 1.27 1.39 1.44 1.54 1.72 1.80 2.23
1.09 1.08 1.08 1.05 1.00 0.93 0.94 1.01 1.24 1.45 1.37 0.79 0.78 0.85 0.89 0.96 1.04 0.92 0.81 0.96 0.88 0.87 0.90 0.92 0.87 0.82 0.82 0.84 0.88 0.85 0.90 0.90 0.91 0.95 1.05 1.25 1.35 1.41
1.26 1.25 1.13 1.19 1.48 1.55 1.51 1.56 1.72 1.94 2.10 1.47 1.05 0.96 0.91 0.84 0.86 0.83 0.75 0.63 0.59 0.77 0.68 0.66 0.62 0.57 0.60 0.60 0.59 0.59 0.58 0.59 0.66 0.74 0.81 0.96 1.10 1.21
0.89 1.02 0.97 0.96 0.99 0.97 1.03 1.13 1.24 1.36 1.63 1.46 1.08 1.05 1.02 0.96 0.95 0.94 0.89 0.83 0.76 0.92 0.81 0.58 0.42 0.32 0.31 0.32 0.36 0.40 0.42 0.46 0.50 0.54 0.56 0.58 0.61 0.69
0.69 0.70 0.66 0.77 0.82 0.93 1.07 1.21 1.27 1.40 1.58 1.59 1.25 1.08 1.01 0.98 1.02 0.99 0.94 0.90 0.84 0.98 0.85 0.69 0.67 0.60 0.49 0.46 0.43 0.37 0.29 0.25 0.25 0.28 0.32 0.32 0.34 0.43
0.36 0.48 0.58 0.72 0.84 0.97 1.05 1.04 1.10 1.22 1.23 1.23 1.04 0.78 0.61 0.57 0.67 0.62 0.56 0.51 0.49 0.56 0.62 0.53 0.54 0.52 0.50 0.47 0.45 0.44 0.40 0.37 0.30 0.22 0.22 0.27 0.31 0.38
0.27 0.31 0.33 0.46 0.57 0.62 0.77 0.86 1.00 1.17 1.30 1.29 1.03 0.78 0.53 0.35 0.29 0.26 0.33 0.31 0.34 0.33 0.31 0.32 0.31 0.26 0.23 0.26 0.25 0.32 0.40 0.47 0.55 0.59 0.56 0.47 0.43 0.42
0.28 0.36 0.45 0.59 0.53 0.51 0.46 0.42 0.42 0.59 0.76 0.84 0.85 0.71 0.56 0.51 0.57 0.61 0.61 0.57 0.47 0.19 0.15 0.12 0.12 0.11 0.13 0.19 0.30 0.33 0.31 0.34 0.37 0.47 0.58 0.60 0.60 0.58
0.48 0.45 0.37 0.35 0.35 0.29 0.29 0.31 0.34 0.34 0.36 0.32 0.28 0.20 0.21 0.26 0.42 0.54 0.55 0.52 0.41 0.23 0.32 0.30 0.16 0.08 0.04 0.12 0.23 0.22 0.29 0.32 0.34 0.38 0.52 0.60 0.66 0.72
0.45 0.40 0.33 0.26 0.19 0.14 0.16 0.21 0.11 0.08 0.13 0.19 0.20 0.27 0.38 0.42 0.55 0.71 0.61 0.53 0.46 0.35 0.32 0.32 0.13 0.12 0.06 0.05 0.12 0.10 0.17 0.23 0.29 0.35 0.41 0.47 0.61 0.72
0.14 0.07 0.03 0.03 0.05 0.09 0.09 0.05 0.02 0.02 0.09 0.16 0.24 0.30 0.34 0.36 0.34 0.43 0.60 0.69 0.66 0.41 0.31 0.31 0.19 0.17 0.15 0.11 0.10 0.12 0.07 0.10 0.14 0.22 0.29 0.35 0.38 0.45
0.00 0.00 0.02 0.02 0.06 0.10 0.06 0.02 0.03 0.01 0.06 0.06 0.06 0.08 0.11 0.16 0.23 0.23 0.30 0.56 0.44 0.46 0.29 0.47 0.37 0.36 0.61 0.27 0.16 0.16 0.13 0.14 0.13 0.13 0.15 0.21 0.34 0.35
0.01 0.01 0.00 0.05 0.09 0.09 0.09 0.06 0.08 0.10 0.08 0.06 0.06 0.07 0.07 0.09 0.11 0.12 0.13 0.39 0.62 0.47 0.21 0.69 0.76 0.42 0.68 0.37 0.17 0.23 0.21 0.19 0.20 0.18 0.17 0.22 0.35 0.45
0.03 0.02 0.03 0.10 0.11 0.10 0.10 0.07 0.12 0.11 0.05 0.04 0.04 0.07 0.10 0.10 0.10 0.10 0.12 0.14 0.21 0.39 0.21 0.39 0.92 0.40 0.65 0.50 0.23 0.18 0.28 0.25 0.25 0.25 0.22 0.34 0.37 0.49
0.05 0.08 0.10 0.14 0.13 0.09 0.08 0.07 0.11 0.07 0.05 0.09 0.10 0.09 0.08 0.08 0.14 0.21 0.23 0.22 0.22 0.20 0.21 0.16 0.39 0.37 0.60 0.71 0.42 0.15 0.30 0.30 0.24 0.31 0.36 0.43 0.42 0.40
0.09 0.15 0.23 0.20 0.17 0.15 0.15 0.12 0.10 0.10 0.14 0.17 0.18 0.16 0.21 0.31 0.33 0.29 0.35 0.35 0.41 0.35 0.24 0.25 0.26 0.38 0.60 0.40 0.55 0.43 0.25 0.43 0.28 0.28 0.45 0.45 0.41 0.40
0.32 0.20 0.22 0.24 0.21 0.15 0.12 0.17 0.19 0.17 0.16 0.15 0.20 0.20 0.22 0.28 0.34 0.40 0.45 0.48 0.54 0.42 0.34 0.26 0.22 0.33 0.34 0.34 0.55 0.30 0.26 0.27 0.32 0.47 0.55 0.60 0.43 0.45
0.40 0.25 0.25 0.17 0.15 0.20 0.25 0.27 0.23 0.26 0.25 0.24 0.21 0.26 0.35 0.35 0.37 0.35 0.41 0.58 0.65 0.47 0.44 0.41 0.35 0.41 0.47 0.43 0.40 0.39 0.39 0.34 0.35 0.39 0.40 0.84 0.57 0.38
0.43 0.13 0.11 0.16 0.24 0.24 0.23 0.35 0.38 0.28 0.39 0.50 0.62 0.60 0.61 0.60 0.57 0.50 0.48 0.55 0.54 0.57 0.61 0.56 0.71 0.94 1.06 0.58 0.38 0.42 0.74 0.55 0.37 0.42 0.46 0.61 0.71 0.53
0.28 0.16 0.12 0.11 0.13 0.31 0.43 0.40 0.44 0.55 0.62 0.66 0.81 0.85 0.87 0.90 0.75 0.62 0.55 0.66 0.69 0.58 0.54 0.61 0.74 0.94 1.46 1.06 0.81 0.43 0.43 0.58 0.80 0.75 0.62 0.63 0.87 0.80
0.12 0.12 0.11 0.16 0.19 0.25 0.36 0.54 0.62 0.59 0.61 0.71 0.69 0.73 0.74 0.94 0.74 0.58 0.61 0.59 0.65 0.75 0.69 0.41 0.41 0.69 1.06 1.28 1.30 0.68 0.55 0.55 0.67 1.09 0.95 0.96 0.72 0.56
0.12 0.14 0.10 0.10 0.17 0.29 0.38 0.48 0.57 0.57 0.59 0.53 0.50 0.58 0.62 0.77 0.79 0.67 0.64 0.75 0.54 0.47 0.59 0.55 0.58 0.69 0.93 1.24 0.84 0.46 0.46 0.57 0.70 0.71 0.66 1.21 1.55 1.48
0.17 0.24 0.21 0.18 0.19 0.26 0.37 0.42 0.42 0.38 0.42 0.50 0.54 0.55 0.62 0.73 0.53 0.65 0.70 0.71 0.68 0.78 0.66 0.76 0.69 0.68 0.61 0.64 0.71 0.63 0.46 0.45 0.50 0.67 0.71 0.65 0.68 0.77

GFSNE_prec_precacc_141.txt.gz
Total_Precipitation_Accumulation
0.95 0.99 1.04 0.96 0.95 0.97 1.09 1.30 1.53 1.37 0.91 0.65 0.67 0.68 0.70 0.78 0.94 0.99 1.01 1.14 1.13 1.13 1.16 1.21 1.30 1.22 1.14 1.13 1.24 1.28 1.31 1.41 1.57 1.70 1.84 2.07 2.32 2.93
1.09 1.08 1.08 1.05 1.00 0.93 0.94 1.01 1.24 1.45 1.37 0.79 0.78 0.85 0.89 0.96 1.04 0.92 0.81 0.96 0.88 0.87 0.90 0.92 0.87 0.82 0.82 0.84 0.88 0.86 0.90 0.94 1.03 1.21 1.33 1.47 1.66 1.75
1.26 1.25 1.13 1.19 1.48 1.55 1.51 1.56 1.72 1.94 2.10 1.47 1.05 0.96 0.91 0.84 0.86 0.83 0.75 0.63 0.59 0.77 0.68 0.66 0.62 0.57 0.60 0.60 0.59 0.59 0.58 0.59 0.68 0.83 0.99 1.16 1.25 1.38
0.89 1.02 0.97 0.96 0.99 0.97 1.03 1.13 1.24 1.36 1.63 1.46 1.08 1.05 1.02 0.96 0.95 0.94 0.89 0.83 0.76 0.92 0.81 0.58 0.42 0.32 0.31 0.32 0.36 0.40 0.42 0.46 0.50 0.55 0.59 0.65 0.72 0.79
0.69 0.70 0.66 0.77 0.82 0.93 1.07 1.21 1.27 1.40 1.58 1.59 1.25 1.08 1.01 0.98 1.02 0.99 0.94 0.90 0.84 0.98 0.85 0.69 0.67 0.60 0.49 0.46 0.43 0.37 0.29 0.25 0.25 0.28 0.33 0.33 0.36 0.47
0.36 0.48 0.58 0.72 0.84 0.97 1.05 1.04 1.10 1.22 1.23 1.23 1.04 0.78 0.61 0.57 0.67 0.62 0.56 0.51 0.49 0.56 0.62 0.53 0.54 0.52 0.50 0.47 0.45 0.44 0.40 0.37 0.30 0.22 0.22 0.27 0.31 0.40
0.27 0.31 0.33 0.46 0.57 0.62 0.77 0.86 1.00 1.17 1.30 1.29 1.03 0.78 0.53 0.35 0.29 0.26 0.33 0.31 0.34 0.33 0.31 0.32 0.31 0.26 0.23 0.26 0.25 0.32 0.40 0.47 0.55 0.59 0.56 0.47 0.43 0.43
0.28 0.36 0.45 0.59 0.53 0.51 0.46 0.42 0.42 0.59 0.76 0.84 0.85 0.71 0.56 0.51 0.57 0.61 0.61 0.57 0.47 0.19 0.15 0.12 0.12 0.11 0.13 0.19 0.30 0.33 0.31 0.34 0.37 0.47 0.58 0.60 0.60 0.58
0.48 0.45 0.37 0.35 0.35 0.29 0.29 0.31 0.34 0.34 0.36 0.32 0.28 0.20 0.21 0.26 0.42 0.54 0.55 0.52 0.41 0.23 0.32 0.30 0.16 0.08 0.04 0.12 0.23 0.22 0.29 0.32 0.34 0.38 0.52 0.60 0.66 0.72
0.45 0.40 0.33 0.26 0.19 0.14 0.16 0.21 0.11 0.08 0.13 0.19 0.20 0.27 0.38 0.42 0.55 0.71 0.61 0.53 0.46 0.35 0.32 0.32 0.13 0.12 0.06 0.05 0.12 0.10 0.17 0.23 0.29 0.35 0.41 0.47 0.61 0.72
0.14 0.07 0.03 0.03 0.05 0.09 0.09 0.05 0.02 0.02 0.09 0.16 0.24 0.30 0.34 0.36 0.34 0.43 0.60 0.69 0.66 0.41 0.31 0.31 0.19 0.17 0.15 0.11 0.10 0.12 0.07 0.10 0.14 0.22 0.29 0.35 0.38 0.45
0.00 0.00 0.02 0.02 0.06 0.10 0.06 0.02 0.03 0.01 0.06 0.06 0.06 0.08 0.11 0.16 0.23 0.23 0.30 0.56 0.44 0.46 0.29 0.47 0.37 0.36 0.62 0.27 0.16 0.16 0.13 0.14 0.13 0.13 0.15 0.21 0.34 0.35
0.01 0.01 0.00 0.05 0.09 0.09 0.09 0.06 0.08 0.10 0.08 0.06 0.06 0.07 0.07 0.09 0.11 0.12 0.13 0.39 0.62 0.47 0.21 0.69 0.77 0.42 0.68 0.37 0.17 0.23 0.21 0.19 0.20 0.18 0.17 0.22 0.35 0.45
0.03 0.02 0.03 0.10 0.11 0.10 0.10 0.07 0.12 0.12 0.05 0.04 0.04 0.07 0.10 0.10 0.10 0.10 0.12 0.14 0.21 0.39 0.21 0.39 0.92 0.40 0.66 0.51 0.23 0.18 0.28 0.25 0.25 0.25 0.22 0.34 0.37 0.49
0.05 0.08 0.10 0.14 0.13 0.09 0.08 0.07 0.11 0.07 0.05 0.09 0.10 0.09 0.08 0.08 0.14 0.21 0.23 0.22 0.22 0.20 0.21 0.16 0.39 0.37 0.61 0.72 0.43 0.15 0.30 0.30 0.24 0.31 0.36 0.43 0.42 0.40
0.09 0.15 0.23 0.20 0.17 0.15 0.15 0.12 0.10 0.10 0.14 0.17 0.18 0.16 0.21 0.31 0.33 0.29 0.35 0.35 0.41 0.35 0.24 0.25 0.26 0.38 0.60 0.40 0.56 0.43 0.25 0.43 0.28 0.28 0.45 0.45 0.41 0.40
0.32 0.20 0.22 0.24 0.21 0.15 0.12 0.17 0.19 0.17 0.16 0.15 0.20 0.20 0.22 0.28 0.34 0.40 0.45 0.48 0.55 0.42 0.34 0.26 0.22 0.33 0.34 0.34 0.55 0.30 0.26 0.27 0.32 0.47 0.55 0.60 0.43 0.45
0.40 0.25 0.25 0.17 0.15 0.20 0.25 0.27 0.23 0.26 0.25 0.24 0.21 0.26 0.35 0.35 0.37 0.35 0.42 0.58 0.65 0.47 0.44 0.41 0.35 0.41 0.47 0.43 0.40 0.39 0.39 0.34 0.35 0.39 0.40 0.84 0.57 0.38
0.43 0.13 0.11 0.16 0.24 0.24 0.23 0.35 0.38 0.28 0.39 0.50 0.62 0.60 0.61 0.61 0.58 0.50 0.48 0.55 0.55 0.57 0.61 0.56 0.71 0.94 1.07 0.58 0.38 0.42 0.74 0.55 0.37 0.42 0.46 0.61 0.71 0.53
0.28 0.16 0.12 0.11 0.13 0.31 0.43 0.40 0.44 0.55 0.62 0.66 0.81 0.85 0.88 0.90 0.75 0.62 0.55 0.66 0.69 0.58 0.54 0.61 0.74 0.94 1.47 1.06 0.81 0.43 0.43 0.58 0.80 0.75 0.62 0.63 0.87 0.80
0.12 0.12 0.11 0.16 0.19 0.25 0.36 0.54 0.62 0.59 0.61 0.71 0.70 0.74 0.74 0.95 0.75 0.58 0.61 0.60 0.66 0.77 0.70 0.41 0.41 0.69 1.07 1.32 1.32 0.68 0.55 0.55 0.67 1.09 0.95 0.96 0.72 0.56
0.12 0.14 0.10 0.10 0.17 0.29 0.38 0.48 0.57 0.57 0.59 0.53 0.50 0.58 0.62 0.78 0.80 0.67 0.64 0.76 0.55 0.47 0.59 0.55 0.58 0.69 0.94 1.27 0.86 0.46 0.46 0.57 0.70 0.71 0.67 1.23 1.56 1.50
0.17 0.24 0.21 0.18 0.19 0.26 0.37 0.42 0.42 0.38 0.42 0.50 0.54 0.55 0.62 0.74 0.54 0.65 0.70 0.71 0.69 0.79 0.67 0.77 0.70 0.68 0.62 0.65 0.73 0.64 0.46 0.45 0.50 0.68 0.71 0.65 0.68 0.77

GFSNE_prec_precacc_144.txt.gz
Total_Precipitation_Accumulation
0.95 0.99 1.04 0.96 0.95 0.97 1.09 1.30 1.53 1.37 0.91 0.65 0.67 0.68 0.70 0.78 0.94 0.99 1.01 1.14 1.13 1.13 1.16 1.21 1.30 1.22 1.14 1.13 1.24 1.28 1.31 1.41 1.57 1.72 1.90 2.17 2.50 3.19
1.09 1.08 1.08 1.05 1.00 0.93 0.94 1.01 1.24 1.45 1.37 0.79 0.78 0.85 0.89 0.96 1.04 0.92 0.81 0.96 0.88 0.87 0.90 0.92 0.87 0.82 0.82 0.84 0.88 0.86 0.90 0.94 1.03 1.22 1.35 1.52 1.74 1.88
1.26 1.25 1.13 1.19 1.48 1.55 1.51 1.56 1.72 1.94 2.10 1.47 1.05 0.96 0.91 0.84 0.86 0.83 0.75 0.63 0.59 0.77 0.68 0.66 0.62 0.57 0.60 0.60 0.59 0.59 0.58 0.59 0.68 0.83 0.99 1.17 1.30 1.48
0.89 1.02 0.97 0.96 0.99 0.97 1.03 1.13 1.24 1.36 1.63 1.46 1.08 1.05 1.02 0.96 0.95 0.94 0.89 0.83 0.76 0.92 0.81 0.58 0.42 0.32 0.31 0.32 0.36 0.40 0.42 0.46 0.50 0.55 0.59 0.65 0.72 0.80
0.69 0.70 0.66 0.77 0.82 0.93 1.07 1.21 1.27 1.40 1.58 1.59 1.25 1.08 1.01 0.98 1.02 0.99 0.94 0.90 0.84 0.98 0.85 0.69 0.67 0.60 0.49 0.46 0.43 0.37 0.29 0.25 0.25 0.28 0.33 0.33 0.36 0.47
0.36 0.48 0.58 0.72 0.84 0.97 1.05 1.04 1.10 1.22 1.23 1.23 1.04 0.78 0.61 0.57 0.67 0.62 0.56 0.51 0.49 0.56 0.62 0.53 0.54 0.52 0.50 0.47 0.45 0.44 0.40 0.37 0.30 0.22 0.22 0.27 0.31 0.40
0.27 0.31 0.33 0.46 0.57 0.62 0.77 0.86 1.00 1.17 1.30 1.29 1.03 0.78 0.53 0.35 0.29 0.26 0.33 0.31 0.34 0.33 0.31 0.32 0.31 0.26 0.23 0.26 0.25 0.32 0.40 0.47 0.55 0.59 0.56 0.47 0.43 0.43
0.28 0.36 0.45 0.59 0.53 0.51 0.46 0.42 0.42 0.59 0.76 0.84 0.85 0.71 0.56 0.51 0.57 0.61 0.61 0.57 0.47 0.19 0.15 0.12 0.12 0.11 0.13 0.19 0.30 0.33 0.31 0.34 0.37 0.47 0.58 0.60 0.60 0.58
0.48 0.45 0.37 0.35 0.35 0.29 0.29 0.31 0.34 0.34 0.36 0.32 0.28 0.20 0.21 0.26 0.42 0.54 0.55 0.52 0.41 0.23 0.32 0.30 0.16 0.08 0.04 0.12 0.23 0.22 0.29 0.32 0.34 0.38 0.52 0.60 0.66 0.72
0.45 0.40 0.33 0.26 0.19 0.14 0.16 0.21 0.11 0.08 0.13 0.19 0.20 0.27 0.38 0.42 0.55 0.71 0.61 0.53 0.46 0.35 0.32 0.32 0.13 0.12 0.06 0.05 0.12 0.10 0.17 0.23 0.29 0.35 0.41 0.47 0.61 0.72
0.14 0.07 0.03 0.03 0.05 0.09 0.09 0.05 0.02 0.02 0.09 0.16 0.24 0.30 0.34 0.36 0.34 0.43 0.60 0.69 0.66 0.41 0.31 0.31 0.19 0.17 0.15 0.11 0.10 0.12 0.07 0.10 0.14 0.22 0.29 0.35 0.38 0.45
0.01 0.00 0.02 0.02 0.06 0.10 0.06 0.02 0.03 0.01 0.06 0.06 0.06 0.08 0.11 0.16 0.23 0.23 0.30 0.56 0.44 0.46 0.29 0.47 0.37 0.36 0.62 0.27 0.16 0.16 0.13 0.14 0.13 0.13 0.15 0.21 0.34 0.35
0.02 0.01 0.00 0.05 0.09 0.09 0.09 0.06 0.08 0.10 0.08 0.06 0.06 0.07 0.07 0.09 0.11 0.12 0.13 0.39 0.62 0.47 0.21 0.69 0.77 0.42 0.68 0.37 0.17 0.23 0.21 0.19 0.20 0.18 0.17 0.22 0.35 0.45
0.03 0.02 0.03 0.10 0.11 0.10 0.10 0.07 0.12 0.12 0.05 0.04 0.04 0.07 0.10 0.10 0.10 0.10 0.12 0.14 0.21 0.39 0.21 0.39 0.92 0.40 0.66 0.51 0.24 0.18 0.28 0.25 0.25 0.25 0.22 0.34 0.37 0.49
0.05 0.08 0.10 0.14 0.13 0.09 0.08 0.07 0.11 0.07 0.05 0.09 0.10 0.09 0.08 0.08 0.14 0.21 0.23 0.22 0.22 0.20 0.21 0.16 0.39 0.37 0.61 0.73 0.43 0.16 0.30 0.30 0.24 0.31 0.36 0.43 0.42 0.40
0.10 0.16 0.23 0.20 0.17 0.15 0.15 0.12 0.10 0.10 0.14 0.17 0.18 0.16 0.21 0.31 0.33 0.29 0.35 0.35 0.41 0.35 0.24 0.25 0.26 0.38 0.61 0.40 0.56 0.43 0.25 0.43 0.28 0.28 0.45 0.45 0.41 0.40
0.33 0.20 0.22 0.24 0.21 0.15 0.12 0.17 0.19 0.17 0.16 0.15 0.20 0.20 0.22 0.28 0.34 0.40 0.45 0.48 0.55 0.42 0.34 0.26 0.22 0.33 0.34 0.34 0.55 0.30 0.26 0.27 0.32 0.47 0.55 0.60 0.43 0.45
0.43 0.25 0.25 0.17 0.15 0.20 0.25 0.27 0.23 0.26 0.25 0.24 0.21 0.26 0.35 0.35 0.37 0.35 0.42 0.59 0.66 0.47 0.44 0.41 0.35 0.41 0.47 0.43 0.40 0.39 0.39 0.34 0.35 0.39 0.40 0.84 0.57 0.38
0.45 0.13 0.11 0.16 0.24 0.24 0.23 0.35 0.38 0.28 0.39 0.50 0.62 0.60 0.61 0.61 0.58 0.51 0.48 0.56 0.55 0.57 0.61 0.56 0.71 0.95 1.09 0.59 0.38 0.42 0.74 0.55 0.37 0.42 0.46 0.61 0.71 0.53
0.29 0.16 0.13 0.11 0.13 0.31 0.43 0.40 0.44 0.55 0.62 0.66 0.81 0.85 0.88 0.90 0.76 0.63 0.55 0.67 0.70 0.58 0.54 0.61 0.74 0.94 1.49 1.07 0.82 0.43 0.43 0.58 0.80 0.75 0.62 0.63 0.87 0.80
0.14 0.14 0.12 0.16 0.19 0.25 0.36 0.54 0.62 0.59 0.61 0.71 0.70 0.74 0.75 0.95 0.76 0.59 0.62 0.60 0.67 0.78 0.71 0.41 0.41 0.69 1.09 1.37 1.35 0.68 0.55 0.55 0.67 1.09 0.95 0.97 0.73 0.56
0.15 0.16 0.10 0.10 0.17 0.29 0.38 0.48 0.57 0.57 0.59 0.53 0.50 0.58 0.63 0.78 0.80 0.67 0.65 0.76 0.55 0.48 0.60 0.55 0.58 0.69 0.95 1.29 0.87 0.46 0.46 0.57 0.70 0.71 0.67 1.23 1.58 1.52
0.21 0.26 0.21 0.18 0.19 0.26 0.37 0.42 0.42 0.38 0.42 0.50 0.54 0.55 0.62 0.75 0.54 0.66 0.71 0.71 0.70 0.79 0.67 0.77 0.70 0.68 0.62 0.66 0.73 0.64 0.46 0.45 0.50 0.68 0.71 0.65 0.68 0.77

GFSNE_prec_precacc_147.txt.gz
Total_Precipitation_Accumulation
0.95 0.99 1.04 0.96 0.95 0.97 1.09 1.30 1.53 1.37 0.91 0.65 0.67 0.68 0.70 0.78 0.94 0.99 1.01 1.14 1.13 1.13 1.16 1.21 1.30 1.22 1.14 1.13 1.24 1.28 1.31 1.41 1.58 1.74 1.91 2.18 2.51 3.24
1.09 1.08 1.08 1.05 1.00 0.93 0.94 1.01 1.24 1.45 1.37 0.79 0.78 0.85 0.89 0.96 1.04 0.92 0.81 0.96 0.88 0.87 0.90 0.92 0.87 0.82 0.82 0.84 0.88 0.86 0.90 0.94 1.03 1.23 1.35 1.52 1.74 1.89
1.26 1.25 1.13 1.19 1.48 1.55 1.51 1.56 1.72 1.94 2.10 1.47 1.05 0.96 0.91 0.84 0.86 0.83 0.75 0.63 0.59 0.77 0.68 0.66 0.62 0.57 0.60 0.60 0.59 0.59 0.58 0.59 0.68 0.83 0.99 1.17 1.30 1.48
0.89 1.02 0.97 0.96 0.99 0.97 1.03 1.13 1.24 1.36 1.63 1.46 1.08 1.05 1.02 0.96 0.95 0.94 0.89 0.83 0.76 0.92 0.81 0.58 0.42 0.32 0.31 0.32 0.36 0.40 0.42 0.46 0.50 0.55 0.59 0.65 0.72 0.81
0.69 0.70 0.66 0.77 0.82 0.93 1.07 1.21 1.27 1.40 1.58 1.59 1.25 1.08 1.01 0.98 1.02 0.99 0.94 0.90 0.84 0.98 0.85 0.69 0.67 0.60 0.49 0.46 0.43 0.37 0.29 0.25 0.25 0.28 0.33 0.33 0.36 0.47
0.36 0.48 0.58 0.72 0.84 0.97 1.05 1.04 1.10 1.22 1.23 1.23 1.04 0.78 0.61 0.57 0.67 0.62 0.56 0.51 0.49 0.56 0.62 0.53 0.54 0.52 0.50 0.47 0.45 0.44 0.40 0.37 0.30 0.22 0.22 0.27 0.31 0.40
0.27 0.31 0.33 0.46 0.57 0.62 0.77 0.86 1.00 1.17 1.30 1.29 1.03 0.78 0.53 0.35 0.29 0.26 0.33 0.31 0.34 0.33 0.31 0.32 0.31 0.26 0.23 0.26 0.25 0.32 0.40 0.47 0.55 0.59 0.56 0.47 0.43 0.43
0.28 0.36 0.45 0.59 0.53 0.51 0.46 0.42 0.42 0.59 0.76 0.84 0.85 0.71 0.56 0.51 0.57 0.61 0.61 0.57 0.47 0.19 0.15 0.12 0.12 0.11 0.13 0.19 0.30 0.33 0.31 0.34 0.37 0.47 0.58 0.60 0.60 0.58
0.48 0.45 0.37 0.35 0.35 0.29 0.29 0.31 0.34 0.34 0.36 0.32 0.28 0.20 0.21 0.26 0.42 0.54 0.55 0.52 0.41 0.23 0.32 0.30 0.16 0.08 0.04 0.12 0.23 0.22 0.29 0.32 0.34 0.38 0.52 0.60 0.66 0.72
0.45 0.40 0.33 0.26 0.19 0.14 0.16 0.21 0.11 0.08 0.13 0.19 0.20 0.27 0.38 0.42 0.55 0.71 0.61 0.53 0.46 0.35 0.32 0.32 0.13 0.12 0.06 0.05 0.12 0.10 0.17 0.23 0.29 0.35 0.41 0.47 0.61 0.72
0.14 0.07 0.03 0.03 0.05 0.09 0.09 0.05 0.02 0.02 0.09 0.16 0.24 0.30 0.34 0.36 0.34 0.43 0.60 0.69 0.66 0.41 0.31 0.31 0.19 0.17 0.15 0.11 0.10 0.12 0.07 0.10 0.14 0.22 0.29 0.35 0.38 0.45
0.01 0.00 0.02 0.02 0.06 0.10 0.06 0.02 0.03 0.01 0.06 0.06 0.06 0.08 0.11 0.16 0.23 0.23 0.30 0.56 0.44 0.46 0.29 0.47 0.37 0.36 0.62 0.27 0.16 0.16 0.13 0.14 0.13 0.13 0.15 0.21 0.34 0.35
0.02 0.01 0.00 0.06 0.09 0.09 0.10 0.06 0.08 0.10 0.08 0.06 0.06 0.07 0.07 0.09 0.11 0.12 0.13 0.39 0.62 0.47 0.21 0.69 0.77 0.42 0.68 0.37 0.17 0.23 0.21 0.19 0.20 0.18 0.17 0.22 0.35 0.45
0.03 0.02 0.03 0.10 0.11 0.11 0.10 0.07 0.12 0.12 0.05 0.04 0.05 0.07 0.10 0.10 0.10 0.10 0.12 0.14 0.21 0.39 0.21 0.39 0.92 0.40 0.66 0.52 0.24 0.18 0.28 0.25 0.25 0.25 0.22 0.34 0.37 0.49
0.05 0.08 0.11 0.15 0.14 0.09 0.08 0.07 0.11 0.07 0.05 0.09 0.10 0.09 0.08 0.08 0.14 0.21 0.23 0.22 0.22 0.20 0.21 0.16 0.39 0.37 0.61 0.73 0.43 0.16 0.30 0.30 0.24 0.31 0.36 0.43 0.42 0.40
0.11 0.16 0.26 0.22 0.18 0.15 0.15 0.12 0.10 0.10 0.14 0.17 0.18 0.16 0.21 0.31 0.33 0.29 0.35 0.35 0.41 0.35 0.24 0.25 0.26 0.38 0.61 0.40 0.56 0.44 0.25 0.43 0.28 0.28 0.45 0.45 0.41 0.40
0.40 0.28 0.28 0.28 0.22 0.15 0.12 0.17 0.19 0.17 0.16 0.15 0.20 0.20 0.22 0.28 0.34 0.40 0.45 0.48 0.55 0.42 0.34 0.26 0.22 0.33 0.34 0.34 0.56 0.30 0.26 0.27 0.32 0.47 0.55 0.60 0.43 0.45
0.56 0.31 0.27 0.21 0.17 0.21 0.25 0.27 0.23 0.26 0.25 0.24 0.21 0.26 0.35 0.35 0.37 0.35 0.42 0.59 0.66 0.47 0.44 0.41 0.35 0.41 0.47 0.43 0.40 0.39 0.39 0.34 0.35 0.39 0.40 0.84 0.57 0.38
0.54 0.16 0.14 0.21 0.27 0.26 0.24 0.35 0.38 0.28 0.39 0.50 0.62 0.60 0.61 0.61 0.58 0.51 0.48 0.56 0.55 0.57 0.61 0.56 0.71 0.95 1.09 0.59 0.38 0.42 0.74 0.55 0.37 0.42 0.46 0.61 0.71 0.53
0.34 0.18 0.17 0.18 0.18 0.33 0.43 0.40 0.44 0.55 0.62 0.66 0.81 0.85 0.88 0.90 0.76 0.63 0.56 0.67 0.70 0.58 0.54 0.61 0.74 0.94 1.50 1.08 0.83 0.43 0.43 0.58 0.80 0.75 0.62 0.63 0.87 0.80
0.20 0.19 0.18 0.23 0.23 0.26 0.36 0.54 0.62 0.59 0.61 0.71 0.70 0.74 0.75 0.95 0.76 0.59 0.62 0.61 0.68 0.78 0.71 0.41 0.41 0.69 1.09 1.40 1.37 0.68 0.55 0.55 0.67 1.09 0.95 0.97 0.73 0.56
0.20 0.21 0.15 0.14 0.19 0.30 0.38 0.48 0.57 0.57 0.59 0.53 0.50 0.58 0.63 0.78 0.80 0.68 0.65 0.77 0.55 0.48 0.60 0.55 0.58 0.69 0.95 1.30 0.88 0.46 0.46 0.57 0.70 0.71 0.67 1.24 1.59 1.53
0.26 0.32 0.26 0.19 0.20 0.27 0.37 0.42 0.42 0.38 0.42 0.50 0.54 0.55 0.62 0.75 0.54 0.66 0.71 0.72 0.70 0.80 0.67 0.77 0.70 0.68 0.62 0.66 0.74 0.65 0.46 0.45 0.50 0.68 0.71 0.65 0.68 0.77

GFSNE_prec_precacc_150.txt.gz
Total_Precipitation_Accumulation
0.95 0.99 1.04 0.96 0.95 0.97 1.09 1.30 1.53 1.37 0.91 0.65 0.67 0.68 0.70 0.78 0.94 0.99 1.01 1.14 1.13 1.13 1.16 1.21 1.30 1.22 1.14 1.13 1.24 1.28 1.31 1.41 1.58 1.74 1.92 2.19 2.54 3.29
1.09 1.08 1.08 1.05 1.00 0.93 0.94 1.01 1.24 1.45 1.37 0.79 0.78 0.85 0.89 0.96 1.04 0.92 0.81 0.96 0.88 0.87 0.90 0.92 0.87 0.82 0.82 0.84 0.88 0.86 0.90 0.94 1.03 1.23 1.35 1.52 1.75 1.91
1.26 1.25 1.13 1.19 1.48 1.55 1.51 1.56 1.72 1.94 2.10 1.47 1.05 0.96 0.91 0.84 0.86 0.83 0.75 0.63 0.59 0.77 0.68 0.66 0.62 0.57 0.60 0.60 0.59 0.59 0.58 0.59 0.68 0.83 0.99 1.17 1.30 1.48
0.89 1.02 0.97 0.96 0.99 0.97 1.03 1.13 1.24 1.36 1.63 1.46 1.08 1.05 1.02 0.96 0.95 0.94 0.89 0.83 0.76 0.92 0.81 0.58 0.42 0.32 0.31 0.32 0.36 0.40 0.42 0.46 0.50 0.55 0.59 0.65 0.72 0.81
0.69 0.70 0.66 0.77 0.82 0.93 1.07 1.21 1.27 1.40 1.58 1.59 1.25 1.08 1.01 0.98 1.02 0.99 0.94 0.90 0.84 0.98 0.85 0.69 0.67 0.60 0.49 0.46 0.43 0.37 0.29 0.25 0.25 0.28 0.33 0.33 0.36 0.47
0.36 0.48 0.58 0.72 0.84 0.97 1.05 1.04 1.10 1.22 1.23 1.23 1.04 0.78 0.61 0.57 0.67 0.62 0.56 0.51 0.49 0.56 0.62 0.53 0.54 0.52 0.50 0.47 0.45 0.44 0.40 0.37 0.30 0.22 0.22 0.27 0.31 0.40
0.27 0.31 0.33 0.46 0.57 0.62 0.77 0.86 1.00 1.17 1.30 1.29 1.03 0.78 0.53 0.35 0.29 0.26 0.33 0.31 0.34 0.33 0.31 0.32 0.31 0.26 0.23 0.26 0.25 0.32 0.40 0.47 0.55 0.59 0.56 0.47 0.43 0.43
0.28 0.36 0.45 0.59 0.53 0.51 0.46 0.42 0.42 0.59 0.76 0.84 0.85 0.71 0.56 0.51 0.57 0.61 0.61 0.57 0.47 0.19 0.15 0.12 0.12 0.11 0.13 0.19 0.30 0.33 0.31 0.34 0.37 0.47 0.58 0.60 0.60 0.58
0.48 0.45 0.37 0.35 0.35 0.29 0.29 0.31 0.34 0.34 0.36 0.32 0.28 0.20 0.21 0.26 0.42 0.54 0.55 0.52 0.41 0.23 0.32 0.30 0.16 0.08 0.04 0.12 0.23 0.22 0.29 0.32 0.34 0.38 0.52 0.60 0.66 0.72
0.45 0.40 0.33 0.26 0.19 0.14 0.16 0.21 0.11 0.08 0.13 0.19 0.20 0.27 0.38 0.42 0.55 0.71 0.61 0.53 0.46 0.35 0.32 0.32 0.13 0.12 0.06 0.05 0.12 0.10 0.17 0.23 0.29 0.35 0.41 0.47 0.61 0.72
0.14 0.07 0.03 0.03 0.05 0.09 0.09 0.05 0.02 0.02 0.09 0.16 0.24 0.30 0.34 0.36 0.35 0.43 0.60 0.69 0.66 0.41 0.31 0.31 0.19 0.17 0.15 0.11 0.10 0.12 0.07 0.10 0.14 0.22 0.29 0.35 0.38 0.45
0.01 0.00 0.02 0.02 0.06 0.10 0.06 0.02 0.03 0.01 0.06 0.06 0.06 0.08 0.11 0.16 0.23 0.23 0.30 0.56 0.44 0.46 0.29 0.47 0.37 0.36 0.62 0.27 0.16 0.16 0.13 0.14 0.13 0.13 0.15 0.21 0.34 0.35
0.02 0.01 0.00 0.06 0.09 0.09 0.10 0.06 0.08 0.11 0.09 0.06 0.06 0.07 0.07 0.09 0.11 0.12 0.13 0.39 0.62 0.47 0.21 0.69 0.77 0.42 0.68 0.37 0.17 0.23 0.21 0.19 0.20 0.18 0.17 0.22 0.35 0.45
0.03 0.02 0.03 0.10 0.13 0.12 0.11 0.08 0.12 0.13 0.05 0.04 0.05 0.07 0.10 0.10 0.10 0.10 0.12 0.14 0.21 0.39 0.21 0.39 0.92 0.40 0.66 0.52 0.24 0.18 0.28 0.25 0.25 0.25 0.22 0.34 0.37 0.49
0.05 0.09 0.12 0.16 0.17 0.13 0.11 0.10 0.13 0.09 0.06 0.10 0.11 0.09 0.08 0.08 0.14 0.21 0.23 0.22 0.22 0.20 0.21 0.16 0.39 0.37 0.61 0.74 0.44 0.16 0.30 0.30 0.24 0.31 0.36 0.43 0.42 0.40
0.13 0.20 0.30 0.28 0.26 0.21 0.17 0.14 0.12 0.12 0.16 0.18 0.18 0.16 0.21 0.31 0.33 0.29 0.35 0.35 0.41 0.35 0.24 0.25 0.26 0.38 0.61 0.40 0.56 0.44 0.25 0.43 0.28 0.28 0.45 0.45 0.41 0.40
0.47 0.36 0.35 0.38 0.29 0.21 0.16 0.19 0.22 0.19 0.17 0.15 0.20 0.21 0.23 0.28 0.34 0.40 0.45 0.48 0.55 0.42 0.34 0.26 0.22 0.33 0.34 0.34 0.56 0.30 0.26 0.27 0.32 0.47 0.55 0.60 0.43 0.45
0.63 0.36 0.32 0.28 0.27 0.31 0.32 0.32 0.26 0.27 0.26 0.25 0.22 0.27 0.35 0.35 0.37 0.35 0.42 0.59 0.66 0.47 0.44 0.41 0.35 0.42 0.47 0.43 0.40 0.39 0.39 0.34 0.35 0.39 0.40 0.85 0.57 0.38
0.62 0.20 0.19 0.29 0.38 0.37 0.33 0.41 0.40 0.28 0.39 0.51 0.62 0.61 0.61 0.61 0.58 0.51 0.48 0.56 0.55 0.57 0.61 0.56 0.71 0.96 1.10 0.59 0.38 0.42 0.74 0.55 0.37 0.42 0.46 0.61 0.71 0.53
0.40 0.24 0.23 0.28 0.31 0.44 0.52 0.45 0.46 0.56 0.62 0.67 0.81 0.85 0.88 0.90 0.76 0.63 0.56 0.67 0.70 0.58 0.54 0.61 0.74 0.94 1.51 1.08 0.84 0.43 0.43 0.58 0.80 0.75 0.62 0.63 0.87 0.80
0.25 0.26 0.24 0.34 0.32 0.32 0.41 0.57 0.63 0.60 0.61 0.71 0.70 0.74 0.75 0.95 0.76 0.59 0.62 0.61 0.68 0.79 0.71 0.41 0.41 0.69 1.09 1.42 1.39 0.68 0.55 0.55 0.67 1.09 0.96 0.98 0.73 0.56
0.23 0.27 0.19 0.19 0.24 0.33 0.41 0.49 0.57 0.57 0.59 0.53 0.50 0.58 0.63 0.78 0.80 0.68 0.65 0.77 0.55 0.48 0.60 0.55 0.58 0.69 0.96 1.31 0.88 0.46 0.46 0.57 0.70 0.71 0.67 1.24 1.61 1.55
0.29 0.37 0.31 0.23 0.23 0.29 0.39 0.43 0.42 0.38 0.42 0.50 0.54 0.55 0.62 0.75 0.54 0.66 0.71 0.72 0.70 0.80 0.67 0.77 0.70 0.68 0.62 0.66 0.74 0.65 0.46 0.45 0.50 0.68 0.71 0.65 0.68 0.77

GFSNE_prec_precacc_153.txt.gz
Total_Precipitation_Accumulation
0.95 0.99 1.04 0.96 0.95 0.97 1.09 1.30 1.53 1.37 0.91 0.65 0.67 0.68 0.70 0.78 0.94 0.99 1.01 1.14 1.13 1.13 1.16 1.21 1.30 1.22 1.14 1.13 1.24 1.28 1.31 1.41 1.58 1.74 1.92 2.19 2.54 3.30
1.09 1.08 1.08 1.05 1.00 0.93 0.94 1.01 1.24 1.45 1.37 0.79 0.78 0.85 0.89 0.96 1.04 0.92 0.81 0.96 0.88 0.87 0.90 0.92 0.87 0.82 0.82 0.84 0.88 0.86 0.90 0.94 1.03 1.23 1.35 1.52 1.75 1.91
1.26 1.25 1.13 1.19 1.48 1.55 1.51 1.56 1.72 1.94 2.10 1.47 1.05 0.96 0.91 0.84 0.86 0.83 0.75 0.63 0.59 0.77 0.68 0.66 0.62 0.57 0.60 0.60 0.59 0.59 0.58 0.59 0.68 0.83 0.99 1.17 1.30 1.48
0.89 1.02 0.97 0.96 0.99 0.97 1.03 1.13 1.24 1.36 1.63 1.46 1.08 1.05 1.02 0.96 0.95 0.94 0.89 0.83 0.76 0.92 0.81 0.58 0.42 0.32 0.31 0.32 0.36 0.40 0.42 0.46 0.50 0.55 0.59 0.65 0.72 0.81
0.69 0.70 0.66 0.77 0.82 0.93 1.07 1.21 1.27 1.40 1.58 1.59 1.25 1.08 1.01 0.98 1.02 0.99 0.94 0.90 0.84 0.98 0.85 0.69 0.67 0.60 0.49 0.46 0.43 0.37 0.29 0.25 0.25 0.28 0.33 0.33 0.36 0.47
0.36 0.48 0.58 0.72 0.84 0.97 1.05 1.04 1.10 1.22 1.23 1.23 1.04 0.78 0.61 0.57 0.67 0.62 0.56 0.51 0.49 0.56 0.62 0.53 0.54 0.52 0.50 0.47 0.45 0.44 0.40 0.37 0.30 0.22 0.22 0.27 0.31 0.40
0.27 0.31 0.33 0.46 0.57 0.62 0.77 0.86 1.00 1.17 1.30 1.29 1.03 0.78 0.53 0.35 0.29 0.26 0.33 0.31 0.34 0.33 0.31 0.32 0.31 0.26 0.23 0.26 0.25 0.32 0.40 0.47 0.55 0.59 0.56 0.47 0.43 0.43
0.28 0.36 0.45 0.59 0.53 0.51 0.46 0.42 0.42 0.59 0.76 0.84 0.85 0.71 0.56 0.51 0.57 0.61 0.61 0.57 0.47 0.19 0.15 0.12 0.12 0.11 0.13 0.19 0.30 0.33 0.31 0.34 0.37 0.47 0.58 0.60 0.60 0.58
0.48 0.45 0.37 0.35 0.35 0.29 0.29 0.31 0.34 0.34 0.36 0.32 0.28 0.20 0.21 0.26 0.42 0.54 0.55 0.52 0.41 0.23 0.32 0.30 0.16 0.08 0.04 0.12 0.23 0.22 0.29 0.32 0.34 0.38 0.52 0.60 0.66 0.72
0.45 0.40 0.33 0.26 0.19 0.14 0.16 0.21 0.11 0.08 0.13 0.19 0.20 0.27 0.38 0.42 0.55 0.71 0.61 0.53 0.46 0.35 0.32 0.32 0.13 0.12 0.06 0.05 0.12 0.10 0.17 0.23 0.29 0.35 0.41 0.47 0.61 0.72
0.14 0.07 0.03 0.03 0.05 0.09 0.09 0.05 0.02 0.02 0.09 0.16 0.24 0.30 0.34 0.36 0.35 0.43 0.60 0.70 0.66 0.41 0.31 0.31 0.19 0.17 0.15 0.11 0.10 0.12 0.07 0.10 0.14 0.22 0.29 0.35 0.38 0.45
0.01 0.00 0.02 0.02 0.06 0.10 0.06 0.03 0.04 0.01 0.06 0.06 0.06 0.08 0.11 0.16 0.23 0.24 0.30 0.56 0.44 0.46 0.29 0.47 0.37 0.36 0.62 0.27 0.16 0.16 0.13 0.14 0.13 0.13 0.15 0.21 0.34 0.35
0.02 0.01 0.00 0.06 0.09 0.10 0.12 0.12 0.10 0.11 0.10 0.08 0.08 0.09 0.08 0.09 0.11 0.12 0.13 0.39 0.62 0.47 0.21 0.69 0.77 0.42 0.68 0.37 0.17 0.23 0.21 0.19 0.20 0.18 0.17 0.22 0.35 0.45
0.03 0.02 0.03 0.10 0.14 0.16 0.16 0.16 0.16 0.18 0.10 0.09 0.09 0.09 0.10 0.10 0.10 0.10 0.12 0.14 0.21 0.39 0.21 0.39 0.92 0.40 0.66 0.52 0.24 0.18 0.28 0.25 0.25 0.25 0.22 0.34 0.37 0.49
0.05 0.09 0.12 0.17 0.19 0.17 0.16 0.17 0.22 0.20 0.13 0.13 0.14 0.10 0.08 0.08 0.14 0.21 0.23 0.22 0.22 0.20 0.21 0.16 0.39 0.37 0.61 0.74 0.44 0.16 0.30 0.30 0.24 0.31 0.36 0.43 0.42 0.40
0.14 0.20 0.31 0.29 0.28 0.25 0.21 0.19 0.22 0.24 0.22 0.21 0.22 0.19 0.23 0.32 0.33 0.29 0.35 0.35 0.41 0.35 0.24 0.25 0.26 0.38 0.61 0.41 0.57 0.44 0.25 0.43 0.28 0.28 0.45 0.45 0.41 0.40
0.48 0.37 0.36 0.39 0.32 0.26 0.21 0.24 0.30 0.30 0.29 0.22 0.25 0.24 0.25 0.30 0.35 0.41 0.45 0.48 0.55 0.42 0.34 0.26 0.22 0.33 0.34 0.34 0.56 0.30 0.26 0.27 0.32 0.47 0.55 0.60 0.43 0.45
0.65 0.38 0.34 0.31 0.30 0.35 0.39 0.39 0.33 0.36 0.33 0.30 0.26 0.30 0.38 0.37 0.39 0.35 0.42 0.59 0.66 0.47 0.44 0.41 0.35 0.42 0.47 0.43 0.40 0.39 0.39 0.34 0.35 0.39 0.40 0.85 0.57 0.38
0.62 0.21 0.22 0.32 0.42 0.41 0.39 0.47 0.47 0.34 0.43 0.56 0.67 0.65 0.64 0.62 0.59 0.51 0.48 0.56 0.55 0.57 0.61 0.56 0.71 0.96 1.10 0.59 0.38 0.42 0.74 0.55 0.37 0.42 0.46 0.61 0.71 0.53
0.41 0.26 0.26 0.30 0.35 0.49 0.57 0.50 0.50 0.60 0.66 0.71 0.85 0.89 0.89 0.91 0.76 0.63 0.56 0.67 0.70 0.58 0.54 0.61 0.74 0.95 1.51 1.08 0.84 0.43 0.43 0.58 0.80 0.75 0.62 0.63 0.87 0.80
0.25 0.28 0.28 0.37 0.36 0.37 0.44 0.61 0.67 0.63 0.65 0.75 0.73 0.76 0.75 0.95 0.76 0.59 0.62 0.61 0.69 0.79 0.72 0.41 0.41 0.69 1.10 1.42 1.39 0.68 0.55 0.55 0.67 1.09 0.96 0.98 0.74 0.57
0.23 0.28 0.21 0.21 0.26 0.35 0.43 0.53 0.61 0.61 0.61 0.56 0.52 0.59 0.63 0.78 0.80 0.68 0.65 0.77 0.56 0.48 0.60 0.55 0.58 0.70 0.96 1.32 0.88 0.46 0.46 0.57 0.70 0.71 0.67 1.25 1.62 1.56
0.31 0.38 0.33 0.25 0.26 0.32 0.42 0.46 0.45 0.40 0.42 0.51 0.55 0.56 0.62 0.75 0.54 0.66 0.71 0.72 0.70 0.80 0.67 0.78 0.70 0.69 0.62 0.67 0.74 0.65 0.46 0.45 0.50 0.68 0.71 0.65 0.68 0.77